GFSNW_sfc_thetae_000.txt.gz
Theta_e
313 315 315 315 315 314 308 306 303 313 311 305 303 299 300 301 303 305 303 303 301 300 299 299 299 298 301 305 305 301 303 301 296 298 299 297 296 295 295 292 288 290 288 291
314 313 314 316 315 312 307 302 303 312 310 300 299 299 298 300 302 302 302 301 302 303 301 298 300 301 305 305 303 302 303 299 293 293 297 297 297 296 296 295 295 293 289 292
315 314 314 315 315 314 307 302 298 305 304 300 300 298 296 297 300 301 303 302 303 301 300 301 300 300 302 304 304 303 304 299 296 291 292 298 294 294 295 296 292 292 293 295
316 315 314 315 314 313 307 302 297 298 297 298 298 298 297 295 296 299 301 301 300 299 297 298 298 299 301 302 302 303 302 296 298 298 299 298 297 297 297 294 296 292 294 295
315 315 314 314 313 310 306 300 300 298 297 296 297 295 295 296 295 298 297 299 300 301 298 299 297 299 300 299 301 300 299 295 295 292 295 295 293 296 297 297 297 296 296 296
316 314 314 314 313 310 304 304 303 301 294 295 296 297 296 295 296 296 299 300 300 299 299 302 303 304 304 302 300 298 297 295 291 287 292 292 288 293 294 295 297 297 293 298
316 316 314 314 313 309 307 306 304 300 294 295 295 295 295 295 295 294 294 299 298 297 300 299 298 297 297 297 299 302 296 295 294 288 291 284 293 298 298 296 297 299 299 300
316 315 315 314 313 312 307 307 302 298 293 294 292 293 294 294 295 295 295 295 298 300 296 292 290 291 291 292 294 294 298 295 290 287 288 291 294 297 295 294 295 300 298 299
314 314 315 315 314 313 310 307 306 301 295 296 295 293 294 293 292 292 292 295 298 298 294 290 285 287 288 289 289 296 295 296 292 289 284 283 293 298 299 299 290 301 301 299
314 314 314 314 314 313 311 308 309 304 296 299 297 294 295 293 291 290 290 292 293 295 290 287 285 286 288 287 287 289 289 290 288 288 286 291 298 300 299 288 293 300 299 296
313 313 313 314 314 313 311 308 309 304 299 300 300 299 293 292 293 293 291 292 292 290 287 287 288 285 287 288 290 290 290 288 288 289 286 284 300 298 293 299 302 299 298 298
312 312 313 313 313 313 312 307 309 308 301 301 305 305 305 300 299 296 293 296 294 293 291 290 289 286 287 288 287 293 288 295 294 294 293 301 301 300 301 299 297 298 298 299
310 311 312 313 313 314 312 308 307 305 300 301 301 302 307 308 306 306 296 297 298 295 300 294 293 288 292 286 289 293 295 297 291 294 298 299 301 298 300 298 298 298 298 298
309 310 311 312 312 313 313 308 308 307 301 295 301 306 305 309 307 303 303 302 299 301 299 295 292 289 295 290 295 293 297 296 296 296 299 300 301 300 299 296 295 293 292 292
308 309 310 311 311 311 312 310 309 311 304 296 298 304 304 304 307 304 304 302 301 297 294 292 290 294 293 294 292 290 295 296 294 293 299 298 299 301 295 293 291 292 291 290
307 308 309 310 310 311 308 301 308 310 309 299 290 301 299 300 302 303 302 302 300 298 295 293 295 297 293 288 287 295 298 300 300 297 301 300 293 293 292 292 290 290 289 289
307 308 308 309 310 308 302 300 303 306 309 298 290 292 297 298 299 299 300 300 299 297 295 293 293 293 295 291 287 295 299 300 300 300 296 292 290 290 289 288 288 289 287 285
308 309 309 309 309 305 301 301 303 306 301 298 286 288 291 298 294 294 299 297 297 296 295 295 293 294 292 286 294 297 298 299 298 296 294 292 291 289 287 286 284 282 282 282
308 308 305 303 299 297 297 301 301 301 299 290 288 287 287 295 294 295 295 296 290 296 291 292 292 290 285 292 294 295 296 295 294 288 288 287 286 284 283 282 281 280 280 280
307 304 299 291 295 300 299 296 294 291 292 290 287 292 288 293 292 291 291 290 287 284 288 291 286 287 294 296 296 297 297 294 288 284 282 283 283 283 281 280 281 281 280 280
299 295 291 295 298 296 292 287 287 288 286 288 288 289 288 292 288 289 291 286 286 282 285 285 283 284 290 288 287 288 290 291 289 288 287 286 287 282 279 280 280 280 279 279
299 296 295 295 291 287 285 284 283 283 284 286 286 287 290 289 292 289 286 285 284 280 285 281 279 285 285 285 285 286 289 289 284 283 281 281 281 281 280 280 279 279 280 280
297 291 287 287 286 281 281 279 280 280 283 282 285 284 288 288 289 287 286 281 281 285 279 279 283 286 285 284 284 284 285 282 281 281 281 281 280 280 279 279 280 279 279 279
290 287 283 282 281 283 284 283 285 285 282 283 286 285 285 287 284 285 281 284 282 277 275 276 284 285 284 283 284 283 283 282 281 281 281 280 279 279 279 279 280 279 278 278
287 286 282 283 285 282 279 279 282 282 285 286 284 284 285 283 283 283 282 277 275 277 277 282 285 283 282 282 283 284 284 282 281 281 281 280 279 279 279 279 279 278 277 277
287 286 285 282 281 281 278 280 282 284 286 285 286 282 280 280 281 279 277 276 274 279 282 286 282 281 282 282 283 284 284 282 281 281 280 279 279 279 279 278 277 277 277 276
286 285 288 285 283 286 284 283 284 287 286 283 283 278 279 281 278 276 278 276 281 284 285 283 281 280 282 283 283 283 282 281 280 279 278 279 279 277 276 275 277 276 276 276

GFSNW_sfc_thetae_003.txt.gz
Theta_e
314 313 314 315 316 315 312 312 305 318 318 308 309 303 305 303 305 307 304 305 304 302 302 300 300 299 302 306 307 302 304 303 297 299 299 300 300 298 298 294 291 293 291 292
314 313 314 315 315 314 310 308 308 318 317 302 302 303 301 303 304 304 304 302 305 305 302 299 302 303 306 306 305 303 305 300 294 295 298 300 299 299 299 299 299 293 289 292
315 314 314 314 315 314 311 307 303 308 311 308 305 303 301 299 303 303 305 303 305 304 301 303 300 301 303 306 306 304 306 300 297 292 294 298 296 298 299 298 293 293 293 296
315 314 314 314 314 313 310 306 300 302 301 303 302 303 301 299 298 303 305 303 303 302 299 300 299 301 302 303 303 304 304 297 298 298 298 297 296 296 297 295 296 292 294 294
316 314 313 314 314 312 310 304 302 304 302 301 301 299 299 298 298 299 300 301 302 303 300 301 299 301 301 300 302 301 302 295 296 293 295 294 292 294 294 295 296 296 297 296
316 315 313 313 313 311 308 309 307 305 297 299 299 299 298 298 299 299 302 303 302 301 301 304 305 305 305 304 300 299 298 295 292 288 293 293 289 293 294 295 297 297 294 300
316 316 314 314 313 311 311 309 308 303 296 299 299 298 299 298 299 297 299 302 300 300 302 301 300 299 298 299 299 301 296 295 293 288 291 284 295 300 299 297 299 300 300 301
316 315 315 314 313 311 310 312 307 303 298 299 297 297 297 298 298 298 298 298 299 302 299 295 293 294 294 294 296 296 297 295 291 288 289 293 296 299 298 296 296 302 301 302
314 315 315 315 314 312 312 309 309 303 302 299 299 297 298 298 296 293 294 296 299 299 297 295 291 293 292 293 292 298 297 296 293 292 286 285 296 300 301 300 291 303 302 301
314 314 314 314 314 312 314 312 312 307 302 302 300 300 300 298 295 293 291 294 293 297 293 290 288 290 290 290 290 291 292 292 289 290 289 293 300 302 302 290 294 302 303 303
312 312 313 314 313 312 313 312 312 307 304 305 302 301 298 293 294 298 294 293 295 294 293 293 290 290 292 290 294 292 292 291 290 291 288 285 303 301 294 301 304 304 301 300
311 312 312 313 313 312 312 308 310 309 303 306 307 308 306 301 301 299 293 296 297 298 294 291 291 287 288 289 286 297 290 296 294 294 294 303 305 303 306 305 303 303 301 300
309 310 311 312 313 314 312 308 307 305 300 301 302 305 311 312 308 307 298 299 301 299 303 297 294 290 292 289 291 294 298 301 296 296 300 302 304 306 306 304 302 301 299 299
308 309 311 311 312 313 312 308 309 307 303 297 303 309 306 310 310 309 307 303 301 301 301 297 293 291 297 293 296 294 298 299 296 297 300 303 304 303 300 299 297 296 295 295
307 308 309 310 311 311 313 310 310 311 305 297 301 307 309 308 309 308 307 304 302 298 294 293 291 295 294 295 294 292 298 296 295 294 301 299 299 301 301 299 296 295 293 290
306 308 309 310 310 311 309 303 309 310 309 300 292 306 303 303 304 305 304 305 303 300 297 294 296 298 295 290 288 297 300 301 301 298 302 302 302 296 296 296 295 293 292 291
306 307 308 309 310 309 303 301 304 306 310 299 293 296 300 300 302 301 300 302 299 298 296 293 294 294 295 292 288 296 299 300 301 302 301 297 299 295 293 291 290 290 288 287
306 307 309 309 307 304 301 300 303 306 302 300 289 292 295 299 295 296 301 298 298 296 295 296 293 294 293 287 294 297 299 299 299 300 300 294 291 290 288 287 286 284 283 283
308 307 306 304 300 299 298 301 303 303 301 292 289 288 288 297 295 297 297 298 291 298 293 292 294 291 286 292 295 296 297 297 297 291 290 289 288 286 284 283 282 282 281 281
306 305 300 294 296 300 300 299 296 292 293 291 289 295 291 296 295 293 293 292 288 285 290 294 287 288 295 296 298 299 299 295 294 287 285 285 285 284 283 283 283 282 281 281
301 298 293 295 299 298 295 289 290 290 287 290 290 291 288 294 290 290 292 287 287 283 287 286 285 285 291 296 295 292 291 292 294 294 293 290 288 286 284 281 282 281 281 280
300 297 297 296 292 289 287 286 286 284 286 289 287 288 291 291 293 290 287 285 286 281 287 283 280 288 291 289 289 289 290 291 291 290 288 286 288 286 282 281 281 281 281 281
299 294 288 290 287 284 282 281 283 284 287 285 286 285 289 289 290 288 286 283 282 287 281 280 284 289 289 289 288 287 288 288 285 284 282 281 282 282 281 280 281 281 281 281
292 287 283 284 282 283 287 287 288 286 286 286 288 286 286 288 286 287 282 286 284 279 277 279 288 289 288 287 287 287 286 284 283 282 281 281 280 280 281 281 281 281 280 280
288 287 283 284 288 287 284 283 285 284 288 288 287 286 287 284 283 284 284 280 278 280 280 287 289 288 286 285 286 287 287 286 284 282 282 281 281 280 280 281 281 280 279 279
288 286 285 284 285 285 282 282 285 286 289 289 289 284 282 282 283 281 280 279 277 283 286 290 289 286 285 285 286 287 287 287 285 283 282 282 281 281 281 281 280 279 279 277
286 285 289 289 287 289 287 286 287 289 288 285 286 281 281 285 280 279 283 280 286 289 289 289 287 285 285 286 286 286 287 286 285 283 282 282 281 281 279 278 279 279 278 278

GFSNW_sfc_thetae_006.txt.gz
Theta_e
315 314 314 315 316 315 314 311 304 317 320 306 307 300 304 304 305 308 305 305 303 301 301 299 298 298 301 305 306 300 301 298 292 293 296 298 294 293 293 287 286 287 284 285
315 314 315 314 315 314 307 307 306 318 318 299 299 303 301 303 303 303 304 302 305 305 301 297 301 300 305 306 303 300 302 297 290 290 293 296 294 296 295 294 293 289 283 286
315 315 314 314 315 314 309 306 302 310 310 306 303 301 300 299 304 303 305 303 305 302 300 302 299 299 303 306 304 304 303 297 293 288 290 295 293 295 296 293 288 288 290 291
316 314 314 314 314 313 310 305 299 303 299 299 301 302 301 298 298 303 304 302 302 301 297 298 297 299 300 302 303 302 301 294 294 295 296 294 294 294 294 293 294 288 292 292
316 314 313 313 313 312 309 302 301 302 300 301 298 298 297 297 298 299 299 300 302 302 297 299 297 299 298 298 299 298 298 291 292 289 293 291 290 292 292 293 294 294 294 293
317 315 313 313 313 310 308 307 306 303 297 298 296 296 296 297 299 299 301 302 301 299 296 297 298 300 301 300 297 296 294 291 288 284 290 289 286 291 292 292 294 293 289 294
316 315 314 314 313 310 310 308 307 302 295 296 297 299 299 298 297 296 299 300 298 298 300 299 296 294 295 295 294 297 293 291 290 285 287 279 292 296 296 294 295 296 296 297
315 315 315 314 313 312 310 310 306 301 295 297 297 298 297 298 297 296 297 296 297 299 296 292 291 289 290 292 295 294 293 291 286 284 284 289 293 296 294 291 292 297 296 297
314 314 314 315 313 312 312 309 310 304 300 296 299 296 297 294 293 292 293 295 297 298 295 293 287 288 290 288 290 295 295 292 288 283 281 280 292 296 299 296 287 298 298 298
313 313 313 314 314 312 312 310 311 308 304 301 300 298 297 297 294 292 290 293 293 296 290 288 286 287 288 287 287 287 288 287 285 285 283 288 297 297 298 286 289 298 299 299
312 312 313 313 313 312 312 311 311 307 304 303 302 301 297 295 295 295 293 292 293 291 288 289 288 286 289 286 289 289 288 286 285 287 282 280 298 297 291 296 298 299 300 297
311 311 312 313 313 313 312 308 310 310 305 303 307 307 307 302 301 298 294 296 295 297 293 291 289 286 288 288 286 291 286 292 289 291 289 298 298 297 300 299 300 300 299 298
309 310 311 312 313 313 312 307 307 305 301 302 302 303 308 308 305 305 297 297 300 297 302 296 293 289 290 287 288 292 293 296 292 292 294 295 299 301 297 297 297 297 298 297
307 309 311 311 312 313 311 307 308 306 302 296 301 308 306 308 309 308 306 301 302 301 300 296 293 291 296 292 293 291 293 295 293 292 296 298 298 298 297 295 295 294 294 295
307 308 310 310 311 311 311 310 309 310 304 296 299 304 307 307 307 306 307 303 301 298 294 293 291 295 293 294 293 291 295 293 290 290 295 295 296 298 295 294 294 293 291 289
306 308 309 309 310 310 307 301 308 309 308 299 290 304 300 301 303 304 304 303 300 299 295 294 295 297 294 289 288 293 296 297 297 294 296 296 297 296 294 292 292 291 291 291
305 306 308 309 309 308 302 299 301 305 309 298 291 294 298 299 302 301 299 301 299 298 295 293 294 294 295 292 288 293 295 296 296 297 296 294 293 289 289 289 289 289 287 287
306 307 308 309 307 304 300 300 303 306 302 299 287 290 292 297 294 294 299 296 297 295 295 295 293 294 294 287 292 293 294 295 294 294 292 291 289 287 287 287 286 283 284 283
307 308 307 304 300 298 298 301 303 303 300 291 289 287 287 295 294 295 295 296 289 296 292 292 293 290 286 290 292 292 293 292 291 287 286 287 286 286 285 284 284 283 282 282
306 304 299 292 295 300 300 299 295 293 293 292 289 294 289 293 293 290 289 290 287 285 288 292 287 287 292 293 294 293 293 289 289 287 286 286 285 285 283 283 282 282 280 280
301 295 291 295 299 297 294 288 288 290 287 290 289 290 289 293 288 288 289 286 286 281 285 285 284 283 287 291 291 289 288 288 289 289 288 287 286 284 284 284 282 280 279 278
299 295 297 295 292 289 286 285 285 285 285 288 287 288 290 289 292 288 287 285 285 280 285 282 280 283 289 287 286 286 287 288 288 287 286 285 286 287 286 282 279 279 278 278
298 292 287 287 286 282 279 278 282 284 285 285 286 285 288 289 290 287 286 283 282 284 280 279 280 285 285 285 285 285 285 286 284 282 282 283 285 283 280 278 278 278 277 278
289 286 281 281 279 281 283 284 285 284 285 285 287 286 286 287 285 286 282 285 282 278 276 276 282 285 285 284 284 284 282 283 281 280 279 278 278 277 278 278 278 277 276 277
287 286 279 282 283 284 281 283 283 283 286 286 285 285 285 283 283 283 283 280 277 279 276 280 281 283 282 282 282 283 283 282 280 279 278 277 277 277 277 278 278 277 276 276
287 285 284 281 282 283 279 281 283 285 287 285 285 283 281 281 281 281 279 278 275 278 280 282 280 282 281 281 282 283 284 283 282 279 278 278 277 277 277 278 277 276 276 274
285 284 286 283 281 284 283 284 284 287 285 279 284 280 276 279 279 278 279 277 281 283 280 281 280 279 279 281 282 282 282 282 282 279 278 278 278 277 276 274 274 273 276 274

GFSNW_sfc_thetae_009.txt.gz
Theta_e
316 316 315 315 315 315 308 302 296 310 316 302 299 295 301 303 303 306 304 305 302 299 300 297 296 296 299 304 303 297 299 294 289 291 294 296 293 292 290 285 285 284 282 285
316 315 315 314 314 314 301 298 299 313 311 294 293 298 300 301 301 302 303 302 304 303 299 296 298 298 303 305 302 298 300 295 288 289 293 294 293 293 292 292 290 286 283 285
316 316 315 314 314 314 303 298 295 302 301 300 297 297 299 297 302 302 303 302 303 301 299 301 297 297 302 304 303 304 303 296 291 287 288 293 291 293 294 292 286 286 288 289
317 316 314 313 313 313 304 296 293 297 293 294 295 296 297 296 297 301 302 300 301 299 296 296 296 298 300 301 302 300 299 291 292 293 294 293 293 293 293 292 291 288 290 291
317 315 314 313 313 312 301 296 294 296 294 296 294 294 293 294 295 297 299 298 298 297 293 296 296 298 297 297 298 297 297 290 291 288 292 291 289 291 291 292 293 291 292 292
317 315 314 313 313 309 298 299 300 296 294 293 291 292 293 295 296 298 299 299 297 294 294 295 295 297 298 298 296 294 293 289 286 283 289 288 286 290 290 289 290 291 287 292
316 315 315 314 313 309 302 300 299 293 290 292 293 295 296 295 295 294 296 297 295 296 298 296 295 294 293 293 292 295 291 289 288 282 285 279 290 294 295 292 294 293 293 294
315 315 315 314 314 313 302 302 298 294 289 292 294 295 294 293 292 292 293 293 294 296 293 290 288 287 289 291 293 293 291 289 284 282 282 287 291 292 292 291 291 294 293 295
314 314 314 314 313 312 306 302 303 298 292 291 295 292 292 289 287 288 290 293 294 294 292 290 284 282 287 285 288 294 292 289 286 279 278 278 289 293 296 294 286 297 297 295
313 313 313 314 313 312 309 305 306 301 295 296 296 293 292 293 290 287 287 289 290 294 290 288 285 285 287 284 285 285 285 285 282 282 281 285 293 295 296 285 286 297 298 297
311 312 312 313 313 312 310 307 307 302 298 298 299 298 293 291 292 289 290 292 292 291 289 287 285 285 286 285 287 287 286 282 282 283 280 279 295 294 289 292 295 298 299 299
310 311 312 313 313 312 312 304 306 306 302 300 303 304 304 298 298 294 291 294 293 294 289 288 286 285 284 285 284 289 285 290 288 287 287 294 296 295 295 296 295 294 293 295
309 310 311 312 313 313 312 306 306 303 301 300 299 300 306 307 304 304 294 295 297 295 299 294 292 290 289 284 285 286 290 293 289 290 292 292 295 294 295 295 294 294 295 295
308 309 311 311 312 313 311 306 307 306 301 296 300 306 302 307 307 304 304 300 301 300 299 294 292 291 295 290 290 288 291 291 290 290 294 294 294 294 294 293 293 293 291 291
308 309 310 310 311 312 311 309 308 309 303 296 296 303 303 305 307 306 303 302 300 296 294 293 289 293 294 293 289 286 292 291 288 287 293 292 292 295 294 293 293 293 290 288
307 308 309 309 310 311 307 300 305 309 308 299 288 301 299 301 303 304 303 302 299 298 295 292 294 297 294 287 288 291 293 295 296 293 293 294 294 292 291 290 289 289 289 289
306 307 308 309 309 306 301 299 301 305 308 298 290 292 297 299 301 300 299 300 298 297 295 293 293 293 295 291 285 291 293 293 293 293 293 290 289 289 287 288 288 289 288 289
306 307 308 308 306 304 300 300 303 306 302 299 286 289 292 297 294 294 299 296 296 296 294 294 293 293 293 287 290 291 292 293 292 290 290 291 287 286 287 288 287 283 282 283
306 308 307 303 299 297 297 301 303 303 300 290 288 286 286 295 294 295 295 296 289 295 292 292 293 290 286 289 290 292 292 291 291 287 286 285 285 286 286 285 284 281 282 282
307 303 298 291 295 300 300 297 294 292 293 292 289 293 287 293 293 290 289 290 287 285 288 292 287 288 292 292 293 292 291 290 288 284 282 285 285 286 286 282 285 285 284 282
300 294 290 295 299 296 292 287 287 289 287 290 290 290 287 291 288 287 290 285 286 281 284 285 283 282 286 290 289 287 285 287 287 286 286 286 286 285 287 285 285 283 279 277
298 294 295 295 290 287 284 284 285 285 284 288 287 287 290 289 290 287 287 285 284 279 286 282 279 282 287 287 285 284 286 286 286 286 285 285 285 285 284 283 280 278 278 277
297 290 287 284 285 280 279 277 281 282 285 285 286 285 288 288 289 287 286 282 281 283 280 278 280 284 285 284 284 284 285 286 284 283 283 284 285 285 282 278 278 277 276 276
288 285 282 278 276 278 276 277 279 282 282 284 286 284 285 284 286 285 281 284 281 277 276 275 281 283 284 284 283 283 282 282 282 281 280 278 278 277 277 277 276 276 275 276
286 285 275 277 279 280 275 276 279 279 282 284 282 284 283 283 282 283 281 278 276 276 275 279 280 282 282 281 282 282 282 282 281 280 278 277 277 276 276 276 276 276 276 276
286 284 281 283 282 281 277 278 276 281 281 279 280 282 280 280 282 280 279 278 274 276 278 278 275 281 281 280 281 281 282 281 281 280 278 277 276 275 275 276 276 276 275 273
285 283 282 277 281 281 280 280 280 284 281 276 279 275 274 277 278 275 276 275 278 278 278 277 278 279 281 281 280 280 281 281 281 280 278 277 277 276 275 274 273 272 275 273

GFSNW_sfc_thetae_012.txt.gz
Theta_e
317 317 316 315 314 314 305 300 296 309 312 299 298 297 301 303 303 306 305 303 301 298 300 297 296 295 297 303 302 297 298 290 285 289 293 294 292 291 289 285 283 282 281 284
317 316 316 315 314 312 300 296 298 311 310 296 293 298 300 302 301 302 303 302 304 304 299 295 297 298 303 304 301 298 299 292 286 287 291 294 291 291 291 290 288 285 282 285
316 316 316 314 314 313 301 297 295 299 299 298 296 296 296 297 303 302 303 302 303 300 297 299 296 297 301 302 302 304 302 293 290 287 289 292 290 293 292 290 285 285 286 286
317 316 315 314 314 313 302 295 293 296 293 296 294 296 297 295 296 301 303 300 300 299 294 295 295 297 298 300 302 298 297 290 290 292 292 292 292 293 293 290 289 287 287 289
317 316 314 314 313 312 298 294 293 295 293 294 292 292 291 294 295 297 298 295 296 297 294 294 295 297 296 296 298 296 296 290 290 287 290 290 289 291 290 291 292 291 291 292
316 316 314 314 313 308 296 297 298 294 293 291 290 291 292 294 297 297 297 297 294 292 293 295 295 298 298 297 296 294 293 290 287 283 288 288 285 288 288 287 288 289 286 290
315 315 314 314 313 308 300 299 298 291 289 291 292 294 294 293 294 294 293 296 294 295 295 295 294 294 294 295 293 294 291 288 286 283 285 279 287 292 294 290 291 291 291 293
314 314 314 314 313 312 300 300 296 292 288 291 292 293 292 292 291 291 292 292 292 293 292 289 288 288 289 290 293 292 291 288 284 283 282 286 289 291 291 290 289 294 293 294
313 313 313 314 313 312 303 301 301 295 291 290 294 292 291 288 287 288 289 291 293 293 292 291 283 282 286 285 288 291 289 288 286 279 279 279 288 292 295 292 284 295 294 294
312 312 312 313 313 312 307 303 303 300 293 294 293 290 291 291 288 286 287 288 289 293 289 286 282 285 287 284 285 284 283 283 282 282 280 284 291 294 294 284 284 293 294 294
311 312 312 312 313 312 310 304 304 301 295 295 298 297 291 291 290 289 290 291 291 289 288 287 287 285 286 284 286 285 284 280 281 282 278 278 293 293 289 291 293 293 294 294
311 311 312 312 313 312 311 304 305 304 300 299 301 302 302 297 297 292 290 293 290 292 291 289 287 284 283 284 283 287 285 288 286 285 285 292 293 293 294 295 294 293 293 294
310 311 311 312 313 313 310 302 302 302 298 298 299 299 304 305 301 300 292 293 296 295 297 291 289 287 287 283 284 284 288 291 289 289 291 292 293 293 293 294 294 294 294 294
309 310 311 312 312 312 311 306 306 304 299 293 298 305 302 305 306 303 302 300 301 300 299 294 293 292 292 287 289 287 289 291 289 288 291 292 292 293 293 293 293 292 291 291
308 310 311 311 312 312 310 308 307 308 299 295 297 301 302 303 306 304 303 302 299 296 294 293 291 294 293 288 287 288 290 290 288 287 292 291 291 292 294 292 291 292 291 287
308 309 309 310 311 311 307 300 305 307 307 297 287 299 297 302 304 303 301 301 299 298 295 293 294 296 291 286 287 290 291 293 294 292 293 292 291 291 290 291 289 289 288 287
307 308 309 309 308 305 300 298 301 305 307 297 289 292 297 299 301 299 299 300 298 297 295 293 293 293 294 288 285 290 292 293 292 291 292 289 289 289 288 288 290 290 290 290
307 308 309 307 306 304 300 300 303 305 301 298 286 289 292 297 295 294 299 296 297 296 294 294 293 293 292 286 288 288 291 291 290 289 290 289 287 286 288 288 287 285 283 282
307 308 307 303 299 297 297 302 303 303 299 290 288 286 286 295 294 295 295 296 289 295 292 292 292 288 286 288 288 289 291 290 289 287 287 286 282 286 287 286 285 283 281 282
307 302 297 291 295 300 301 297 294 292 293 292 289 293 288 293 293 289 289 289 287 285 289 293 288 287 290 291 292 292 291 290 288 283 281 284 279 284 286 286 286 283 283 282
300 293 290 295 299 295 291 286 286 289 287 290 291 291 289 293 287 287 289 285 285 280 282 285 283 281 285 288 289 287 285 288 287 286 284 285 285 285 285 287 284 284 282 279
298 294 296 295 290 287 285 285 284 285 280 287 288 288 290 289 291 287 287 284 284 279 286 283 279 282 286 287 284 284 285 286 286 286 284 284 285 285 284 284 283 282 279 277
296 291 287 287 285 281 279 277 280 281 284 286 286 285 288 288 289 286 286 282 281 285 280 276 279 283 285 284 283 283 282 283 282 282 282 283 284 284 283 282 281 278 276 276
289 286 281 280 278 279 278 276 277 281 284 286 287 285 285 286 286 285 282 284 282 278 276 274 280 283 283 283 283 282 281 282 282 281 281 280 282 281 281 279 277 276 275 276
286 284 279 278 276 279 275 275 279 281 286 286 284 283 283 282 282 283 282 278 276 276 275 278 280 281 283 282 281 281 281 281 281 281 279 279 277 276 275 276 275 275 275 275
285 283 278 280 282 280 274 270 282 282 284 280 279 281 279 279 279 279 276 275 274 277 277 278 274 280 281 281 281 281 281 280 280 281 280 279 277 276 275 275 275 275 275 273
284 282 282 277 278 280 278 278 278 284 279 276 276 271 272 280 276 272 276 277 280 279 277 276 278 280 282 283 282 280 280 280 280 280 280 278 277 275 274 273 273 271 274 272

GFSNW_sfc_thetae_015.txt.gz
Theta_e
317 317 317 316 315 314 304 298 295 308 311 299 300 298 302 302 302 306 304 301 298 297 296 295 296 294 296 301 300 296 295 290 285 286 292 292 289 288 287 284 282 281 280 284
317 317 316 316 314 311 298 294 296 308 306 296 295 300 301 303 301 302 303 300 303 301 298 295 296 297 300 303 300 299 297 290 284 285 290 292 289 289 288 288 287 282 281 284
316 316 316 315 314 313 300 295 294 296 299 298 298 297 298 298 303 302 303 302 303 299 296 297 294 296 301 302 301 303 301 292 287 284 287 291 288 290 289 289 284 284 284 286
316 316 315 315 314 313 301 293 292 294 291 294 297 296 298 296 298 302 303 300 301 299 295 295 294 297 297 300 301 298 296 290 290 289 291 291 291 291 290 288 287 286 286 288
316 316 314 314 313 310 297 293 292 293 291 293 293 294 294 295 295 298 298 298 297 300 295 294 294 296 296 295 296 294 294 289 288 285 288 288 288 290 291 291 290 289 290 290
315 315 314 314 313 307 295 295 297 293 292 290 289 291 293 295 296 296 297 297 294 292 293 294 295 296 295 296 295 293 291 288 285 282 286 286 283 287 288 288 289 290 287 289
315 315 314 313 313 306 299 297 297 291 288 290 291 293 294 295 294 294 293 295 294 295 296 295 296 295 295 295 294 293 290 288 286 283 285 278 287 293 292 290 291 292 293 294
314 314 314 314 313 310 299 298 296 291 288 290 291 291 290 291 292 291 291 292 292 293 293 290 289 288 290 291 292 290 291 288 285 283 282 285 289 291 290 290 290 294 294 294
313 313 313 314 313 312 301 299 299 293 291 290 293 291 290 288 287 288 289 291 292 293 292 291 284 283 286 285 287 290 290 289 288 282 281 281 288 292 295 293 286 293 294 293
313 312 312 313 313 312 305 301 301 298 290 292 292 290 290 290 288 286 286 288 289 292 289 285 282 285 287 284 285 283 284 284 283 284 282 285 291 293 294 284 285 292 293 293
312 312 312 313 313 312 307 302 302 300 293 294 297 296 290 290 289 289 289 291 291 288 288 286 285 285 286 285 286 285 284 281 281 282 280 280 292 292 288 290 292 293 293 293
311 311 312 312 313 312 310 302 303 303 298 296 300 300 301 296 296 290 288 292 290 291 288 287 286 284 283 284 283 286 286 288 285 285 285 291 292 293 293 294 293 293 292 293
311 311 311 312 313 312 310 305 304 301 297 297 298 297 303 304 301 299 292 292 294 294 295 291 288 286 286 283 284 284 287 290 288 288 289 290 292 293 293 294 293 293 292 292
310 311 312 312 313 312 310 303 303 303 297 293 297 303 299 303 304 301 299 297 298 297 297 293 290 289 289 285 288 286 288 290 288 288 289 290 291 292 292 293 292 291 291 290
309 311 312 312 312 311 307 306 306 306 300 295 297 300 300 301 304 300 300 299 296 294 292 292 292 294 293 289 288 288 289 289 288 287 291 290 290 292 293 291 291 290 290 287
308 310 310 311 311 310 305 297 304 305 306 297 287 299 297 300 301 301 299 299 297 295 293 293 294 296 292 286 282 289 290 292 293 291 292 292 291 291 289 290 289 288 288 287
308 309 309 310 309 304 298 295 299 305 306 296 289 292 297 298 300 299 299 300 298 298 295 293 293 293 293 288 285 289 290 292 291 290 291 289 289 287 286 287 287 289 286 286
309 309 309 307 306 304 299 301 304 306 301 296 286 288 290 298 295 294 298 296 297 296 294 294 292 293 292 284 288 287 290 290 290 289 288 288 286 285 285 286 287 287 286 285
308 307 307 303 299 297 297 302 304 303 297 290 288 286 285 295 294 295 295 295 289 295 292 292 291 289 285 286 288 289 290 289 289 286 286 286 283 283 286 287 286 285 284 281
307 302 296 291 295 301 300 297 295 291 293 293 288 291 288 293 292 289 289 289 287 285 289 293 288 288 291 289 291 291 291 290 287 283 282 281 283 280 283 285 286 286 284 281
300 293 290 295 299 296 291 287 288 289 287 291 291 290 288 292 287 287 289 285 285 281 284 286 283 279 282 285 286 286 285 288 287 287 284 283 283 283 284 284 287 284 282 281
298 294 296 295 290 287 285 285 284 285 281 287 288 288 290 289 290 287 286 283 283 278 285 283 276 279 285 285 282 283 284 285 286 285 285 283 284 284 284 284 283 282 282 280
296 291 288 288 285 280 280 278 280 280 283 286 287 285 288 289 290 286 285 281 280 283 281 278 278 281 284 283 283 282 283 284 284 283 283 283 283 283 283 283 282 281 279 277
288 285 280 282 280 279 279 276 278 280 286 287 288 285 286 287 285 286 282 281 283 276 268 272 278 281 282 282 282 283 282 282 282 282 282 281 281 282 282 282 280 278 276 276
285 285 281 280 275 276 275 278 283 284 289 286 284 284 283 283 282 282 282 279 277 277 272 275 279 281 282 282 282 282 280 280 280 280 280 280 279 278 279 277 276 275 275 275
284 283 277 280 276 279 279 278 282 285 285 284 282 279 279 280 281 280 279 275 271 274 276 276 273 280 281 281 281 281 280 279 279 279 280 280 278 277 276 275 274 274 274 272
284 282 282 275 272 278 281 282 285 286 287 280 277 272 273 280 276 274 275 274 277 276 274 275 278 279 280 282 283 283 281 280 279 279 280 279 279 276 274 273 272 271 274 272

GFSNW_sfc_thetae_018.txt.gz
Theta_e
318 318 317 317 316 314 303 296 293 309 312 298 300 298 300 301 302 305 302 301 297 292 295 294 294 292 297 303 301 293 292 287 285 286 291 291 288 288 288 284 281 280 280 283
317 317 316 316 315 311 297 293 296 309 307 295 296 301 301 302 301 302 301 298 300 298 294 292 297 297 301 302 300 297 295 288 284 284 288 290 288 287 287 287 285 280 280 284
315 316 316 315 315 312 299 294 291 300 302 300 298 298 298 298 304 302 303 301 301 298 295 298 295 296 300 302 301 303 300 290 286 284 286 290 287 288 287 287 282 282 282 285
315 316 315 315 314 313 300 293 291 293 292 295 297 298 299 297 298 302 302 301 299 297 292 295 294 295 297 299 302 298 297 289 288 288 291 290 290 290 288 287 286 286 287 287
315 315 315 314 314 310 297 292 291 292 294 294 295 294 294 296 295 298 299 299 298 298 295 295 293 295 294 293 295 296 295 289 288 286 287 288 288 290 288 288 287 286 288 287
315 314 314 314 314 308 296 294 295 294 293 292 292 292 295 296 297 297 299 298 297 293 293 294 295 296 296 297 295 292 291 289 286 282 285 284 283 286 289 288 289 290 287 290
314 313 314 314 313 308 299 296 295 291 289 291 291 294 295 295 294 294 296 297 295 296 296 297 298 296 295 294 292 293 289 287 285 281 282 276 286 290 290 289 289 289 290 292
313 313 314 314 314 311 299 297 295 291 287 290 290 291 292 291 291 290 292 292 293 296 294 294 291 291 290 290 290 290 291 288 284 282 281 284 288 289 290 289 289 293 293 294
312 313 313 314 314 312 301 298 297 293 290 289 291 290 290 290 288 288 289 290 292 294 294 291 285 285 287 286 286 289 289 290 287 283 282 281 287 292 294 295 286 294 294 293
312 313 313 313 313 312 304 299 300 295 290 292 291 289 290 290 289 287 287 288 290 293 290 286 286 285 287 284 285 283 284 284 283 284 282 284 291 292 293 285 286 293 294 293
313 313 312 312 313 312 307 300 301 299 292 294 296 295 290 290 290 289 290 291 290 289 288 286 285 285 286 285 285 283 284 281 282 282 280 280 292 292 289 290 292 293 293 293
312 312 312 312 313 312 310 300 302 302 296 295 299 300 299 296 295 290 289 291 289 291 289 287 286 285 284 285 284 286 285 287 285 286 286 291 291 292 293 294 293 292 292 292
311 311 312 312 313 313 310 305 302 299 296 296 296 296 302 303 301 298 293 291 293 293 293 288 287 286 285 283 284 284 286 289 288 288 289 290 292 293 294 294 293 293 293 293
311 311 311 312 313 311 310 305 305 304 299 293 297 302 297 301 302 300 298 297 297 296 295 292 290 288 288 285 287 286 288 289 288 287 288 290 291 292 293 293 292 292 290 289
310 311 312 312 311 311 308 306 306 306 300 295 296 300 300 301 300 299 299 297 295 293 291 294 291 292 291 286 286 286 288 288 287 286 291 290 290 292 292 292 290 291 289 287
309 310 311 311 311 309 304 298 304 305 305 297 288 299 298 301 302 300 298 297 295 293 291 289 290 293 290 284 282 288 289 291 292 290 291 290 291 290 289 289 288 287 287 286
308 310 310 310 309 303 296 294 298 305 305 296 289 291 297 298 300 299 299 299 298 296 293 290 291 292 291 286 281 289 289 291 291 291 291 288 287 287 286 287 287 289 286 286
309 309 308 307 306 304 296 301 305 303 299 295 286 288 292 297 295 294 298 296 297 295 294 294 291 293 292 286 288 286 289 289 288 287 287 288 285 285 285 286 288 287 287 287
309 307 307 303 299 297 298 303 304 299 296 288 288 286 283 296 294 295 294 295 289 295 292 292 292 290 286 288 288 288 289 289 287 285 286 285 284 286 286 287 286 285 285 285
307 302 296 291 295 302 301 295 293 292 292 293 288 288 288 291 292 289 289 289 287 285 289 293 288 287 290 289 289 290 290 289 286 283 280 283 283 284 283 283 283 283 284 284
299 293 290 295 300 295 288 287 288 288 286 290 290 288 288 292 287 287 288 285 284 281 284 287 281 280 283 284 285 286 286 287 286 286 285 285 284 282 283 283 283 284 286 283
297 294 296 295 289 287 281 281 283 286 284 287 288 288 289 289 291 286 285 283 278 279 286 284 275 279 283 283 281 281 285 286 286 285 285 284 284 284 283 283 282 282 282 281
296 291 288 288 285 280 281 280 281 279 282 286 287 286 288 289 289 284 282 281 280 284 281 280 278 279 282 282 282 282 283 285 285 284 283 283 284 283 282 282 282 280 280 280
287 285 281 283 279 281 281 278 278 280 286 287 288 285 287 287 285 285 281 282 283 278 275 273 276 280 282 281 282 282 282 283 283 283 282 280 280 281 281 282 281 280 279 278
285 285 281 280 276 278 275 277 283 285 289 287 285 284 285 283 282 281 277 279 276 278 272 276 278 281 282 282 281 282 281 280 280 279 280 280 279 279 279 280 279 278 277 276
285 282 278 279 277 278 279 281 283 285 287 285 285 281 279 278 280 279 273 271 270 274 275 275 275 280 281 281 281 281 280 280 279 279 279 280 279 278 277 276 275 274 275 272
283 282 281 275 270 275 281 283 285 287 286 280 279 277 278 280 278 277 274 273 275 275 274 277 279 279 280 281 282 282 282 281 280 279 279 279 279 277 275 274 272 270 273 271

GFSNW_sfc_thetae_021.txt.gz
Theta_e
317 317 317 317 316 312 305 295 291 310 311 297 295 291 294 298 299 300 295 297 294 289 289 291 291 290 295 299 300 292 293 289 285 288 292 296 292 290 290 286 283 282 283 286
316 316 317 317 316 311 297 292 299 310 308 292 292 294 297 301 299 300 298 298 298 295 292 288 293 294 299 301 299 293 293 288 284 287 293 292 290 288 289 288 286 282 283 286
315 315 316 316 315 312 299 292 292 300 302 301 297 297 297 296 304 302 302 299 297 295 295 296 293 295 299 301 302 303 299 289 287 284 287 290 288 288 288 291 284 284 284 288
315 314 315 315 314 313 299 292 290 295 290 295 296 299 299 297 298 302 303 298 295 295 292 294 293 295 297 300 303 299 296 289 288 288 290 290 290 289 288 288 290 288 289 287
315 314 314 314 314 312 297 291 289 291 293 294 295 295 296 297 295 297 298 297 297 296 293 295 293 294 296 296 297 296 294 289 288 285 289 290 289 290 289 289 288 288 289 289
315 314 313 314 313 308 295 294 293 292 294 292 293 294 297 298 297 298 299 298 296 292 292 296 296 298 297 298 294 292 293 288 287 284 286 286 285 288 288 289 289 291 288 293
314 314 313 314 314 308 300 295 294 290 290 291 292 294 297 296 296 297 297 296 295 294 295 297 298 297 295 298 292 294 294 290 288 283 283 278 288 290 292 291 290 291 290 291
314 313 313 314 314 312 302 297 295 290 289 292 292 293 291 291 292 292 294 294 293 296 296 296 293 292 293 291 290 291 291 290 285 283 281 285 288 289 289 289 289 293 292 292
312 312 312 314 314 313 302 298 297 292 291 291 293 291 291 288 287 289 290 293 295 296 295 292 287 286 289 286 287 290 290 291 289 283 282 280 288 292 294 294 286 294 294 293
312 312 312 313 313 312 305 299 300 295 290 292 290 288 291 291 287 287 289 290 292 294 292 288 286 285 289 285 284 285 286 284 283 285 283 285 292 293 294 286 288 294 295 294
312 312 312 312 313 312 307 301 300 298 292 293 294 293 290 291 290 288 288 291 291 291 291 288 287 286 286 286 286 285 285 283 283 283 282 281 292 292 290 291 293 294 293 294
312 312 312 312 313 312 310 302 302 300 296 295 298 298 297 295 295 290 289 290 289 290 288 287 286 284 284 285 284 287 285 288 286 286 286 291 291 292 293 294 293 293 293 293
311 312 312 312 313 313 310 305 300 298 295 298 296 296 300 302 300 299 293 292 292 292 292 288 287 286 286 284 284 284 286 289 287 287 289 290 291 293 294 294 293 294 293 293
312 312 312 312 312 313 310 305 306 301 296 294 296 301 297 301 301 299 298 296 296 295 294 290 288 287 287 285 286 286 288 289 287 286 288 290 292 292 293 292 292 292 291 291
311 311 311 311 312 311 308 307 306 306 301 295 296 300 300 300 300 299 298 297 295 292 292 290 289 289 288 286 286 285 288 288 287 287 291 291 291 292 293 292 291 291 290 288
310 310 310 311 311 309 305 300 304 305 305 297 289 298 298 300 301 299 298 296 294 292 290 288 290 295 290 283 283 288 289 290 291 290 291 289 290 290 291 290 289 289 289 288
309 309 310 310 309 304 299 295 299 305 305 296 289 290 297 298 300 299 299 299 297 295 292 289 289 290 291 287 281 288 289 290 289 290 291 289 288 289 288 288 288 289 286 287
309 310 310 308 306 304 299 303 304 304 298 295 286 288 292 298 295 294 298 296 297 295 294 294 292 292 292 286 289 287 288 288 288 287 287 289 286 285 285 286 289 288 287 288
309 308 307 303 299 297 299 304 303 301 298 287 287 286 285 296 294 295 294 295 290 294 292 292 293 289 283 288 287 287 287 289 287 285 285 285 285 285 286 287 287 284 283 285
307 302 297 292 296 303 301 295 293 291 292 292 287 288 288 292 292 289 290 290 287 285 289 293 288 288 290 290 291 291 290 288 287 286 285 285 285 285 286 284 283 283 283 285
299 293 290 295 300 295 289 287 283 287 282 290 290 288 288 292 287 287 288 285 284 282 285 287 284 282 284 285 286 287 287 289 288 288 287 287 287 283 282 282 283 283 283 285
297 295 297 295 289 285 281 278 285 285 280 288 288 288 288 288 286 286 285 279 275 272 286 284 279 280 283 283 283 284 286 287 286 285 284 284 284 283 283 283 282 283 283 283
296 292 288 287 285 281 277 279 280 281 284 287 287 286 288 288 284 279 278 273 273 282 281 281 279 279 282 281 281 282 285 286 284 283 283 283 283 283 283 283 282 282 281 281
288 285 282 284 281 281 279 278 279 281 285 288 288 286 286 287 280 284 280 279 282 276 273 272 276 279 281 281 281 281 282 283 283 282 282 282 282 281 281 282 281 280 280 280
285 285 282 281 278 278 274 276 283 285 290 287 285 281 284 282 282 283 281 278 276 278 272 275 277 280 281 280 281 281 281 281 280 280 280 280 280 279 279 280 279 279 279 278
285 282 278 279 277 277 280 279 284 286 288 285 283 277 275 277 278 279 271 273 272 274 276 275 276 281 282 281 282 281 280 280 279 279 279 280 279 279 278 276 276 276 276 273
284 281 280 276 271 276 281 281 285 287 286 280 277 276 276 277 273 276 273 272 276 276 276 278 279 281 281 281 281 281 280 280 279 279 279 278 279 277 276 275 272 270 273 271

GFSNW_sfc_thetae_024.txt.gz
Theta_e
317 317 317 317 318 313 307 303 295 310 310 293 294 288 293 296 296 299 295 295 292 291 292 291 291 291 295 300 300 294 299 296 291 290 295 301 301 298 299 293 289 292 291 294
316 317 316 317 317 311 301 299 301 310 306 291 290 293 294 296 293 296 294 293 295 295 292 289 293 295 299 301 300 298 300 294 289 289 294 294 295 295 301 298 295 292 291 293
316 316 315 316 316 313 304 300 295 301 301 301 296 292 292 291 299 297 296 298 298 294 291 295 293 295 299 302 302 304 300 296 294 289 293 297 293 297 296 298 294 293 293 296
316 315 315 315 315 312 303 300 297 301 292 294 296 296 298 292 294 299 300 297 296 293 289 292 294 298 299 301 302 302 301 293 295 296 297 297 296 296 298 293 296 293 297 295
315 315 314 314 314 312 302 297 296 297 298 300 297 296 296 297 297 298 298 296 298 298 293 293 294 298 298 298 301 300 301 294 295 292 294 296 294 296 298 297 297 297 298 297
315 314 313 314 314 310 301 299 300 298 298 296 296 296 297 299 298 299 299 300 298 298 301 303 305 305 304 303 300 298 298 296 294 291 292 293 290 295 295 297 298 297 294 300
313 314 313 313 313 310 304 300 302 297 293 295 295 295 299 298 298 297 297 302 300 299 302 304 305 303 302 304 301 302 298 297 295 290 290 284 296 296 300 297 299 299 299 299
311 314 313 313 314 311 305 301 302 299 294 296 294 294 295 294 294 293 296 294 296 300 300 299 294 293 293 293 294 294 298 296 290 290 288 293 292 293 294 295 296 299 299 298
312 313 313 313 314 313 305 302 305 300 294 295 296 293 295 293 291 292 292 296 297 300 300 298 289 287 290 287 290 293 293 293 294 289 286 286 293 296 299 299 292 299 299 299
313 312 312 312 313 312 306 303 306 302 295 297 295 295 295 296 295 290 290 293 296 298 295 292 290 288 294 287 287 288 288 288 289 289 288 292 295 297 299 290 293 299 300 300
311 312 311 312 313 312 308 304 306 304 298 299 300 298 295 295 296 294 292 294 293 294 292 292 291 291 293 291 292 291 290 289 289 290 287 287 298 296 294 297 300 300 300 300
308 312 312 312 313 312 310 303 306 306 302 300 303 303 303 298 298 295 292 296 294 298 293 294 293 290 290 292 287 292 290 296 293 294 293 295 297 297 299 302 300 299 299 299
307 312 312 313 313 313 310 305 304 304 302 302 301 300 305 305 303 304 298 298 297 297 300 296 294 293 294 291 292 291 292 294 293 292 294 295 296 297 299 301 299 299 299 299
307 313 313 312 312 313 311 305 305 306 303 298 299 305 302 305 304 302 302 300 301 300 301 299 297 294 293 293 293 294 295 295 293 291 293 295 296 298 298 297 298 297 298 298
309 312 312 312 312 312 309 307 307 307 304 297 298 302 303 304 303 301 302 301 301 301 300 300 297 295 295 293 294 293 295 295 294 295 298 299 298 298 298 297 297 297 296 294
310 311 311 311 311 310 306 301 305 306 305 300 294 301 300 303 304 303 302 301 300 299 299 296 297 297 296 295 294 296 297 297 297 298 300 297 300 299 299 297 297 296 297 296
310 310 310 310 309 306 300 299 302 306 305 296 290 294 298 300 302 301 302 302 301 301 297 296 296 297 297 294 294 296 296 297 296 297 297 294 297 295 296 296 295 294 293 293
310 309 310 308 307 305 301 305 305 305 299 296 286 289 294 299 296 296 300 299 301 298 297 297 296 296 296 291 296 294 296 295 295 293 293 298 295 293 292 293 292 291 291 291
309 309 307 304 301 298 300 304 304 304 300 289 290 288 287 297 295 296 295 297 291 296 294 295 296 294 289 296 296 294 294 295 293 290 291 292 290 287 288 289 290 290 289 289
307 304 298 293 297 303 302 300 299 293 294 294 291 293 290 293 293 290 291 291 289 286 291 294 290 291 296 295 295 297 295 293 292 288 286 287 286 287 288 290 291 290 289 288
300 293 292 297 301 297 293 289 291 290 287 292 292 292 290 294 289 288 290 287 287 285 288 289 287 286 291 293 293 294 293 293 294 295 294 294 292 290 289 288 288 288 288 288
297 296 297 295 291 289 287 286 286 286 285 290 289 290 292 291 292 289 287 285 284 282 289 286 283 288 287 290 290 291 292 292 291 292 293 292 292 290 289 288 288 288 289 289
298 293 290 290 286 283 282 280 282 285 288 287 288 287 290 290 291 285 286 283 283 287 284 283 286 285 286 287 289 289 291 289 288 287 288 288 287 288 289 288 288 289 288 288
288 285 284 285 283 285 284 285 285 288 288 289 290 287 288 288 287 287 283 283 284 280 277 279 284 285 285 286 287 289 288 287 286 286 287 287 287 287 287 288 288 287 287 286
285 286 283 284 281 280 280 283 286 288 291 289 288 287 288 284 284 286 283 280 278 280 279 283 284 285 285 285 287 288 286 285 285 286 286 286 285 285 285 286 286 286 285 285
285 284 281 281 281 279 282 284 286 288 291 289 288 283 282 280 283 280 279 278 277 282 284 284 285 285 285 285 286 286 285 285 285 284 284 284 284 284 283 282 283 283 283 281
284 282 282 280 281 281 283 285 288 290 289 285 285 283 282 282 279 279 280 280 283 283 282 284 286 285 284 284 284 284 284 284 284 283 283 283 282 282 281 281 278 277 278 277

GFSNW_sfc_thetae_027.txt.gz
Theta_e
312 316 317 317 317 317 309 301 293 309 309 294 294 289 291 295 294 297 295 294 292 290 292 290 291 290 294 299 299 293 297 294 288 290 296 303 303 299 300 294 291 294 294 293
310 315 316 317 317 313 303 297 300 308 306 289 289 293 293 294 294 295 294 291 295 296 293 289 293 294 299 300 298 296 299 294 288 288 294 298 298 300 301 301 298 294 291 294
309 312 315 316 316 312 306 299 294 300 301 299 296 292 291 291 297 295 296 294 297 295 292 295 292 294 298 301 299 303 303 296 294 290 294 297 295 297 300 299 294 295 296 297
309 310 315 315 315 313 305 298 297 300 291 293 295 296 294 293 289 296 297 294 295 294 290 292 293 296 297 300 301 301 300 294 296 297 299 299 299 298 297 297 298 295 298 297
308 309 314 314 315 313 303 295 295 302 299 297 295 294 293 293 293 294 293 293 295 297 292 293 293 297 297 297 299 299 301 295 296 294 297 298 296 299 300 299 298 299 300 299
308 309 314 313 314 310 302 301 301 300 299 299 297 297 295 297 299 299 300 296 297 296 295 298 302 303 303 303 299 297 297 296 294 290 295 295 291 296 298 299 302 300 296 301
306 308 312 313 314 312 305 301 302 296 292 295 296 299 298 298 299 297 299 301 299 302 307 305 304 304 303 303 303 303 297 296 295 291 293 285 296 300 301 299 301 303 303 304
306 307 308 313 314 313 306 302 301 298 294 296 298 296 296 296 296 295 299 299 300 307 305 298 295 294 295 295 299 301 302 298 293 289 289 295 297 296 297 297 297 303 302 303
305 306 309 313 313 313 307 303 305 300 296 295 299 294 297 293 293 295 296 299 302 302 302 297 288 287 290 288 290 294 299 301 295 293 288 286 295 298 301 302 293 304 304 302
304 306 312 313 313 313 308 304 305 302 297 301 299 296 295 299 296 292 294 297 300 302 299 294 292 290 294 288 288 289 289 291 291 291 289 294 298 299 302 291 295 301 303 303
304 305 307 312 312 313 308 304 305 304 301 302 301 300 298 297 299 294 294 296 297 297 295 295 295 294 295 294 295 294 289 287 287 290 288 287 300 298 295 299 302 301 303 303
304 305 306 312 312 312 310 303 306 309 305 303 305 305 304 301 299 297 294 295 296 299 295 295 296 293 295 295 289 297 293 298 294 296 295 298 301 300 302 304 302 302 302 302
304 306 307 312 313 313 310 304 305 304 303 304 302 301 306 307 305 305 297 297 300 298 300 297 297 294 297 293 294 295 296 297 296 295 296 298 299 300 302 304 303 303 302 301
304 306 308 312 313 313 311 305 305 307 306 299 300 306 304 308 306 304 304 301 303 302 301 299 297 296 296 296 296 296 296 296 296 294 295 297 298 301 301 301 301 300 301 301
304 306 308 312 312 312 311 308 306 308 306 299 299 304 305 306 305 303 303 304 303 302 300 301 299 297 296 296 296 295 297 296 294 295 300 300 299 301 301 299 299 299 298 298
304 306 310 311 311 310 307 301 305 307 308 302 294 302 301 304 306 304 303 303 303 304 303 300 300 299 299 297 296 300 300 300 300 299 302 301 301 300 301 299 299 299 299 298
306 307 310 310 309 308 301 299 303 307 306 299 293 294 299 302 304 304 304 305 303 304 301 300 300 299 300 297 296 300 299 300 299 301 300 298 299 298 301 299 299 299 298 298
306 310 310 309 307 305 302 305 306 306 300 297 287 291 295 301 298 297 302 301 303 300 300 299 299 298 298 294 299 299 300 299 298 298 298 301 300 299 297 297 296 294 294 294
309 309 307 305 302 299 301 304 305 304 300 290 291 288 289 299 295 297 297 300 296 299 297 298 298 297 291 297 299 297 298 297 296 295 296 296 294 292 293 294 295 294 292 293
307 305 299 294 298 304 303 302 300 297 294 295 293 297 290 295 293 291 293 292 291 288 292 296 293 293 300 299 299 300 299 298 294 289 287 287 287 288 290 292 294 294 292 290
300 295 292 297 302 298 296 290 294 292 289 294 294 296 291 295 290 290 291 288 289 287 290 291 290 289 294 297 297 300 299 296 297 299 296 295 293 292 292 292 291 290 290 290
298 297 298 296 293 290 288 289 288 286 287 292 291 293 295 293 294 290 289 287 288 283 292 288 285 291 290 293 294 296 296 296 295 297 296 296 295 294 291 290 289 290 290 289
299 294 289 291 288 285 284 281 284 285 289 289 290 288 292 292 293 288 289 285 286 290 285 284 288 288 290 292 293 293 292 292 293 292 294 292 290 291 290 289 290 290 290 290
288 286 284 286 283 287 287 288 288 292 290 289 291 289 289 291 289 289 285 285 286 282 280 282 288 288 289 291 291 290 288 288 288 288 289 288 288 288 290 290 290 290 288 287
285 287 285 285 284 283 284 288 288 290 293 292 290 290 289 286 285 287 283 281 280 282 282 286 286 288 288 289 290 287 286 287 287 289 288 288 288 288 287 288 288 288 287 286
285 285 283 283 283 281 283 285 286 291 293 292 293 286 285 282 285 281 281 281 280 285 287 288 288 287 288 290 289 286 286 286 287 287 287 286 286 286 285 285 285 285 285 283
285 283 286 285 286 284 285 288 289 294 292 289 289 285 284 285 281 282 285 283 286 287 286 289 288 287 288 288 285 284 285 285 285 285 285 284 284 284 283 281 279 280 280 279

GFSNW_sfc_thetae_030.txt.gz
Theta_e
309 308 310 314 317 316 311 301 293 308 310 294 293 288 291 294 293 296 293 293 292 290 290 288 288 288 292 298 296 291 294 292 286 288 296 301 299 297 296 288 287 289 287 286
308 308 309 310 316 314 305 297 299 308 306 288 289 292 292 293 292 292 292 291 293 294 291 287 290 292 297 298 297 293 296 291 285 287 293 298 296 298 299 296 294 289 285 286
307 308 309 309 315 313 306 299 293 299 300 298 293 290 290 291 295 293 294 293 295 293 291 294 290 291 297 299 298 303 301 295 289 287 291 295 294 296 297 295 289 289 288 288
305 307 307 309 314 312 305 298 295 298 290 292 294 295 294 291 288 294 295 291 292 292 289 291 290 293 296 299 300 300 298 292 294 295 296 297 296 296 295 294 295 289 292 292
305 305 306 307 314 311 303 294 294 299 297 296 294 293 292 292 293 292 291 291 293 295 291 291 290 292 294 292 295 295 298 292 294 292 296 297 294 296 295 295 297 296 295 294
305 305 307 307 311 311 303 301 300 298 297 296 294 294 294 295 297 296 296 295 295 293 296 296 297 298 299 298 296 294 294 293 291 286 292 292 288 294 296 296 298 296 293 297
305 304 306 308 313 312 306 302 301 296 290 293 294 296 299 297 298 296 297 298 296 300 303 300 301 300 299 300 297 298 293 292 293 287 288 279 291 295 297 297 299 301 301 301
304 304 306 307 308 313 306 302 301 298 292 296 295 295 297 297 297 296 299 299 302 305 302 292 291 293 294 294 294 296 297 294 289 286 285 290 292 293 293 293 294 299 299 301
304 304 305 306 311 312 308 304 306 300 295 293 298 296 297 295 294 295 295 299 301 301 300 295 285 285 290 288 291 296 296 297 293 287 284 281 290 295 298 297 288 297 299 298
303 304 305 306 307 313 309 305 307 302 296 299 298 295 295 299 296 292 294 297 297 300 297 292 288 288 293 287 288 289 291 292 289 289 287 289 294 295 297 287 290 297 298 299
303 304 305 306 307 312 310 305 306 303 298 300 301 299 297 297 299 295 295 296 297 295 294 293 293 291 292 292 293 291 289 287 286 290 286 283 296 295 291 295 296 297 298 299
303 304 305 306 308 312 311 303 305 307 301 302 304 305 305 301 300 298 295 295 296 299 294 293 293 292 292 291 289 297 290 294 290 292 291 296 297 295 298 300 297 298 297 298
303 303 305 306 308 313 311 304 305 304 301 302 301 300 305 306 304 306 297 297 300 299 298 297 295 291 293 288 289 292 295 299 292 292 294 295 297 296 297 299 299 299 298 298
302 303 304 306 307 312 310 304 305 305 303 297 299 306 303 307 305 304 304 302 303 301 301 298 296 294 294 293 292 292 293 294 292 291 293 294 295 296 298 297 297 297 297 297
302 302 304 305 307 311 310 308 306 308 304 297 298 303 304 305 304 302 302 301 300 299 298 297 295 297 295 294 294 292 294 293 292 291 296 295 295 298 298 296 296 296 296 295
301 302 304 306 308 311 307 300 306 308 306 301 292 302 301 302 303 302 301 302 301 301 300 298 298 298 295 290 290 298 297 297 298 296 297 297 297 297 298 296 296 296 295 295
301 302 304 306 310 308 302 299 303 308 307 298 291 293 299 301 302 301 301 303 300 300 298 297 296 295 296 294 291 297 296 296 297 298 298 294 295 294 296 296 296 297 294 293
302 303 306 309 308 306 302 304 307 307 300 298 287 290 294 300 297 295 299 298 300 298 297 297 296 294 295 289 297 295 296 296 295 294 296 297 296 295 293 293 293 291 290 290
303 305 308 306 303 299 300 304 306 304 300 290 289 287 287 298 295 297 296 296 293 297 296 296 295 294 288 294 296 294 294 294 292 293 293 293 291 290 290 290 290 289 289 288
306 306 299 293 298 304 303 300 297 294 294 294 291 296 290 294 293 291 292 292 290 285 291 293 291 291 297 297 296 296 295 293 292 288 287 288 288 288 289 290 290 290 288 288
300 295 292 298 304 299 295 290 291 291 287 293 293 294 290 295 290 289 290 287 286 285 287 288 287 287 291 292 294 295 293 293 292 293 291 291 290 290 290 288 288 288 287 286
299 297 298 296 293 290 287 287 287 287 285 291 290 292 293 289 293 288 288 286 286 283 289 286 284 286 288 291 292 293 293 293 293 293 292 291 292 291 288 287 286 286 287 287
298 294 289 290 286 285 282 281 283 284 288 288 289 287 289 288 289 285 284 282 282 286 284 283 284 284 288 288 290 288 291 293 293 292 292 289 288 288 287 286 287 287 286 286
288 285 284 286 284 283 284 284 284 287 288 289 289 287 287 287 284 284 276 282 282 279 277 276 282 284 287 290 288 287 287 289 288 287 287 287 287 286 286 286 287 286 285 284
285 286 284 284 284 284 285 286 287 289 292 289 287 287 285 283 280 283 281 280 276 279 278 281 283 284 286 286 285 286 287 287 287 286 286 285 285 285 284 284 285 284 283 282
285 285 283 283 283 282 284 285 286 290 292 288 286 284 280 281 280 278 274 274 274 279 280 280 280 284 286 286 285 285 286 286 286 286 285 284 284 283 282 281 281 281 281 280
284 283 285 285 285 284 285 287 288 294 290 285 285 279 277 284 281 275 278 278 280 279 279 280 282 284 286 285 284 284 284 284 284 283 282 281 281 280 278 276 276 277 277 276

GFSNW_sfc_thetae_033.txt.gz
Theta_e
306 307 308 309 310 315 312 302 294 307 307 293 292 288 290 294 293 296 293 292 290 289 290 289 287 286 289 295 295 289 293 290 284 288 294 298 295 294 296 287 286 286 283 284
305 307 306 309 309 311 305 299 299 307 305 288 288 292 291 293 292 293 291 289 292 293 291 288 289 289 294 297 295 291 294 288 283 287 292 296 292 296 297 296 293 288 282 284
305 306 306 307 307 309 307 299 292 299 300 298 292 290 290 290 296 294 293 292 293 291 290 292 288 289 294 297 296 301 298 293 288 285 288 295 292 295 295 294 289 288 285 288
305 306 305 306 308 310 305 299 295 297 290 292 293 294 292 290 290 294 294 289 291 291 289 289 288 291 292 296 300 298 296 288 291 291 293 293 296 295 294 293 293 288 287 290
304 306 305 306 307 312 304 295 295 297 294 294 293 293 292 291 292 292 289 288 291 293 290 290 288 291 291 291 296 295 296 290 293 292 296 296 294 296 295 293 296 295 293 292
304 305 305 305 306 307 303 301 301 299 297 294 292 292 292 292 295 297 295 293 292 291 293 296 296 295 295 295 293 293 294 292 291 287 293 294 289 293 294 294 294 296 291 296
304 304 305 305 306 308 306 302 301 295 291 294 293 295 295 293 295 295 297 296 294 299 300 298 299 294 296 297 295 296 292 292 293 288 288 280 290 294 298 296 297 297 298 300
303 304 305 305 306 307 304 302 302 298 292 295 295 295 294 296 297 296 297 298 301 300 296 289 289 291 291 293 295 292 294 292 288 285 283 287 290 292 292 293 293 297 298 299
303 303 304 304 306 307 308 303 306 301 295 293 298 294 295 293 293 295 295 299 299 298 295 289 282 284 285 286 290 296 295 293 292 287 281 280 290 293 295 295 287 295 295 297
302 303 304 304 305 307 306 304 307 302 295 298 299 294 294 298 296 292 294 296 296 300 291 287 285 287 290 286 287 289 291 291 288 288 287 287 295 294 296 286 288 295 295 297
301 303 304 304 305 307 308 304 307 304 298 299 301 299 296 297 297 294 295 295 296 296 291 291 289 289 291 289 290 290 288 288 288 288 285 284 295 292 289 293 295 295 294 295
301 303 303 304 305 307 310 302 306 308 301 301 305 303 303 302 301 299 296 295 295 297 295 294 291 291 290 289 287 292 288 292 289 292 291 295 294 294 296 298 296 294 294 295
301 303 303 304 305 307 311 304 305 304 300 300 301 298 304 305 303 305 297 297 300 298 297 295 293 289 291 288 289 291 293 296 292 293 294 294 295 295 297 298 297 296 297 296
302 302 303 303 305 306 308 304 306 305 302 295 297 305 301 305 304 304 305 302 303 302 299 296 294 292 293 290 290 291 293 295 292 291 291 292 294 294 296 296 296 295 295 295
301 302 302 303 304 306 309 307 306 308 303 296 297 301 302 303 302 302 303 302 300 300 298 297 294 297 294 293 292 291 293 292 291 290 294 294 294 296 296 296 295 295 294 293
300 301 301 302 304 306 307 300 306 307 307 300 290 301 300 300 300 300 300 301 299 300 299 298 298 298 296 291 290 296 296 295 297 295 296 296 296 296 296 295 295 295 295 294
301 301 301 302 304 306 302 299 302 308 308 298 290 293 299 301 302 300 300 301 299 300 297 295 295 295 296 293 290 297 295 295 295 296 297 294 294 293 295 295 294 294 292 292
300 301 302 303 306 306 302 304 307 308 301 298 287 290 294 299 296 293 297 296 297 296 296 295 294 294 294 288 295 293 294 294 293 294 295 295 294 294 293 293 292 290 289 289
301 302 303 304 303 299 300 306 305 304 301 290 289 287 287 298 294 296 294 294 292 294 294 294 294 292 287 293 295 293 293 293 291 291 292 293 291 290 290 290 289 288 287 287
303 302 299 293 299 305 304 300 296 294 294 294 291 295 290 294 293 290 289 291 289 285 291 292 290 290 296 295 296 296 294 292 292 289 287 288 288 289 288 288 289 289 288 287
300 296 292 299 304 299 295 290 290 291 288 292 293 294 290 295 290 289 290 286 287 285 286 289 286 287 290 291 292 292 292 292 292 292 291 291 291 290 289 288 287 287 287 286
299 297 298 297 293 289 287 286 286 287 286 290 290 292 292 291 293 288 286 284 285 282 287 285 283 287 288 289 288 289 290 291 291 291 291 291 291 289 288 287 286 285 285 284
299 294 290 290 286 284 283 281 282 283 288 287 287 287 288 288 286 282 282 281 280 284 283 282 283 284 288 287 287 288 290 291 292 291 291 290 288 288 287 285 285 285 284 283
288 285 284 285 283 284 285 281 281 284 287 288 288 286 284 284 283 282 274 284 281 275 276 276 281 283 286 289 286 287 287 289 289 288 288 287 287 285 285 285 285 285 283 282
285 285 283 284 283 283 284 285 287 287 291 288 286 284 283 278 278 280 281 280 276 277 277 280 281 283 286 285 284 286 286 287 287 287 286 286 286 285 283 283 283 283 282 282
285 282 282 284 283 281 284 285 286 287 290 286 284 282 278 278 276 276 270 272 272 278 280 277 279 283 283 283 284 284 286 286 286 286 285 285 284 283 281 281 281 280 280 278
283 280 284 284 281 281 284 286 287 292 285 282 283 274 275 280 274 271 274 274 278 278 276 277 281 283 283 283 285 285 285 284 284 283 282 281 280 280 280 277 275 276 276 275

GFSNW_sfc_thetae_036.txt.gz
Theta_e
305 305 306 306 308 309 309 303 289 306 308 292 291 287 291 294 293 296 293 292 290 289 290 288 288 286 288 293 292 287 290 287 283 285 292 295 294 291 290 284 283 285 284 285
305 304 306 307 307 308 301 297 298 306 305 285 287 292 291 293 292 292 292 290 292 292 289 286 288 289 294 294 292 289 292 288 281 283 289 294 290 293 291 289 290 286 282 284
305 305 305 306 307 308 303 299 290 297 300 298 291 289 289 289 295 293 294 292 293 290 289 292 289 288 292 295 295 299 297 290 286 282 287 290 287 289 289 286 287 287 285 286
303 305 306 306 306 307 305 299 293 295 288 290 293 293 292 290 289 294 295 290 290 289 287 289 288 289 291 295 298 297 294 287 290 288 288 290 290 292 294 293 294 288 287 290
302 304 305 306 305 306 303 296 295 297 294 295 293 293 291 291 293 293 290 289 290 291 288 290 287 289 290 290 295 294 295 288 289 286 292 294 293 296 296 294 296 295 294 291
301 303 305 306 305 305 302 301 300 298 294 293 291 291 291 292 294 296 296 293 290 289 291 295 294 294 294 293 294 292 293 290 288 286 292 293 288 292 294 292 294 296 292 293
301 302 304 305 304 305 301 301 300 296 292 293 292 294 294 293 294 292 296 297 292 296 301 298 297 296 295 294 294 296 291 290 291 287 288 281 291 294 297 296 296 295 296 295
300 301 303 305 305 305 302 304 300 296 292 295 294 295 294 295 296 295 296 298 301 302 296 289 287 290 291 291 294 293 294 291 289 285 283 286 289 291 292 293 294 295 296 296
300 301 302 304 304 306 304 304 305 301 295 293 298 294 295 293 292 293 296 300 299 300 293 287 281 283 283 285 288 292 292 292 290 287 280 279 288 292 293 293 286 294 294 295
300 300 302 304 304 305 304 304 306 301 295 298 299 294 294 298 294 291 294 296 296 299 292 284 281 286 287 284 285 288 287 288 284 285 286 287 293 294 294 285 287 293 293 295
299 300 302 304 304 305 304 305 306 303 298 299 301 300 297 297 296 291 294 295 294 294 289 286 288 286 288 286 287 290 289 284 283 285 285 281 294 292 288 292 293 293 293 293
299 300 303 303 303 304 306 302 307 308 301 300 305 305 304 302 302 297 297 294 293 295 291 290 291 290 287 286 283 291 288 290 287 289 288 294 293 293 295 296 295 293 292 294
299 300 303 303 303 305 305 304 305 304 300 299 299 299 304 305 304 306 297 298 299 299 298 297 294 290 290 287 286 286 290 293 290 291 293 294 293 294 296 296 295 295 295 295
299 302 302 302 303 304 305 304 306 304 301 294 297 304 301 305 304 304 304 302 304 302 300 297 295 292 292 290 289 290 293 294 292 291 292 291 293 294 296 295 296 294 294 294
300 301 301 302 302 303 304 306 306 308 303 296 296 301 302 302 302 302 304 303 301 300 298 295 293 296 293 292 290 289 293 294 293 292 296 295 294 295 295 295 294 293 292 291
300 301 301 301 302 303 302 300 305 307 307 298 290 301 300 299 300 300 300 301 300 300 299 297 296 297 294 290 289 297 295 296 299 297 295 294 295 295 295 294 294 294 293 292
301 301 301 301 302 301 300 299 302 308 307 298 290 292 299 301 300 299 300 300 299 299 298 297 296 295 296 292 288 296 295 296 295 296 296 294 294 293 294 295 294 294 292 292
301 301 301 301 303 303 301 305 308 308 302 299 286 290 294 299 296 294 297 297 298 296 296 295 293 293 293 288 294 293 293 293 294 293 294 295 294 293 292 293 293 290 289 289
301 302 302 301 300 299 300 305 305 305 301 291 289 287 287 298 294 295 293 295 292 295 293 294 293 291 287 293 294 292 293 293 291 291 292 293 291 290 290 290 290 289 287 287
303 301 297 294 299 305 304 301 297 294 295 294 291 295 290 294 293 290 291 291 289 286 291 293 290 289 294 295 294 294 293 292 291 289 287 288 288 288 288 288 289 289 288 287
299 295 292 299 305 300 296 290 290 291 288 292 294 294 291 295 289 287 288 286 287 285 285 289 286 286 289 289 291 292 293 292 290 292 291 292 291 289 288 287 287 286 286 287
299 297 299 297 293 289 288 287 287 287 286 290 291 292 293 292 293 290 287 285 286 283 286 285 283 287 286 288 287 288 290 291 291 290 291 291 290 290 288 287 287 286 285 285
299 294 291 290 287 284 285 282 283 283 286 287 288 287 290 289 289 283 282 279 282 284 283 282 283 283 286 286 286 287 288 289 289 289 289 289 288 289 287 286 286 285 284 282
287 285 284 285 283 285 284 283 282 284 287 288 289 287 287 287 285 283 277 282 282 275 273 278 280 283 285 286 286 287 287 289 289 288 288 287 287 286 287 287 286 284 281 279
285 285 284 284 284 284 284 283 287 287 291 288 286 285 283 278 278 280 282 279 277 277 278 280 280 283 284 284 284 285 286 287 287 288 286 285 285 284 283 283 283 282 281 280
284 283 282 284 283 282 284 285 286 287 289 283 283 280 275 275 276 275 272 274 273 278 279 276 275 282 285 284 284 285 286 287 287 286 286 285 285 283 281 281 280 280 280 278
283 280 284 283 283 283 285 286 287 291 286 281 279 276 277 277 273 273 274 274 277 276 275 275 279 281 282 282 283 284 284 285 285 284 282 281 281 281 279 276 274 276 276 276

GFSNW_sfc_thetae_039.txt.gz
Theta_e
303 303 304 306 307 307 305 299 288 306 308 290 291 288 291 293 293 294 291 291 290 288 289 288 288 286 288 292 292 287 288 285 278 282 290 293 292 288 288 281 281 284 282 282
303 303 303 305 307 307 301 295 296 306 302 284 286 291 290 292 291 291 290 288 291 292 289 287 288 290 294 295 291 287 289 286 279 281 288 290 287 289 290 289 288 283 282 283
303 303 304 305 307 306 302 293 286 295 297 296 289 289 288 288 294 292 294 292 293 291 289 291 287 290 292 293 292 297 295 288 284 279 284 288 285 288 290 287 284 285 286 288
302 303 303 305 306 305 301 297 291 292 286 291 291 290 291 288 289 293 294 291 291 290 286 287 288 290 291 293 295 294 293 286 288 289 291 290 287 286 287 286 288 286 290 289
302 302 303 304 306 305 300 296 294 296 292 294 291 291 290 290 290 293 290 289 291 292 287 290 288 290 289 288 292 292 293 286 289 286 290 288 287 290 288 287 288 288 289 291
302 301 302 304 306 304 296 300 300 297 293 292 292 291 292 291 294 295 295 294 292 290 291 294 295 294 293 291 290 291 291 289 288 283 289 290 287 289 294 293 296 296 290 294
302 301 301 303 305 304 300 299 299 296 290 292 291 293 293 292 294 292 296 297 294 295 299 297 296 294 293 293 293 295 291 290 289 285 287 280 290 294 298 296 297 296 297 296
301 301 301 303 304 305 301 301 300 296 292 293 293 293 294 295 296 295 295 297 300 301 297 290 286 288 288 290 291 293 295 291 287 285 284 287 288 291 291 291 291 295 296 295
301 300 300 302 304 305 302 301 304 299 292 292 297 295 294 292 292 293 295 300 302 301 294 288 280 281 283 284 286 292 292 294 289 284 282 278 287 290 292 292 287 294 294 294
301 300 300 302 304 304 302 301 305 301 295 297 298 293 294 298 295 291 294 295 296 299 291 283 280 284 286 284 285 288 287 288 285 286 284 285 292 294 293 285 287 293 293 294
301 300 300 302 304 304 303 300 304 303 297 297 300 300 297 297 296 292 293 294 295 294 290 284 284 284 286 284 286 288 285 282 282 285 282 279 293 293 288 291 292 293 292 293
300 299 300 302 303 303 304 300 307 308 301 300 304 304 304 303 302 298 296 295 294 293 291 287 288 286 285 284 282 287 285 288 286 286 286 292 293 292 295 295 294 291 291 291
299 299 300 302 302 303 303 300 305 304 300 299 299 298 305 306 305 306 296 298 299 298 295 292 290 291 288 283 284 284 288 292 289 290 291 293 294 293 294 295 293 293 294 292
299 300 302 301 302 302 303 300 306 303 300 293 295 304 301 305 305 304 304 302 303 302 299 295 295 291 291 288 289 288 290 292 290 290 292 291 293 293 294 294 294 293 293 293
300 301 301 301 302 302 302 302 306 307 301 295 297 301 302 303 303 302 303 302 301 300 298 296 295 296 293 290 289 287 292 292 290 290 295 294 293 294 295 294 293 293 292 291
301 301 301 301 301 302 299 300 305 307 307 298 290 301 300 300 301 300 300 301 301 299 299 297 298 296 294 288 287 296 294 294 297 296 295 294 293 294 294 294 293 293 291 291
300 301 301 301 301 300 296 297 300 308 306 298 290 291 299 300 299 299 299 300 299 299 298 297 296 294 294 290 286 295 294 295 294 294 294 293 294 293 294 294 293 293 290 290
301 301 301 301 302 302 299 304 307 307 302 299 286 289 294 299 296 295 298 297 298 297 296 296 294 294 294 289 293 292 292 292 293 293 293 295 293 293 291 292 292 289 288 287
301 302 302 300 299 297 301 306 306 304 301 291 289 287 286 298 295 296 295 295 292 295 293 293 293 291 287 292 294 292 292 292 291 291 291 292 291 290 290 290 289 288 286 286
303 300 296 292 300 305 305 301 298 295 295 293 291 295 291 295 293 290 291 291 289 286 290 291 289 290 293 294 293 293 293 292 291 289 286 288 287 288 288 288 288 289 287 286
299 295 293 299 305 300 296 290 290 291 288 293 293 294 291 295 289 289 289 286 286 284 284 288 285 285 288 289 291 291 292 292 291 292 292 292 291 289 287 286 287 287 287 286
296 297 299 298 293 290 288 287 287 287 286 291 291 292 293 292 293 289 287 286 286 282 285 286 282 285 286 287 288 288 290 291 291 290 290 290 290 289 288 287 286 285 285 285
299 294 291 290 287 285 285 283 284 285 285 288 288 287 290 290 290 286 284 280 284 284 282 281 282 282 285 285 286 286 288 290 289 289 289 289 288 289 288 286 285 285 283 282
287 285 284 285 284 286 286 284 281 284 286 288 289 286 287 287 286 284 278 283 282 279 272 275 279 282 284 284 285 286 285 287 286 286 287 287 287 286 286 285 285 284 282 280
285 285 283 284 284 284 285 284 286 287 290 285 287 286 286 283 282 280 282 280 278 278 278 277 278 282 283 283 283 284 285 285 285 286 285 285 285 284 282 283 283 282 280 279
285 283 280 283 283 283 284 285 286 288 288 286 286 283 282 282 277 276 274 274 274 279 279 275 273 281 282 282 283 284 284 285 285 285 285 285 284 282 280 281 280 280 279 277
283 276 282 280 282 283 284 286 287 291 287 285 278 276 278 277 275 273 275 275 278 276 275 275 278 280 281 282 282 283 284 284 284 284 283 282 282 282 280 277 276 276 276 275

GFSNW_sfc_thetae_042.txt.gz
Theta_e
303 303 304 304 306 307 303 298 288 306 308 290 286 286 289 293 292 294 291 290 288 285 287 286 287 285 287 291 291 287 290 287 279 281 289 292 289 286 286 280 278 282 281 280
303 303 303 303 305 307 299 294 295 306 300 283 285 291 290 292 291 291 289 288 290 290 288 285 288 290 295 293 290 287 290 285 275 277 285 288 287 289 289 288 286 281 278 281
303 303 303 302 305 306 301 293 288 291 296 294 289 289 288 287 292 292 292 290 291 289 288 290 287 288 294 293 292 296 294 287 281 276 280 287 285 287 289 286 281 283 283 285
303 302 302 302 304 306 300 294 289 291 285 288 291 292 290 287 287 291 293 290 290 289 286 287 287 289 290 293 294 294 291 283 286 287 289 289 288 287 288 285 286 283 286 288
303 302 302 302 304 305 298 293 293 295 291 292 291 291 287 288 289 290 289 287 291 291 287 288 287 289 290 288 290 289 290 284 287 286 289 289 286 288 288 288 288 287 288 288
302 302 302 301 304 304 294 296 298 297 293 291 289 289 290 291 293 293 294 293 291 290 292 294 295 296 294 292 291 289 288 286 286 282 288 287 285 290 292 289 290 289 285 291
302 302 301 301 303 304 299 298 297 295 289 292 291 292 294 292 293 291 296 296 293 296 300 298 296 295 294 293 291 292 288 287 289 284 286 281 291 296 298 295 297 292 295 293
302 302 301 301 303 305 299 300 298 296 290 293 293 293 293 294 294 294 295 297 299 301 297 290 287 287 288 288 291 291 291 290 287 283 285 288 289 291 294 293 294 294 296 294
301 301 301 301 302 305 301 300 303 300 294 291 296 292 294 293 292 293 295 299 302 300 294 288 282 280 283 283 287 290 291 292 288 285 282 278 287 291 292 292 287 295 295 295
301 301 300 301 302 304 301 300 303 300 293 296 297 294 293 297 294 291 293 294 296 299 291 284 282 285 286 283 284 287 285 288 286 284 285 284 291 294 294 283 287 292 293 294
301 301 300 300 303 303 301 299 303 301 294 295 298 299 296 296 296 291 293 291 295 293 289 285 283 283 287 285 286 287 285 284 281 283 283 278 292 292 288 291 293 294 293 293
301 300 300 300 303 303 303 298 304 308 300 297 304 302 302 303 302 298 295 293 294 295 290 286 286 284 285 284 283 287 285 287 284 285 286 292 293 292 294 295 293 293 291 291
299 300 300 302 302 303 302 299 301 304 300 298 298 297 303 307 305 306 295 297 299 297 294 290 289 287 287 283 284 284 287 291 288 289 290 292 294 293 293 294 292 292 291 290
299 301 301 302 302 302 302 298 301 300 300 292 294 304 302 306 306 305 304 302 302 302 296 292 290 288 290 288 287 287 289 291 289 288 292 292 293 293 293 292 292 291 291 290
300 301 301 301 302 302 301 300 301 304 300 295 296 301 303 304 304 302 303 301 299 300 297 293 290 293 293 292 291 286 291 290 289 288 294 293 293 293 294 293 292 291 290 288
298 299 300 301 302 302 298 297 304 306 306 298 290 300 300 300 302 301 300 301 301 299 297 295 297 298 295 290 285 293 292 294 295 295 293 293 293 294 294 292 292 291 290 289
299 300 301 302 302 299 294 296 300 305 307 298 290 291 298 299 299 299 299 300 300 299 298 296 296 295 295 291 284 294 294 294 293 294 294 292 293 292 293 293 292 292 289 288
300 301 302 302 302 301 297 302 305 305 302 298 286 289 293 299 296 295 298 297 298 297 296 296 295 294 293 287 292 293 292 292 292 292 293 294 293 292 291 291 291 288 286 286
302 302 302 300 298 295 300 306 306 305 300 291 289 287 285 298 295 296 295 296 292 295 293 294 294 291 287 291 292 292 292 291 291 291 291 292 291 290 290 290 289 287 286 285
303 300 295 292 298 305 305 302 299 296 296 295 291 294 290 293 293 291 291 291 289 285 291 291 289 290 293 294 294 293 292 291 291 289 286 287 287 288 288 289 288 288 286 285
298 295 293 300 305 300 296 290 291 291 288 293 292 293 291 294 289 289 289 286 286 284 284 287 284 284 287 288 290 291 291 291 290 292 292 292 292 290 288 287 286 286 286 285
295 295 298 299 293 290 288 287 287 288 287 291 291 292 293 292 293 288 287 286 286 282 284 285 282 284 285 287 287 289 290 291 290 290 291 290 290 289 288 287 286 284 284 284
298 293 290 290 287 286 285 283 285 285 283 288 288 287 290 290 290 286 286 284 284 283 282 281 282 283 285 285 286 286 288 289 289 288 289 289 288 288 288 286 285 285 283 282
287 285 284 285 284 286 285 281 280 282 286 288 289 287 287 288 287 285 283 282 282 280 275 275 279 281 283 284 285 286 285 286 286 286 287 287 286 285 285 285 285 284 281 281
285 285 283 284 284 284 285 285 285 287 290 288 287 286 287 284 283 281 282 280 278 278 277 277 278 281 282 282 283 284 284 284 284 285 285 284 284 283 282 284 283 282 281 279
285 283 279 282 282 283 284 285 285 288 289 287 287 284 283 282 282 276 276 273 274 279 278 275 271 281 281 281 283 283 283 283 284 284 284 284 283 282 280 280 281 280 279 278
280 276 282 279 280 280 282 285 286 291 287 286 284 283 283 278 276 274 274 277 280 275 274 274 276 278 281 281 282 282 283 283 283 283 282 281 281 281 280 277 275 276 276 276

GFSNW_sfc_thetae_045.txt.gz
Theta_e
304 304 304 304 303 305 302 294 288 304 306 290 288 286 288 294 291 293 291 290 287 285 286 284 285 285 287 292 291 288 291 287 282 283 288 290 289 286 286 279 277 282 280 280
303 303 303 303 303 305 299 289 292 305 301 283 285 291 289 293 291 290 289 288 290 290 287 284 288 290 293 293 290 287 290 286 277 277 285 288 286 288 288 287 286 280 277 280
303 303 303 303 303 304 300 290 286 291 296 294 289 288 288 288 294 292 291 290 291 288 287 290 287 288 293 294 292 295 294 286 279 276 279 286 283 286 288 286 281 282 282 284
303 303 303 303 302 304 300 294 289 291 285 289 290 292 289 287 287 292 291 289 289 287 284 287 287 290 290 293 294 294 291 284 285 286 287 288 287 287 288 284 285 282 285 285
303 303 302 302 303 304 295 289 291 293 290 292 290 291 289 288 289 289 287 287 290 290 286 287 286 289 289 288 290 291 291 285 286 284 288 288 286 288 289 289 289 287 287 287
302 302 302 302 302 303 294 295 296 294 292 291 290 289 288 289 291 291 292 291 289 288 291 293 294 296 295 293 290 286 288 286 284 281 288 288 284 289 291 291 291 289 286 290
302 302 302 302 302 303 299 297 295 290 288 290 290 291 292 291 291 290 294 294 291 296 300 298 296 296 295 294 293 293 289 286 287 284 286 280 292 296 296 295 296 292 292 293
301 302 302 302 301 303 300 299 296 294 290 293 292 291 292 294 295 293 294 297 299 301 296 289 286 286 287 289 291 291 292 288 286 283 283 287 290 292 294 294 293 294 294 294
300 301 302 301 301 303 300 298 302 297 292 291 295 292 294 291 291 293 294 299 302 300 292 287 281 277 281 282 285 289 289 290 288 285 281 279 289 292 294 296 289 297 295 295
301 301 301 300 301 303 301 298 302 297 292 294 295 292 292 296 295 292 293 294 294 298 289 286 283 282 284 282 283 285 285 287 284 286 284 285 291 294 294 285 288 294 295 295
301 301 300 300 301 303 301 297 302 299 297 295 298 298 295 297 296 291 293 292 292 291 286 286 284 282 284 284 286 285 284 284 284 285 283 279 291 292 288 292 294 294 295 295
299 299 300 301 302 303 303 295 301 303 299 295 301 301 302 301 301 297 295 293 293 293 290 286 287 284 285 286 282 287 284 287 284 284 285 291 292 293 295 295 294 293 293 294
298 299 301 302 302 303 302 297 299 300 300 295 296 296 302 305 305 306 295 296 299 297 294 291 289 287 287 283 283 284 287 290 288 288 291 292 294 294 294 294 293 293 292 291
300 300 300 300 301 302 302 297 299 297 297 290 293 303 301 306 306 306 305 302 302 301 298 293 290 288 290 286 286 286 288 290 289 288 292 292 294 293 294 293 292 290 290 289
299 298 299 300 301 302 301 299 299 300 297 295 296 301 303 304 305 303 303 301 299 298 297 295 289 291 290 290 290 285 290 290 288 288 293 293 293 293 294 293 291 290 289 287
299 299 299 300 301 302 298 294 302 302 304 298 290 300 300 301 303 301 301 301 300 300 297 296 296 295 293 291 289 292 292 293 295 294 294 293 293 294 295 292 292 291 289 287
299 300 300 301 302 299 293 295 299 302 302 298 290 291 298 300 299 299 299 300 299 299 298 296 293 293 295 291 285 294 294 294 294 293 294 292 293 293 293 292 291 290 288 287
301 301 301 302 302 300 296 300 303 303 301 299 287 289 293 299 296 295 299 297 298 298 296 296 295 293 292 289 293 292 292 291 291 292 293 293 292 292 290 290 289 287 285 285
303 303 302 300 297 294 298 306 306 306 301 291 289 287 286 297 295 296 295 296 292 296 293 294 294 292 288 291 292 292 292 291 292 291 292 292 291 290 289 289 288 286 285 285
303 299 295 291 297 304 305 303 298 295 296 295 290 293 289 293 292 291 291 291 289 285 291 292 290 290 292 292 292 292 292 291 291 290 286 288 288 289 289 289 289 288 286 285
297 294 292 299 305 301 296 290 291 292 288 292 292 291 291 292 289 289 290 286 286 284 286 287 286 284 286 288 290 291 291 291 291 291 292 292 292 290 288 286 286 286 285 283
295 295 297 298 294 290 288 287 287 287 286 291 291 292 293 291 293 286 287 286 286 281 284 285 282 285 287 287 287 288 289 290 289 289 290 290 290 289 288 286 285 284 283 282
298 293 289 290 287 285 285 283 285 285 287 288 288 288 291 291 291 287 286 284 283 285 283 282 282 284 285 285 286 286 287 289 288 288 288 288 288 288 287 284 284 284 283 282
288 285 285 285 284 286 285 282 280 282 286 287 289 287 288 288 287 286 284 284 283 280 277 275 280 281 283 284 284 286 285 286 286 286 287 286 286 285 285 284 284 283 281 281
285 285 281 284 284 285 285 285 286 286 289 288 287 286 287 285 285 283 282 280 278 279 277 278 278 280 282 283 284 284 284 284 284 285 285 284 284 284 283 284 284 283 281 280
285 280 278 281 282 284 284 285 285 288 289 287 287 284 283 282 279 276 278 274 275 279 278 276 272 280 281 282 283 283 283 283 283 283 283 283 283 282 280 281 280 280 279 278
282 279 283 279 281 282 283 285 286 291 287 285 285 281 279 278 276 274 276 278 282 276 274 274 276 277 280 281 282 282 282 282 282 282 281 280 280 280 279 277 276 277 277 276

GFSNW_sfc_thetae_048.txt.gz
Theta_e
304 304 304 304 304 305 302 294 286 305 307 289 291 287 288 293 293 295 293 293 291 289 290 288 288 288 291 296 295 289 292 288 284 286 292 294 292 289 289 282 281 284 283 282
304 304 304 304 304 304 298 291 289 302 302 285 287 291 289 294 293 292 292 291 293 293 290 286 290 291 296 296 294 291 292 287 282 283 287 290 288 290 290 289 288 282 280 284
303 303 303 303 303 304 299 290 285 292 295 295 290 288 287 290 295 293 294 292 294 292 290 292 289 290 293 296 295 297 295 288 285 283 285 289 285 288 290 288 283 284 285 286
303 303 303 303 303 304 300 292 287 292 285 291 292 292 291 290 289 294 295 291 292 291 287 289 289 291 292 294 295 295 292 286 288 288 289 289 288 288 288 285 287 283 287 288
303 303 303 303 302 304 296 289 288 292 292 293 292 291 290 290 290 292 290 291 292 292 290 290 288 291 290 289 292 292 292 286 288 286 290 289 287 289 290 289 288 287 288 287
303 302 302 303 302 303 295 296 295 291 292 291 290 290 291 291 294 293 294 294 293 291 293 295 297 297 295 295 292 290 290 287 285 283 289 289 285 289 290 292 293 291 288 293
302 301 302 303 301 302 300 297 295 289 288 291 290 292 293 293 294 292 295 296 294 297 302 300 299 296 295 294 293 294 290 288 288 284 288 281 292 296 295 293 295 299 297 298
302 302 302 302 301 303 301 299 294 291 289 292 292 294 294 295 296 294 295 298 300 303 296 290 287 287 288 289 292 292 293 290 286 284 284 288 291 293 293 291 295 299 298 299
301 301 302 301 301 302 302 299 300 296 292 291 296 294 295 292 293 292 296 301 304 301 293 287 283 281 285 283 287 293 293 293 287 286 282 280 292 296 298 298 290 300 299 296
301 301 300 301 301 303 302 299 301 296 293 298 299 295 294 298 295 293 295 296 297 299 289 286 286 285 289 285 284 285 286 287 283 284 283 289 296 297 297 288 290 297 298 298
299 299 300 301 302 303 302 298 302 296 294 299 301 302 298 298 298 293 294 293 293 293 287 287 289 288 290 289 291 287 285 284 285 285 283 282 297 296 292 297 299 298 299 298
299 299 299 300 302 303 303 296 301 301 295 300 305 305 305 304 303 299 296 294 293 294 290 290 292 289 291 291 286 294 287 291 290 290 290 298 298 299 301 300 299 298 296 298
299 300 300 300 300 302 302 299 299 299 298 301 301 299 305 308 307 308 295 296 299 297 300 295 295 291 294 289 290 292 294 296 293 293 298 297 300 300 300 299 298 297 295 296
299 299 299 299 299 301 301 298 300 297 294 294 297 306 304 307 307 306 305 302 302 301 300 296 296 293 296 293 292 292 296 295 295 294 298 300 301 300 300 297 296 294 292 293
299 299 300 299 299 301 302 301 300 300 295 293 297 303 304 304 305 304 304 303 300 298 297 295 294 297 295 296 294 293 296 296 294 293 299 299 299 298 298 297 294 292 291 290
299 299 300 300 301 301 299 295 301 302 300 297 291 301 301 302 303 302 301 301 300 300 299 298 299 300 298 294 292 299 299 300 302 300 300 299 298 298 298 295 293 292 291 290
300 301 301 301 301 301 294 294 299 302 300 298 291 293 299 301 300 300 299 301 299 299 299 297 297 297 298 295 291 299 299 300 301 300 299 298 297 297 296 294 292 291 289 289
302 303 302 302 302 302 296 300 302 302 299 300 288 291 294 300 296 295 299 298 299 299 297 297 297 296 295 291 297 299 299 298 298 298 299 298 296 295 292 291 290 288 287 287
304 303 303 301 298 294 298 305 304 305 301 292 291 289 288 299 296 297 296 296 292 297 294 295 294 293 290 296 298 298 298 297 297 295 295 295 295 292 291 290 290 288 287 287
303 301 294 292 298 303 305 302 298 299 297 297 293 296 291 296 295 293 293 292 290 286 292 293 290 291 298 297 297 297 296 296 295 293 290 291 291 291 290 291 291 289 288 286
298 294 292 298 304 301 296 291 292 292 290 295 294 294 293 296 292 292 291 288 288 286 289 289 289 289 292 292 293 295 295 295 296 296 296 296 296 293 291 290 289 288 287 286
295 295 297 297 294 291 288 288 289 289 288 293 292 294 294 293 296 291 290 287 288 284 288 287 285 291 290 290 291 292 293 295 294 294 295 295 295 294 292 290 288 288 286 284
298 293 290 291 288 285 284 283 286 287 289 290 290 290 292 293 293 288 288 285 285 288 285 284 288 289 289 289 290 291 292 293 292 292 292 293 292 292 290 288 287 286 285 285
289 286 285 286 285 287 286 285 286 286 287 288 291 288 289 290 288 287 285 285 285 282 280 283 288 286 286 288 289 290 290 291 291 290 291 290 290 289 288 288 287 286 284 283
286 285 284 285 286 286 286 287 288 289 291 289 288 288 289 287 286 285 284 282 281 283 285 287 286 284 286 288 288 289 289 289 289 289 289 288 287 287 286 287 287 285 283 283
286 285 283 284 285 285 286 286 286 289 290 288 288 286 285 286 285 282 282 282 282 287 287 287 283 284 286 287 287 287 287 288 287 287 287 287 286 285 284 284 284 283 282 281
284 282 284 284 284 285 286 286 287 291 288 286 286 284 285 283 281 280 282 283 287 285 285 283 282 284 285 286 286 286 286 286 286 285 285 284 284 284 283 280 281 281 281 281

GFSNW_sfc_thetae_051.txt.gz
Theta_e
305 304 304 305 305 304 302 295 286 303 305 289 291 287 291 293 294 296 294 294 292 290 291 288 289 289 292 298 297 290 293 290 285 286 294 296 292 289 288 282 282 285 284 283
304 304 304 304 305 304 299 291 289 299 302 285 287 291 290 293 292 293 293 292 294 295 291 288 291 292 296 297 296 292 293 288 283 285 289 292 289 291 291 289 288 283 280 284
304 304 304 304 304 304 301 290 286 291 296 294 290 290 288 289 296 294 295 294 295 294 291 294 291 290 294 297 297 298 297 289 287 285 286 290 286 289 291 289 283 284 285 287
304 303 303 303 303 304 300 291 287 293 286 290 292 292 291 290 290 295 296 293 294 293 289 291 291 292 293 295 296 295 293 286 289 290 290 290 289 288 289 287 288 284 287 287
304 303 302 303 303 304 296 289 288 291 293 294 292 292 291 291 292 293 292 292 294 295 292 292 290 293 292 291 294 293 293 287 289 286 290 289 287 289 290 290 290 289 289 288
303 303 302 303 302 303 296 297 295 291 293 292 292 291 292 293 295 295 296 296 294 293 294 297 298 299 298 296 293 291 290 288 285 282 290 289 285 290 291 291 292 290 287 292
302 302 302 303 302 302 301 298 295 289 289 291 291 293 294 294 295 294 297 297 295 298 303 301 300 298 296 296 295 295 290 288 287 283 287 281 293 297 296 293 295 297 296 299
302 302 302 302 302 303 302 300 295 291 287 293 293 294 294 296 297 296 296 298 302 304 298 291 288 287 288 290 293 292 294 290 286 283 284 289 292 295 294 292 294 300 300 300
300 301 301 301 302 303 303 300 300 295 289 293 296 294 295 293 293 294 296 302 305 301 294 290 285 283 286 283 286 293 292 292 288 285 282 280 291 298 301 299 290 301 301 300
299 299 299 300 301 303 303 300 301 295 290 298 299 295 295 298 297 295 296 297 297 300 291 286 285 285 291 285 284 285 286 287 284 285 283 287 297 299 299 289 291 301 301 300
299 299 300 300 301 303 302 299 302 295 292 297 302 302 299 299 299 293 296 294 294 293 287 287 288 289 290 289 291 288 286 284 284 284 282 282 300 297 293 298 302 301 300 299
299 299 300 300 301 301 302 297 302 301 294 297 305 306 308 306 305 301 298 296 295 295 290 290 292 290 292 291 286 294 286 290 289 290 290 299 301 300 302 303 301 301 300 301
299 299 299 300 299 300 300 299 300 298 296 302 303 301 307 309 309 309 297 297 299 296 300 296 295 291 295 289 290 293 295 297 292 293 297 299 301 304 303 303 301 300 298 297
299 300 300 300 300 299 300 298 301 297 294 293 299 308 305 308 309 308 306 303 302 301 299 295 294 292 298 295 295 294 296 297 294 294 297 300 302 302 301 300 299 296 295 296
299 299 300 300 300 300 301 302 302 301 294 292 297 304 306 306 306 305 305 303 300 298 294 294 293 299 298 299 297 294 298 296 294 293 301 301 301 301 301 300 297 295 294 294
298 299 300 301 300 301 299 294 301 302 300 295 292 302 302 303 304 302 300 301 300 299 296 297 300 303 299 294 292 298 301 302 302 299 302 302 301 301 300 297 295 295 294 294
300 301 301 301 301 301 294 294 299 303 301 296 292 294 300 302 301 300 299 301 299 299 298 296 298 300 300 296 291 298 302 302 303 304 303 301 300 300 298 295 293 293 292 292
302 304 303 302 302 301 297 300 303 302 298 299 288 292 296 300 296 295 300 297 298 298 297 298 297 299 298 293 298 300 302 302 302 302 303 301 299 297 294 293 292 289 289 289
303 304 303 302 299 295 299 305 305 303 301 293 292 290 289 300 298 297 297 297 292 297 294 295 296 294 290 296 298 300 300 299 299 298 298 298 297 295 292 292 291 288 288 289
303 301 295 292 298 304 303 301 298 297 298 297 293 297 293 297 297 294 293 293 290 286 292 294 290 292 299 301 299 300 300 299 298 295 293 295 293 293 292 291 291 291 289 288
298 294 293 298 303 301 297 292 293 294 291 297 295 295 294 298 293 293 292 289 288 286 289 289 289 290 295 295 295 297 299 298 298 299 298 298 297 294 291 291 291 290 289 287
295 294 297 297 295 293 289 288 290 289 289 294 293 294 295 295 297 292 291 288 289 285 291 287 285 293 293 292 293 294 295 297 297 296 296 297 298 297 294 291 290 289 287 286
298 294 290 292 290 286 285 284 286 288 290 289 290 291 293 295 295 289 289 286 286 290 286 285 290 292 290 291 292 293 294 295 294 294 295 297 296 296 293 291 290 287 286 286
290 287 285 287 285 287 287 287 287 288 289 290 291 289 289 291 289 288 286 286 286 283 282 285 291 288 288 291 291 291 292 292 293 292 293 293 293 292 291 290 289 287 286 285
287 286 285 285 288 289 289 290 290 290 291 291 290 289 289 288 287 286 286 284 282 285 287 290 288 287 288 290 290 291 291 291 291 292 291 291 291 289 288 289 289 286 285 285
286 286 285 287 287 286 287 287 288 291 292 290 288 287 286 287 288 284 283 284 285 287 288 288 287 286 288 288 289 289 290 290 290 290 290 290 289 288 288 287 286 286 284 282
285 285 287 287 287 288 288 288 289 291 289 287 287 284 286 285 284 283 286 285 285 285 285 286 286 285 286 286 288 288 288 288 289 288 289 288 287 287 285 283 283 283 283 282

GFSNW_sfc_thetae_054.txt.gz
Theta_e
305 305 305 305 305 305 302 294 286 300 305 288 289 286 290 293 291 296 294 295 292 288 290 288 288 288 292 296 296 290 292 289 282 284 292 293 291 287 287 279 275 279 275 278
305 305 304 304 305 304 299 290 289 300 301 283 285 290 290 292 292 293 293 292 294 294 290 286 290 291 296 297 294 291 292 286 281 283 288 292 288 290 290 288 286 276 275 279
305 304 304 304 304 304 300 291 285 292 294 292 289 288 287 288 296 294 296 294 295 293 291 293 290 290 294 296 296 299 296 289 283 280 285 288 282 287 289 287 279 280 281 283
304 304 303 303 304 304 300 291 287 291 285 287 289 292 291 289 289 295 296 294 293 292 289 290 289 292 292 295 297 295 291 284 287 288 289 289 289 288 287 284 285 281 284 285
304 303 303 303 303 305 297 289 288 290 290 293 291 292 289 289 291 293 292 292 295 295 291 292 289 291 291 289 292 292 292 284 288 285 289 288 285 288 288 288 288 288 287 286
303 303 303 303 302 303 296 298 296 291 291 291 290 290 291 291 294 295 296 296 294 292 293 297 297 297 296 295 291 291 289 287 285 280 288 287 281 287 288 289 290 289 286 291
302 302 303 302 302 303 300 298 295 289 288 291 291 293 294 293 295 293 296 297 296 297 301 300 298 296 295 294 294 295 289 288 287 279 283 275 291 296 296 293 295 295 294 296
300 300 301 301 302 303 300 300 295 291 286 291 293 293 293 295 296 295 296 298 300 301 297 291 288 287 288 289 293 292 293 289 285 278 279 285 290 294 293 292 293 298 297 299
300 300 300 300 301 303 301 300 300 294 289 291 294 294 295 292 292 294 297 302 302 300 294 289 283 282 284 283 286 293 292 292 287 283 278 278 289 297 299 297 288 301 301 300
300 300 300 301 301 302 301 300 300 295 289 293 298 294 294 297 296 293 296 297 297 299 291 286 284 284 289 282 282 284 286 287 282 281 281 284 293 297 298 287 288 299 301 300
300 300 300 300 301 301 300 299 301 295 290 292 300 302 298 298 297 293 295 293 294 293 288 287 286 286 288 285 288 285 284 282 282 283 281 276 296 295 290 294 297 298 299 299
300 300 300 300 300 300 300 296 301 301 293 293 302 305 306 305 304 299 298 296 293 295 290 290 290 289 288 287 284 289 283 286 283 285 284 293 297 296 298 299 297 297 296 297
299 299 300 300 300 300 298 297 299 298 294 297 300 301 306 308 307 307 296 297 299 296 299 294 292 289 291 286 286 288 290 292 287 290 293 294 297 298 298 298 296 296 295 294
300 300 300 300 301 301 299 296 300 297 293 291 298 306 303 307 308 307 306 302 302 301 299 294 292 290 294 289 291 290 293 293 290 289 294 296 296 297 297 296 296 294 293 294
300 299 299 300 300 300 299 299 299 301 293 291 295 301 305 305 305 304 305 302 300 297 294 293 291 295 295 294 292 290 293 292 290 289 297 296 295 296 298 296 293 293 293 293
299 299 301 301 301 300 297 293 301 302 299 293 290 301 301 301 303 302 300 301 300 298 294 294 297 300 297 289 288 294 295 297 298 296 297 298 298 297 296 294 293 293 292 292
299 301 301 302 301 299 293 293 298 302 301 294 290 293 300 302 301 300 299 300 298 298 296 295 296 296 297 291 287 294 297 298 299 299 299 296 297 295 294 292 292 293 291 291
301 303 304 303 302 300 296 300 302 303 296 297 287 290 295 300 296 294 298 296 297 297 296 297 294 296 296 287 294 297 297 298 298 298 299 297 295 293 291 290 290 288 287 288
301 303 303 300 297 294 297 305 304 301 298 292 291 287 287 299 297 297 296 297 291 297 293 294 295 293 288 293 295 296 296 295 295 295 295 295 293 291 289 289 288 287 287 288
302 301 295 291 297 304 303 299 295 293 297 296 292 296 290 296 295 292 292 293 289 285 291 293 290 291 296 295 294 295 296 296 295 291 288 289 288 290 289 289 289 289 288 287
298 294 292 298 302 300 297 291 291 293 290 295 294 294 291 296 291 291 292 287 287 285 287 288 287 287 291 291 292 293 294 295 295 295 294 294 294 292 291 290 290 289 288 285
295 294 296 296 294 291 288 287 288 288 287 293 292 293 294 294 295 291 290 286 286 284 289 286 284 289 288 289 290 291 292 293 293 293 294 295 296 294 292 290 289 288 287 286
298 294 288 291 289 285 285 283 285 286 288 288 288 289 292 294 293 288 287 285 285 288 285 283 286 286 287 288 289 290 291 292 292 291 293 295 294 293 291 289 288 286 285 285
290 286 285 285 285 286 286 286 286 287 288 289 290 288 289 290 288 287 285 286 285 283 281 279 283 284 285 288 289 290 290 291 291 291 292 292 291 290 289 288 286 285 284 284
286 286 284 285 287 287 287 287 288 289 290 290 288 287 288 287 286 286 285 284 282 282 281 282 283 284 285 286 287 288 288 289 289 290 290 289 289 287 286 287 286 285 284 282
286 285 284 285 285 285 286 286 286 289 291 288 287 286 284 285 286 283 284 282 278 280 281 282 282 283 284 285 285 287 287 287 287 288 288 288 287 286 285 284 284 284 282 281
284 284 286 286 286 286 286 288 288 290 288 286 286 284 282 282 283 282 281 278 278 278 279 281 283 283 283 284 285 286 286 286 286 286 285 285 285 284 283 280 280 281 281 280

GFSNW_sfc_thetae_057.txt.gz
Theta_e
305 305 305 304 305 305 303 295 285 300 303 287 288 283 289 294 290 291 293 293 290 287 289 287 287 286 289 293 293 288 290 288 281 284 291 292 289 285 285 273 272 274 272 276
305 305 304 304 305 304 299 290 290 300 300 279 282 288 290 292 288 291 293 292 292 292 290 285 290 289 295 295 293 289 290 284 280 283 287 289 287 288 289 287 284 271 270 277
304 304 304 304 304 305 299 291 284 288 291 291 288 287 288 288 292 294 295 294 293 292 289 292 289 289 295 297 296 299 294 288 280 275 280 287 283 287 289 287 278 277 277 282
304 304 303 304 303 305 299 292 287 290 282 285 288 288 289 287 289 294 296 292 292 292 288 289 288 290 291 295 297 295 290 282 284 286 287 287 287 286 286 283 285 282 282 283
303 303 303 303 303 305 296 289 287 290 289 290 289 289 288 287 292 293 291 291 294 294 290 290 287 290 289 288 292 291 291 283 285 284 287 287 284 287 287 287 287 286 286 285
301 301 301 302 302 303 295 296 296 291 289 290 286 289 288 290 294 295 296 294 292 291 292 294 295 295 293 292 289 287 287 285 284 273 285 284 278 285 286 287 288 288 283 289
301 300 300 300 301 302 298 297 294 289 287 289 289 291 294 293 295 293 295 296 293 295 299 298 296 294 293 292 293 293 288 287 287 277 281 273 284 294 293 290 293 293 293 295
300 301 300 300 301 302 295 299 294 290 286 290 291 293 291 293 296 295 296 297 297 299 295 288 286 285 286 289 292 292 293 289 282 277 276 283 288 292 292 290 291 298 296 298
300 300 300 300 301 302 296 299 299 294 288 287 291 293 292 288 291 291 296 300 300 297 292 289 283 280 283 282 286 292 292 291 285 283 278 276 287 294 298 295 289 299 300 299
300 300 300 300 300 301 296 298 300 294 288 293 294 293 291 296 294 289 293 294 294 296 289 285 284 283 288 280 280 282 285 286 283 280 280 281 289 296 297 285 286 297 301 302
300 300 300 300 300 300 297 295 301 295 290 291 294 300 298 295 293 289 293 290 291 292 287 286 286 283 287 283 284 283 283 282 282 282 277 275 291 294 290 294 296 297 299 298
301 300 299 300 301 300 299 292 301 301 292 292 297 298 301 303 302 296 297 294 291 293 288 288 288 286 286 284 281 286 283 285 282 283 282 290 294 295 297 296 295 295 295 296
301 300 300 300 301 301 298 294 297 297 292 295 296 297 303 306 305 305 294 297 298 296 297 294 291 285 287 283 283 285 287 290 285 286 289 291 293 295 295 295 294 293 294 294
301 300 300 299 300 301 300 293 298 296 293 289 296 305 301 304 305 304 302 299 300 300 298 294 292 290 291 288 289 288 290 290 287 286 290 292 294 295 295 294 293 292 292 292
300 300 300 299 300 300 297 295 298 298 292 289 293 298 302 303 302 301 302 301 299 297 294 293 290 294 294 291 290 287 292 290 287 287 293 294 295 297 296 293 292 291 291 292
299 299 300 300 301 300 294 291 300 300 299 292 289 300 298 301 303 302 301 302 300 298 295 294 296 298 296 290 289 294 294 294 296 294 296 298 297 296 294 292 291 292 292 292
299 300 301 302 301 296 292 293 298 302 300 293 290 292 299 301 300 300 299 300 298 297 295 294 294 296 297 292 285 294 294 296 297 298 298 296 295 294 291 291 291 291 290 290
300 301 304 303 302 299 295 298 301 302 296 296 287 290 292 299 295 294 298 295 296 296 295 297 295 295 295 290 292 294 295 295 295 295 297 296 293 290 288 288 288 287 286 287
299 302 303 297 293 291 296 305 303 301 296 290 290 287 285 298 296 297 296 296 291 296 291 293 295 293 289 291 293 293 294 294 295 295 294 293 291 289 287 287 286 285 285 286
301 300 294 290 295 304 303 299 294 292 294 294 291 295 289 294 295 292 292 293 288 285 290 293 290 291 295 290 290 291 292 293 295 292 290 288 287 288 287 286 287 287 287 286
297 293 292 297 301 299 296 291 290 291 289 294 294 294 291 296 290 291 292 287 285 284 286 286 285 287 288 287 288 290 291 291 292 293 294 294 293 291 288 288 288 288 287 286
293 293 296 296 294 291 288 287 288 288 287 292 291 293 294 293 294 290 289 285 285 283 289 286 284 286 285 286 288 289 290 291 291 292 294 295 296 294 292 290 289 288 286 285
296 293 288 289 288 285 284 283 285 285 288 287 288 288 291 293 292 288 287 284 284 288 285 283 284 284 285 286 288 289 290 291 290 290 292 294 294 293 291 289 288 286 285 285
289 286 284 285 284 285 286 285 285 284 286 288 289 288 288 290 288 287 285 286 285 282 280 279 282 283 284 286 286 287 287 288 288 289 290 291 291 290 289 288 287 286 284 283
286 285 283 285 286 286 286 286 287 288 289 289 288 286 287 286 286 286 285 283 281 282 282 280 281 282 283 284 284 285 286 287 287 288 288 288 288 286 285 285 286 285 283 282
285 285 283 285 285 285 285 285 285 288 290 287 287 285 285 285 285 283 283 282 280 279 279 279 280 281 282 282 283 284 285 285 285 286 287 288 287 286 284 284 284 283 282 281
284 283 285 284 284 285 285 286 287 289 288 285 285 284 282 281 282 282 283 279 281 277 276 277 279 280 281 282 283 284 283 284 284 284 283 284 284 283 282 280 280 281 281 281

GFSNW_sfc_thetae_060.txt.gz
Theta_e
305 305 304 304 305 305 303 294 285 300 303 286 286 281 288 293 289 290 289 293 290 287 287 286 285 285 288 292 292 287 289 285 282 284 289 292 288 285 284 273 271 273 273 277
304 304 304 304 304 306 298 289 290 299 294 277 280 288 287 291 288 288 293 291 291 290 289 285 287 287 292 293 291 288 289 283 275 282 286 289 286 287 287 284 282 272 271 277
304 304 304 304 304 306 298 290 282 285 288 290 287 287 288 287 292 291 294 291 292 290 289 290 288 288 294 294 293 298 294 286 280 276 280 285 281 286 287 284 277 275 277 279
302 302 302 303 303 305 298 289 286 289 283 283 285 288 288 287 288 295 295 291 292 291 287 288 287 289 291 294 297 293 289 282 284 285 287 286 285 284 285 282 284 279 280 282
302 301 301 301 302 304 296 289 288 290 288 290 287 288 287 288 292 293 291 290 293 292 289 289 287 289 288 287 292 291 291 281 284 282 286 286 283 285 286 286 286 285 286 285
301 301 301 301 302 301 293 296 296 291 289 289 285 289 289 291 294 295 296 295 292 290 291 293 294 294 292 291 289 288 288 285 282 274 283 282 278 283 285 286 287 288 284 288
301 300 301 301 301 302 295 297 294 289 286 288 289 291 292 292 295 292 296 296 293 295 298 296 295 293 292 292 291 292 286 286 287 276 279 273 283 290 289 287 289 291 291 292
301 301 301 301 301 302 293 298 294 290 285 289 289 290 291 293 295 294 294 295 296 298 294 287 286 286 288 289 292 291 291 288 282 278 277 281 285 291 291 289 289 297 296 297
301 300 300 300 300 302 293 298 299 294 288 286 290 289 290 287 288 290 294 298 299 296 290 286 280 280 283 283 286 292 292 291 285 282 278 275 284 292 296 294 287 296 299 298
301 301 300 300 300 301 294 295 300 295 288 292 293 289 289 292 290 287 290 293 293 294 286 282 283 283 287 279 279 283 286 286 282 282 280 280 287 291 295 286 286 295 299 301
301 301 300 299 300 301 295 292 300 295 290 291 292 297 295 294 292 290 292 289 290 289 285 285 282 282 284 281 283 282 283 281 282 283 279 275 289 293 289 294 294 295 296 299
301 301 300 300 300 301 298 289 301 300 293 291 296 297 299 299 301 297 294 291 290 290 288 285 285 285 284 282 281 284 283 285 282 282 282 288 290 292 296 296 294 293 294 296
301 301 301 300 300 300 299 290 295 295 292 292 294 295 303 301 300 306 296 295 298 295 295 293 291 286 285 282 282 282 286 289 284 285 288 289 291 293 295 296 294 294 293 293
301 301 301 300 300 300 300 292 297 295 291 287 294 304 299 303 303 302 300 298 299 299 298 293 292 290 291 288 289 289 289 289 286 285 288 290 293 294 296 294 293 292 292 292
300 301 300 300 300 301 297 294 297 297 291 288 292 298 300 301 301 299 302 300 299 297 294 293 290 294 292 288 288 286 290 288 285 285 291 292 293 297 298 294 293 292 291 292
300 299 300 301 301 301 293 290 296 298 296 290 288 298 296 301 303 302 301 301 299 298 295 294 296 298 294 289 289 293 293 293 293 292 294 295 296 296 294 292 291 291 291 292
299 300 301 302 302 296 289 292 297 301 299 291 289 291 299 301 300 300 300 300 298 298 295 293 294 295 296 292 284 293 293 294 296 296 297 294 295 295 292 291 290 291 289 289
299 301 303 303 302 299 293 297 300 302 296 295 286 289 289 297 295 294 298 295 296 296 294 295 294 295 294 289 293 294 294 295 294 294 294 293 292 290 288 288 288 287 286 286
299 301 301 296 293 290 295 304 302 300 295 289 290 287 282 298 296 296 295 296 290 296 291 293 295 292 287 287 288 290 291 291 292 295 295 292 292 290 287 286 286 285 285 285
301 299 294 289 292 303 301 297 292 291 293 292 290 295 290 294 293 293 292 292 287 285 290 293 291 290 288 287 289 289 288 289 290 289 292 289 289 289 287 286 286 286 285 284
297 293 291 296 301 299 295 290 289 290 288 293 294 293 291 296 289 290 292 286 285 283 286 286 285 285 284 286 285 287 288 288 289 290 291 293 294 293 289 287 287 286 286 286
293 292 295 295 293 291 287 286 288 288 287 293 291 291 294 294 294 291 289 285 285 283 288 285 284 284 284 284 285 288 290 290 291 291 291 292 295 295 292 290 289 288 287 286
296 292 287 289 288 283 284 282 284 285 288 288 288 288 290 293 292 288 287 284 284 288 284 283 282 284 284 284 285 286 288 289 289 289 290 293 294 293 291 289 288 286 285 285
289 285 283 284 284 284 281 279 282 286 287 288 290 288 288 290 287 287 285 285 285 282 280 280 281 282 283 284 285 285 286 287 287 287 289 290 291 290 290 288 287 286 285 285
286 284 282 285 286 286 285 286 287 288 289 289 288 287 287 286 285 286 285 283 280 282 282 281 281 282 282 283 283 284 285 285 286 286 286 287 288 287 286 286 287 286 284 282
285 285 282 285 285 285 285 285 285 288 289 287 287 285 285 284 285 283 283 281 280 281 281 279 279 281 281 282 282 283 284 284 284 284 285 286 287 285 284 284 283 284 283 281
283 280 285 284 284 285 285 286 287 289 288 285 285 284 283 283 282 282 283 282 282 276 276 277 279 279 280 281 282 282 283 283 283 282 282 282 283 283 282 280 279 280 281 281

GFSNW_sfc_thetae_063.txt.gz
Theta_e
305 305 304 305 304 306 300 291 281 296 299 283 286 279 287 291 289 292 290 291 289 285 286 285 284 284 287 292 291 286 287 285 281 281 288 290 287 284 283 274 271 274 271 276
303 303 303 303 304 305 296 287 286 295 293 276 280 287 288 290 289 290 292 289 290 291 287 283 286 286 291 292 290 288 288 281 275 281 285 288 287 286 286 282 279 269 270 276
303 303 302 302 303 305 295 288 282 286 286 286 286 285 287 288 293 291 292 290 291 289 288 289 286 286 293 293 292 298 293 284 280 276 279 284 281 285 286 283 277 274 275 278
302 302 302 302 303 304 294 290 283 289 283 283 288 287 287 286 290 294 293 291 291 289 286 287 286 289 290 293 297 291 288 281 283 284 285 286 285 284 284 280 283 277 278 281
302 301 302 301 302 303 296 288 287 290 288 290 289 289 288 290 292 292 289 289 291 291 287 288 286 289 288 287 290 288 288 281 284 281 285 285 283 285 285 285 285 284 284 284
302 301 301 301 302 300 292 295 296 291 289 289 285 290 291 292 294 295 296 294 291 289 290 292 293 293 291 290 288 286 287 283 281 273 282 282 278 282 284 284 285 286 282 287
302 301 301 301 301 301 292 296 295 289 285 288 286 290 292 293 295 293 296 296 291 294 297 295 294 293 292 291 290 291 286 286 285 276 279 271 282 288 288 286 287 290 291 292
302 301 300 300 301 301 292 297 294 290 285 287 287 289 292 293 294 294 294 295 296 297 293 287 286 286 288 289 291 290 291 287 281 276 278 280 284 289 289 287 289 293 291 294
301 301 301 300 300 301 292 296 299 293 287 284 290 290 289 288 287 289 293 297 297 294 288 284 279 277 281 282 286 292 291 290 281 280 277 274 284 291 294 293 286 295 298 299
302 301 302 300 299 300 293 292 299 294 288 290 292 290 291 291 288 287 289 291 292 292 284 280 278 280 285 279 279 283 286 287 283 281 280 280 286 290 294 284 286 296 297 298
302 301 301 301 300 300 294 290 296 294 289 291 292 294 294 295 291 287 290 288 289 288 282 281 281 281 282 281 282 281 283 281 280 282 279 274 288 291 287 294 295 294 294 294
302 302 301 301 301 300 298 290 297 300 291 291 296 296 298 298 301 296 293 290 290 289 287 284 284 283 282 281 279 283 281 284 281 282 281 287 288 293 295 295 293 293 292 293
301 302 301 301 301 300 298 293 291 292 290 292 293 292 300 300 298 301 294 296 296 294 293 289 288 284 284 281 284 281 285 287 283 284 287 288 290 292 292 294 295 294 292 291
301 301 301 301 301 301 299 294 293 292 291 286 292 302 300 305 302 302 301 298 298 297 297 292 291 289 291 285 287 287 288 289 286 284 287 289 291 292 294 296 295 292 291 291
301 300 301 300 301 301 298 293 294 296 290 287 290 295 299 301 300 299 299 299 298 297 294 292 288 290 291 287 288 284 288 287 284 285 290 291 291 296 296 294 294 292 291 291
300 300 300 300 301 301 295 285 293 297 295 288 287 298 298 301 302 301 300 300 299 298 295 294 295 297 293 288 285 291 293 294 291 290 292 293 295 296 293 292 291 291 291 290
300 300 300 301 302 296 286 288 296 299 296 289 287 289 298 300 300 299 299 300 299 298 296 294 294 294 295 291 286 291 292 291 293 295 295 294 293 293 291 291 290 291 289 289
299 299 302 304 302 298 292 297 299 300 293 294 286 289 288 298 294 294 298 294 296 296 294 295 293 294 294 287 290 290 291 291 292 291 293 292 291 289 288 288 288 286 286 286
299 299 301 295 291 289 293 299 302 300 295 289 289 287 282 297 296 296 295 295 290 295 291 292 294 291 287 286 286 288 289 288 289 290 292 294 291 291 288 287 286 286 285 285
299 297 292 288 292 301 301 296 291 290 292 292 289 294 289 294 291 292 293 292 288 285 290 293 289 287 288 287 287 288 288 288 287 287 287 291 290 290 290 287 287 286 285 284
296 292 290 295 301 297 294 288 287 289 287 291 292 293 290 295 290 290 292 286 285 283 286 286 285 284 284 286 285 285 289 290 290 290 289 289 290 292 292 290 287 286 285 284
290 290 294 294 292 290 285 285 288 287 286 292 292 292 293 293 295 290 289 285 285 282 288 285 283 283 284 283 283 284 287 289 288 289 290 289 291 293 294 292 289 288 286 286
295 291 287 288 287 283 284 282 284 285 288 288 288 288 290 293 292 288 287 284 284 288 284 282 282 284 284 283 283 283 287 288 288 288 289 290 293 293 291 289 288 287 286 286
288 285 282 284 283 285 285 283 278 286 287 288 290 287 287 290 287 288 284 285 285 281 280 281 282 282 283 283 284 283 285 286 286 286 287 288 289 290 290 289 288 287 285 285
285 285 280 284 285 286 285 286 287 288 289 289 287 287 287 285 285 286 285 283 278 281 281 281 281 282 282 282 283 283 284 284 284 285 285 286 287 287 287 287 287 286 285 284
285 284 281 282 284 285 285 285 285 288 289 287 286 285 284 284 285 283 282 281 278 279 280 278 278 280 281 281 282 282 283 283 283 283 284 284 284 285 284 285 286 285 283 282
282 282 285 284 283 285 285 287 287 289 288 284 285 283 283 284 282 281 284 283 282 276 275 276 278 279 279 279 281 282 282 282 282 283 282 282 282 283 282 280 279 281 283 283

GFSNW_sfc_thetae_066.txt.gz
Theta_e
304 303 304 303 304 306 299 289 277 294 295 280 285 282 288 290 290 293 291 290 288 286 285 284 284 283 287 291 291 285 286 284 282 284 288 289 287 284 282 274 272 273 270 275
304 303 303 303 304 305 297 287 285 293 291 276 281 287 289 291 291 291 291 288 290 290 286 283 285 285 291 292 290 287 287 281 279 280 284 287 285 285 284 281 279 270 272 276
304 302 302 302 303 305 293 289 281 285 286 288 286 285 286 288 294 292 292 289 291 288 286 287 285 286 291 292 292 297 292 283 279 275 278 283 281 284 284 281 274 275 274 278
304 302 302 302 303 304 294 290 284 289 282 286 288 289 287 287 289 292 293 290 290 288 285 286 286 288 289 292 295 290 288 281 282 283 285 285 284 284 284 280 280 277 278 279
304 302 301 302 302 302 295 288 287 290 288 289 289 291 290 290 291 290 289 288 290 290 286 287 286 287 286 286 289 287 287 281 282 280 284 285 283 285 285 284 284 282 283 283
304 302 301 301 302 300 292 295 296 291 289 288 286 289 291 291 293 295 295 292 289 288 289 291 291 291 290 289 287 285 285 282 280 274 282 282 277 282 284 283 284 285 280 286
303 302 301 301 301 299 292 295 294 289 284 286 286 288 292 292 294 292 294 294 290 293 296 294 294 293 291 290 290 290 285 284 282 276 278 271 281 286 287 286 287 288 290 291
303 302 302 301 300 301 291 296 294 290 285 286 287 288 291 293 294 293 293 294 296 296 292 287 286 286 286 289 291 290 291 286 280 275 274 279 283 287 287 286 289 291 289 292
303 302 302 302 300 300 291 292 298 293 287 285 289 289 289 286 287 289 293 296 297 293 288 285 280 277 281 282 286 291 290 287 280 276 274 273 283 289 293 291 285 294 294 296
302 303 301 301 301 300 292 290 296 293 288 290 291 290 290 291 287 286 288 291 292 291 284 280 278 279 283 278 278 283 284 285 280 279 275 279 285 289 291 282 286 295 294 293
302 302 302 302 301 301 294 291 292 294 289 290 292 293 292 294 292 287 289 287 288 287 282 280 281 281 281 279 280 281 282 280 279 282 277 272 286 288 285 292 294 293 294 293
301 302 301 302 302 301 297 289 294 298 290 290 295 295 297 296 298 296 293 289 288 288 284 283 283 282 282 280 277 281 280 282 280 281 280 286 287 292 294 293 293 293 293 292
301 301 301 301 302 302 299 293 292 292 286 288 292 290 296 299 297 300 293 295 295 294 291 286 286 283 283 281 283 280 284 287 283 284 286 287 289 290 291 291 292 295 294 291
301 301 301 301 301 301 300 292 294 293 288 285 288 301 298 304 299 299 301 296 296 296 296 290 289 287 288 285 285 284 286 287 286 284 288 289 292 293 292 295 294 293 292 291
301 301 300 300 301 301 298 294 295 295 289 285 288 293 297 302 302 301 301 298 297 295 294 291 289 290 290 285 286 283 287 286 284 284 290 289 290 292 295 295 294 292 291 291
299 300 300 300 301 300 293 289 291 296 295 287 285 297 297 300 302 301 300 300 298 298 295 294 294 294 292 287 286 288 291 293 292 289 290 292 292 293 293 292 291 291 291 290
299 299 300 299 300 298 290 285 295 298 296 288 286 289 296 300 300 300 299 300 298 298 296 294 294 294 295 291 286 288 289 291 292 293 293 293 293 290 290 290 290 290 288 288
299 299 299 302 303 299 293 294 299 299 291 291 285 288 289 299 295 294 298 295 296 296 294 294 293 294 294 287 288 288 287 289 289 289 291 290 291 290 289 287 288 287 287 286
300 299 300 296 293 291 290 300 299 298 292 287 288 286 284 297 296 296 295 295 290 295 291 291 293 290 286 287 286 287 286 287 288 289 290 291 292 293 291 287 286 286 286 286
298 297 291 287 289 300 298 296 289 290 291 291 288 293 289 294 293 289 293 292 288 285 290 293 289 288 288 287 287 287 287 288 289 287 286 287 287 289 290 291 289 287 287 286
293 291 288 294 300 295 292 286 286 287 286 290 290 289 289 296 290 290 292 286 285 283 286 286 285 285 285 286 285 286 286 289 289 289 289 290 289 288 290 292 291 287 286 285
288 289 292 293 291 288 284 284 287 286 284 291 291 292 292 293 295 290 289 285 285 280 288 285 283 283 284 283 282 283 284 288 288 289 288 289 290 289 290 293 292 288 287 286
294 290 286 287 286 282 283 280 283 285 288 288 288 288 291 292 293 288 286 284 283 288 284 282 282 283 284 283 283 283 284 288 287 287 288 288 289 293 291 289 288 287 286 286
288 285 282 283 283 284 285 283 283 286 287 288 290 288 287 290 288 288 284 286 285 279 276 277 282 282 282 283 283 284 284 285 286 286 286 286 287 289 290 289 288 287 286 286
285 284 280 282 286 286 285 286 287 288 289 289 287 286 287 286 285 286 285 283 277 280 279 281 281 282 282 282 282 282 283 283 284 284 284 284 285 286 286 287 287 287 286 285
285 284 282 283 284 285 285 285 285 288 289 288 286 284 283 283 285 283 282 280 276 279 279 278 278 281 281 281 281 282 282 282 282 283 283 283 283 283 284 285 286 286 284 283
282 282 285 284 283 284 285 287 287 289 288 281 285 281 280 283 282 281 283 282 282 281 275 276 278 279 279 279 280 281 281 281 281 282 282 282 282 283 282 280 281 281 284 283

GFSNW_sfc_thetae_069.txt.gz
Theta_e
305 304 303 304 304 306 298 287 278 292 294 283 282 283 287 291 291 293 291 290 288 285 285 283 283 284 287 292 291 285 287 285 282 284 289 290 287 285 283 276 274 274 274 278
305 304 303 303 304 305 295 288 286 292 291 282 283 286 288 292 291 291 290 288 290 288 285 283 284 286 291 292 290 287 287 282 279 280 284 288 286 286 284 282 280 274 275 279
305 304 303 302 303 304 292 284 278 285 289 289 287 286 287 288 293 291 291 289 290 287 285 288 284 286 291 292 293 296 291 283 280 277 280 284 282 284 284 283 278 277 277 280
305 304 303 302 303 303 293 286 280 289 283 287 288 289 289 288 287 291 292 289 289 287 284 285 285 287 288 292 293 290 288 281 283 284 285 285 284 284 284 281 282 280 280 281
305 303 302 302 302 302 291 289 288 290 288 289 289 290 290 290 290 289 288 287 289 289 286 286 285 287 286 285 289 287 287 282 283 281 284 285 283 285 285 284 284 282 283 283
304 303 303 302 301 299 287 294 295 291 288 287 287 287 289 291 294 295 293 291 288 287 288 290 290 291 290 289 287 285 285 282 281 276 282 282 278 283 284 284 285 286 282 287
304 303 302 302 301 298 290 294 293 288 284 286 285 288 291 292 293 292 293 293 290 292 295 294 293 292 291 291 290 289 285 284 283 278 279 272 282 287 288 287 287 288 290 291
303 303 302 302 301 300 291 292 293 289 284 286 287 287 290 292 294 291 291 293 294 295 291 287 285 284 285 289 291 290 290 285 281 277 276 279 284 287 286 286 290 291 289 291
302 303 303 301 302 300 292 289 293 291 286 285 289 288 290 287 286 288 291 294 295 293 288 285 280 277 281 282 286 291 290 286 281 278 275 274 284 290 293 293 287 295 292 295
302 302 302 302 302 301 294 290 293 288 288 289 290 288 288 294 287 286 288 291 291 290 284 281 278 279 282 278 278 282 283 284 279 279 276 279 285 289 292 283 287 295 293 293
302 302 302 302 302 302 293 291 292 290 288 289 291 293 290 292 294 289 289 287 288 286 282 280 281 281 280 278 280 280 280 280 280 282 277 273 287 289 287 291 294 295 294 294
302 301 301 301 302 302 297 291 293 296 288 287 292 293 295 295 295 293 292 288 288 288 284 283 283 282 281 279 277 281 279 282 280 280 280 286 287 292 295 293 292 293 294 295
301 301 301 301 301 302 300 294 293 290 287 285 287 288 294 297 295 299 291 292 293 293 292 286 284 283 283 281 282 280 283 286 283 283 286 287 289 291 290 291 291 293 295 294
301 301 301 301 300 301 300 294 293 292 287 282 287 299 295 301 298 297 297 297 298 295 295 289 288 287 286 284 284 283 285 286 284 283 287 289 290 292 296 295 294 294 293 292
301 301 300 300 300 301 298 294 295 295 287 284 285 291 296 299 298 296 297 299 297 296 293 291 289 291 290 284 284 282 286 285 284 284 289 288 290 291 294 294 294 293 292 292
300 300 299 300 300 300 294 289 293 294 294 287 282 295 295 300 301 300 300 299 298 297 295 293 294 294 291 283 286 287 288 290 291 288 290 291 292 292 291 290 291 292 291 291
300 299 299 299 300 298 289 287 294 297 296 287 284 287 294 300 300 300 299 300 298 297 296 294 293 293 294 290 285 288 288 287 290 292 292 293 293 290 291 289 290 290 289 290
300 300 300 300 301 300 293 296 299 298 291 289 283 287 290 299 295 294 298 294 296 295 293 294 292 294 293 287 290 286 286 287 287 288 289 289 290 289 290 289 288 288 287 287
300 300 300 298 292 290 290 300 300 297 290 285 286 285 281 297 294 295 295 295 290 295 291 291 292 290 286 289 287 287 287 287 287 287 288 290 290 290 291 291 289 287 287 287
298 298 292 287 289 299 297 293 289 288 289 289 286 292 288 294 294 292 292 292 289 285 289 293 288 288 288 287 287 287 286 287 289 287 287 287 287 287 289 289 290 291 289 287
289 289 288 292 298 293 289 285 284 286 285 289 290 288 289 294 290 289 292 286 286 283 286 286 285 285 286 286 285 285 285 286 288 289 288 287 287 287 288 288 290 292 290 287
288 288 291 291 290 286 283 283 286 285 284 290 289 289 289 292 295 290 289 285 284 281 289 285 282 284 284 283 282 282 282 286 287 288 288 288 288 289 290 289 290 292 290 288
292 289 285 286 286 281 281 280 284 284 288 288 288 288 292 292 293 287 286 283 283 288 283 281 281 281 283 282 283 283 286 286 286 286 287 287 288 290 290 289 287 288 287 286
287 285 281 282 282 284 285 283 284 286 287 288 290 288 288 290 288 288 284 286 285 280 276 279 280 281 281 283 284 283 283 284 284 284 285 286 286 286 288 288 288 287 286 286
285 285 279 282 285 286 285 286 286 288 289 289 286 286 287 286 285 285 285 283 278 280 280 282 281 281 282 282 283 283 282 283 283 283 283 283 284 285 285 286 287 287 286 286
284 284 282 283 283 284 285 285 285 288 290 288 286 284 284 283 285 283 282 280 278 280 281 280 281 282 281 281 282 282 282 281 282 283 283 283 282 282 283 284 284 284 284 284
278 278 284 284 283 283 285 286 286 288 288 285 284 281 278 282 280 281 281 278 279 280 278 278 279 279 279 279 280 280 279 279 280 282 282 282 282 282 281 280 280 281 282 284

GFSNW_sfc_thetae_072.txt.gz
Theta_e
306 306 305 304 304 305 302 295 291 300 301 292 291 288 288 292 292 295 292 292 291 289 289 289 289 288 291 295 294 290 292 291 285 286 291 293 291 289 288 286 281 282 283 284
306 305 304 304 304 304 299 290 291 301 301 285 286 289 290 292 293 293 292 291 293 293 289 287 290 290 294 295 294 291 292 288 282 283 288 291 288 289 288 287 286 282 283 283
306 305 304 303 303 304 301 293 287 294 295 291 288 287 289 290 296 294 294 293 294 292 290 292 289 290 294 296 295 296 295 287 285 283 284 289 286 288 289 288 285 284 285 286
305 305 304 303 303 303 301 294 287 290 286 288 288 291 291 290 290 295 296 293 292 291 288 289 288 290 292 295 295 294 293 286 288 288 288 288 287 287 287 286 287 285 286 287
304 305 303 303 302 302 297 289 287 290 288 290 290 290 289 290 292 293 292 291 292 293 290 290 288 290 290 290 293 292 292 286 288 284 287 287 285 287 288 288 288 287 288 288
304 305 303 303 302 300 294 295 295 291 289 289 288 286 288 291 295 295 295 293 293 291 291 293 294 295 294 294 291 289 289 288 286 281 285 285 282 286 288 288 289 289 285 291
303 303 304 302 302 299 297 295 293 288 285 288 286 288 289 291 294 293 295 296 293 295 299 298 298 297 295 295 293 293 289 288 288 283 284 277 285 290 291 290 291 292 292 293
303 303 303 303 302 301 298 297 293 289 283 287 288 288 289 293 295 294 295 297 298 300 296 292 288 289 290 291 293 292 293 290 285 282 282 283 288 289 288 289 291 294 293 295
302 302 303 303 302 302 298 296 298 292 286 288 289 287 289 289 292 294 295 299 300 298 294 290 284 283 284 284 287 294 292 291 288 284 279 277 289 294 297 295 288 296 295 297
303 302 302 303 302 302 299 297 297 293 286 291 291 288 287 292 292 292 294 295 295 296 292 287 285 284 287 283 283 284 286 287 284 284 282 284 290 291 295 286 290 298 298 298
302 302 302 302 302 302 299 297 297 294 288 289 291 292 290 290 293 289 294 293 293 293 289 287 287 287 287 285 286 285 284 283 282 283 281 279 292 293 290 295 297 297 299 298
302 302 301 301 302 301 300 294 297 299 291 289 294 294 295 295 294 291 293 293 293 294 291 290 290 288 287 286 284 288 285 288 287 287 287 291 293 295 298 297 296 296 296 298
302 301 301 301 301 301 300 296 297 294 289 289 288 289 294 295 294 297 290 297 297 296 296 293 291 287 291 286 287 288 290 291 289 288 291 293 295 297 297 297 297 297 298 298
302 302 301 301 300 300 300 296 298 295 290 282 286 298 295 301 300 296 296 297 300 299 298 294 292 289 292 289 289 289 292 291 290 290 293 295 295 295 298 299 300 299 298 297
301 301 301 300 299 300 301 299 298 298 289 283 285 291 295 297 299 296 295 295 295 297 295 294 292 294 292 292 292 290 292 292 290 289 293 294 295 297 297 297 297 297 296 296
300 300 300 299 299 300 296 289 296 298 295 287 281 293 294 299 300 297 297 296 297 299 297 296 297 297 294 289 288 293 294 295 295 294 295 296 297 297 296 295 295 296 295 295
300 301 301 300 300 298 289 288 295 298 297 287 283 286 295 299 300 300 299 301 299 299 297 295 296 296 296 292 286 293 295 296 294 295 294 294 294 293 294 295 295 294 294 294
301 301 301 300 300 299 293 297 299 299 291 289 282 285 291 300 295 295 301 296 297 297 295 295 293 295 294 287 293 292 292 292 292 292 292 292 293 293 295 296 294 293 294 294
301 300 300 299 295 292 292 299 300 299 291 284 285 285 286 298 295 297 296 298 290 297 292 292 293 290 287 291 293 292 289 289 289 290 291 292 292 292 292 292 292 292 294 294
297 298 292 288 291 298 298 292 288 287 288 287 284 291 288 294 294 293 293 293 290 285 290 294 289 288 290 289 288 288 287 288 289 288 288 289 288 289 290 290 292 292 293 294
291 287 288 292 296 293 288 285 284 285 284 287 288 290 289 295 289 289 293 287 287 284 287 288 286 286 287 287 287 287 286 286 289 289 289 290 290 289 290 291 292 293 294 294
292 291 293 291 288 286 283 283 285 284 284 290 289 290 292 293 296 291 290 286 286 282 289 285 283 286 285 285 285 285 286 288 288 289 288 289 289 289 289 291 292 291 292 293
293 289 285 286 286 281 281 280 284 284 288 288 289 288 292 293 294 288 287 284 284 289 285 283 285 284 284 285 286 286 287 287 287 286 287 287 287 289 289 288 289 289 289 289
287 285 281 283 282 284 286 285 285 286 286 287 290 288 289 291 287 288 284 287 286 283 281 282 285 285 284 285 285 286 284 285 285 285 285 285 285 286 287 287 288 288 288 287
283 284 280 282 285 286 285 286 286 287 287 289 289 288 289 286 285 286 285 284 282 282 283 286 285 284 285 284 284 284 283 283 284 284 284 284 284 284 285 286 286 286 286 286
284 283 281 285 283 284 285 285 285 286 286 289 288 285 285 285 286 284 284 282 281 284 286 284 284 284 283 283 283 282 282 282 283 284 284 284 283 283 283 284 283 283 284 283
278 280 284 284 284 283 285 286 286 287 286 285 286 283 282 285 283 282 285 284 286 285 282 283 284 283 281 281 281 280 281 281 281 282 282 283 284 284 283 282 282 282 282 282

GFSNW_sfc_thetae_075.txt.gz
Theta_e
306 306 305 305 305 305 303 298 294 304 306 294 293 289 290 292 293 296 294 294 293 291 292 291 290 290 292 296 296 291 295 292 285 287 293 296 294 291 290 287 284 285 285 284
305 306 305 305 304 304 300 294 295 305 305 286 287 293 293 294 294 295 294 293 295 295 292 289 292 292 296 297 295 293 294 290 283 284 289 292 290 291 291 289 289 285 285 284
305 306 305 304 304 303 302 294 286 296 299 293 289 288 290 292 298 296 296 295 296 294 292 294 291 291 295 297 295 297 297 290 288 284 287 291 287 289 290 289 287 285 287 286
305 305 304 304 304 303 301 294 288 290 287 290 291 291 291 291 292 297 297 294 294 292 289 291 290 292 293 296 297 296 295 288 289 289 290 290 289 289 289 286 289 286 287 288
305 304 305 304 303 303 297 290 288 290 288 292 291 290 290 289 293 294 293 292 294 295 291 292 289 292 293 292 295 294 295 288 289 286 289 289 287 289 290 289 290 289 288 289
304 304 304 303 303 301 294 294 296 291 290 291 289 287 287 289 295 296 297 295 295 293 293 296 297 297 297 296 294 292 292 289 287 283 287 286 284 288 289 290 291 291 286 292
304 304 303 304 303 301 297 295 294 289 285 288 288 288 289 291 294 294 297 298 295 297 301 300 300 298 297 296 295 295 291 290 289 285 285 279 287 292 292 291 292 293 293 294
303 303 303 303 303 303 299 297 293 289 284 288 289 288 289 292 296 295 296 298 300 302 298 293 290 290 290 292 294 294 295 291 287 284 283 285 288 290 290 290 291 296 294 296
303 303 303 303 303 303 300 299 299 292 285 287 289 288 289 289 291 294 296 301 303 300 296 292 285 284 286 285 288 295 293 293 289 285 281 278 290 295 298 297 288 296 298 298
303 303 302 302 302 303 301 299 299 293 287 290 291 288 288 291 291 291 296 297 297 299 293 289 287 286 289 284 284 286 287 288 286 285 283 285 293 293 296 287 289 299 299 300
302 302 302 302 302 302 300 298 301 294 288 289 291 291 289 290 292 289 292 295 295 296 290 289 288 287 289 287 288 287 286 285 285 285 283 280 294 295 291 296 299 299 300 301
302 302 301 302 302 302 300 296 300 299 291 290 295 294 295 294 294 291 292 292 295 296 293 293 292 289 290 288 285 291 286 290 288 288 288 293 295 295 298 298 297 298 298 300
302 302 302 302 301 300 300 297 299 296 290 291 291 290 296 297 295 298 289 297 299 298 299 295 293 288 292 287 288 289 292 293 290 290 293 294 296 299 300 300 300 299 299 299
301 301 302 302 301 300 299 297 299 296 291 284 287 296 295 300 300 296 294 297 297 299 300 296 293 290 294 290 291 290 293 293 292 292 295 296 297 298 299 300 301 301 301 299
302 301 301 301 301 299 300 299 299 299 291 284 286 292 295 297 295 299 297 293 294 294 295 295 292 296 293 294 293 290 294 292 290 290 295 296 297 299 299 299 299 299 298 298
302 301 301 301 301 300 296 289 299 299 297 288 282 292 292 299 299 298 297 294 294 296 297 295 297 299 295 290 288 294 296 297 298 295 298 298 299 300 298 296 298 298 298 298
301 301 301 302 302 300 292 289 295 298 297 287 283 285 294 296 299 298 297 298 297 298 297 296 296 296 296 292 287 294 296 297 298 298 297 297 296 295 295 297 298 298 297 297
301 301 302 301 300 299 293 298 298 299 291 289 281 284 289 299 294 294 300 296 297 297 295 296 294 296 294 288 293 296 296 296 295 295 295 295 295 295 295 296 296 295 296 297
301 301 299 300 296 292 294 298 299 299 291 285 285 283 285 298 295 297 296 298 290 296 292 293 295 292 287 291 294 295 294 291 291 291 291 292 293 294 294 294 293 293 294 296
299 298 294 288 292 298 298 293 288 288 288 288 283 288 284 293 293 292 292 293 290 286 290 295 289 289 295 291 290 290 289 289 289 289 290 290 290 291 291 292 293 293 293 294
295 289 288 293 296 293 289 285 284 285 283 285 286 287 287 295 289 289 294 287 288 284 288 288 287 287 289 289 288 288 288 288 289 290 290 290 290 290 291 291 293 293 295 295
294 293 295 292 288 286 283 283 285 284 282 289 287 290 291 293 296 290 289 287 286 283 290 286 283 287 287 287 286 287 288 289 289 290 289 289 289 290 290 290 291 291 290 292
295 290 285 286 286 281 281 280 283 284 286 287 288 288 293 293 294 289 287 285 284 290 285 283 286 287 287 287 288 287 288 288 288 287 288 287 287 288 288 288 289 289 289 290
286 284 280 282 282 284 285 284 284 287 285 286 287 286 289 290 287 287 284 287 286 283 282 283 286 286 286 287 286 287 285 285 285 286 286 286 285 286 287 287 287 287 287 288
283 284 278 282 287 287 287 287 286 287 286 285 286 286 288 285 285 286 286 284 282 284 284 286 287 286 287 286 286 285 285 285 285 285 285 285 285 285 286 286 285 285 285 286
284 283 280 285 284 286 286 286 285 288 286 286 286 285 285 285 286 284 284 283 283 286 287 286 286 286 286 286 285 284 283 283 284 284 284 285 285 285 285 286 285 284 283 283
280 282 285 283 283 283 285 286 285 288 286 284 285 284 283 286 284 283 287 285 288 288 285 286 286 285 284 283 282 282 282 282 282 282 282 282 284 285 284 283 284 284 284 283

GFSNW_sfc_thetae_078.txt.gz
Theta_e
306 306 306 306 305 306 303 298 292 305 307 291 292 288 291 294 294 296 294 294 293 290 291 290 289 287 290 296 295 291 294 290 284 286 293 294 293 289 289 284 281 282 281 279
306 305 306 305 305 304 299 293 294 306 303 285 286 290 292 295 294 294 294 293 294 294 291 288 291 291 296 297 294 290 293 287 282 283 288 292 290 292 291 289 287 283 280 278
306 305 305 305 305 305 301 294 285 293 298 294 289 288 289 291 298 296 296 295 296 293 291 293 290 291 295 296 295 297 296 289 285 281 285 288 285 289 290 288 283 283 282 283
306 305 305 304 305 306 300 293 288 289 285 289 289 291 291 288 290 296 297 294 293 292 288 290 289 291 293 295 298 294 293 285 287 288 289 290 288 288 288 282 287 282 284 285
305 304 304 304 305 305 295 288 287 290 288 290 290 289 288 287 291 293 292 292 294 293 289 290 288 291 291 290 292 290 292 284 286 284 288 288 286 288 288 288 288 286 286 286
304 304 304 304 304 303 293 293 294 290 288 289 288 287 288 288 292 296 297 295 294 291 292 295 295 294 293 292 291 289 289 285 284 277 286 285 278 286 288 288 289 288 283 288
304 304 304 303 304 302 297 294 293 288 282 286 287 288 289 290 291 292 296 297 294 296 300 299 297 294 294 293 291 293 288 286 286 278 281 273 284 290 291 289 290 290 292 293
304 304 303 303 303 303 298 297 292 288 281 284 287 286 288 290 294 295 295 297 298 300 296 292 288 287 289 290 292 291 291 288 282 277 277 281 285 288 288 287 289 293 291 293
304 303 303 303 303 303 299 297 297 290 284 285 288 286 289 287 288 292 296 300 301 298 293 289 283 281 283 282 287 291 291 289 283 279 277 276 288 291 295 294 286 294 295 295
303 303 302 302 302 303 300 298 299 292 285 288 288 284 284 290 288 288 294 293 295 297 290 286 283 283 286 282 281 284 284 284 280 281 278 282 290 291 293 284 287 296 298 297
303 303 302 302 302 302 300 296 300 293 288 287 290 291 287 288 287 287 291 292 294 292 287 285 284 284 284 283 284 283 283 281 280 282 278 275 292 292 288 295 298 299 297 298
303 302 302 302 302 302 300 293 300 299 290 288 293 292 293 292 292 289 291 290 293 294 290 289 287 285 285 284 282 286 282 285 283 284 283 290 292 292 294 295 294 295 294 296
302 302 302 302 302 302 299 295 296 295 290 288 289 289 294 297 295 296 288 295 297 297 297 291 290 285 287 283 284 285 287 290 285 287 289 290 293 296 297 297 296 296 296 296
302 302 302 301 302 302 299 294 296 295 291 283 284 294 291 297 297 294 294 293 295 295 298 292 292 289 290 286 287 286 288 289 288 288 290 292 294 295 296 297 298 298 297 296
302 303 302 302 301 302 299 297 297 298 290 283 284 290 293 295 293 294 294 291 289 292 292 292 289 293 290 290 289 285 289 287 285 285 291 291 292 295 296 296 295 296 295 295
302 302 302 301 302 302 295 289 297 298 297 287 281 290 289 292 294 291 295 295 292 294 293 293 294 297 292 285 286 290 292 293 293 291 294 295 295 296 294 294 294 295 294 294
302 301 302 302 302 298 291 288 295 298 297 287 281 282 292 294 296 297 297 295 295 295 295 292 293 294 294 289 284 290 292 293 295 295 294 293 292 291 292 294 295 296 294 294
301 302 302 300 300 299 294 297 300 298 292 289 280 280 286 296 293 292 298 294 295 296 294 295 292 293 293 286 290 291 292 293 293 292 292 291 293 292 294 293 294 293 292 293
302 301 299 298 296 292 293 299 298 298 290 284 283 280 280 291 294 294 295 296 288 295 291 292 292 290 286 289 290 292 291 289 289 291 291 292 292 292 291 291 290 289 290 291
300 296 293 288 292 298 298 293 288 287 288 287 281 286 282 288 292 290 290 292 289 285 289 292 286 287 291 288 287 287 287 287 289 289 289 290 289 289 290 290 290 290 290 291
294 289 286 292 297 291 289 284 283 284 282 284 285 285 283 292 286 288 293 287 287 283 286 286 284 284 288 288 286 287 288 288 289 289 289 290 290 289 289 290 290 290 292 292
292 291 293 292 287 285 282 282 285 283 281 287 286 288 288 290 295 289 289 285 286 282 290 285 281 284 286 286 286 287 287 289 288 289 288 288 288 289 288 289 289 289 289 290
293 289 286 285 284 278 279 279 282 282 285 285 285 284 289 291 292 287 287 284 283 289 284 281 283 284 285 285 286 286 287 288 287 287 287 287 287 287 288 287 287 288 288 289
285 279 272 281 281 282 283 283 283 286 285 285 285 284 285 290 287 286 284 286 286 280 280 279 282 286 285 286 286 286 285 285 285 285 286 286 286 286 287 286 286 286 285 286
279 280 270 278 285 285 286 285 285 287 287 285 284 284 286 285 284 285 285 283 280 281 281 285 285 285 286 285 285 285 284 283 282 284 284 283 283 284 284 285 285 285 284 284
283 282 276 281 278 278 278 283 283 287 285 286 285 284 284 284 284 283 283 280 279 283 285 285 285 285 285 285 284 283 283 282 282 282 282 283 283 283 282 283 282 282 282 282
280 279 283 281 281 281 283 285 285 287 285 282 283 282 281 284 283 282 284 284 285 284 283 284 284 284 284 283 282 281 281 280 279 280 280 279 281 283 281 279 280 281 281 280

GFSNW_sfc_thetae_081.txt.gz
Theta_e
307 306 306 306 306 307 300 290 283 299 301 286 290 286 290 294 293 297 294 292 291 289 289 288 286 287 290 296 296 290 291 288 282 286 292 294 291 287 286 277 276 275 279 278
307 306 305 306 306 306 295 288 287 298 295 283 286 290 290 294 293 294 294 292 293 294 289 286 289 289 295 295 293 291 293 285 279 282 288 292 290 289 290 286 282 273 274 281
306 305 305 306 306 307 295 288 282 286 290 291 289 288 287 289 296 295 296 294 293 292 289 290 288 289 293 296 294 299 297 289 284 277 282 289 286 288 289 285 277 280 279 282
306 305 305 305 306 307 293 286 285 288 283 283 287 289 289 287 289 295 295 292 292 289 286 287 287 290 290 294 296 293 291 284 287 288 289 289 288 288 288 281 285 282 284 286
305 305 304 305 305 305 288 282 282 288 286 289 289 287 286 287 289 291 291 290 292 290 287 288 286 288 288 287 291 289 290 284 284 283 288 288 286 288 288 289 288 287 286 286
305 305 304 304 304 301 287 288 288 288 285 285 286 284 287 286 289 293 296 293 293 289 291 293 293 292 291 289 288 287 286 284 282 275 285 284 279 285 286 287 289 287 282 287
305 304 304 304 303 302 292 289 287 283 278 281 281 286 286 288 289 289 295 295 293 294 298 296 294 292 291 291 290 290 285 285 284 276 279 271 283 288 290 288 289 289 290 291
305 304 303 303 303 303 293 293 287 284 279 281 283 284 286 289 291 292 294 296 296 297 294 288 286 285 286 288 290 289 288 285 280 277 275 280 283 287 287 286 286 291 290 292
304 303 303 303 303 303 294 292 295 286 282 280 285 282 287 285 286 288 294 299 297 296 291 287 281 277 281 280 283 290 290 287 281 277 276 275 287 289 293 293 284 293 292 293
304 303 303 302 303 303 296 292 295 288 282 284 285 280 282 288 287 284 290 290 292 294 287 282 279 281 284 279 280 283 282 283 278 279 276 280 289 289 294 283 284 295 296 296
303 303 303 302 303 302 296 292 295 292 286 285 287 290 285 285 285 283 288 289 292 290 286 283 282 282 282 281 283 281 282 278 278 281 278 274 290 291 288 294 297 298 297 297
303 303 303 303 303 303 300 288 294 295 290 285 290 291 292 290 289 287 288 288 289 293 289 287 284 284 283 281 280 285 281 284 282 283 283 289 291 291 293 294 294 293 293 295
303 302 302 303 302 302 300 290 291 290 288 286 284 285 292 295 293 294 285 292 294 292 295 289 286 283 284 281 283 282 286 288 284 286 287 288 292 294 295 296 295 295 295 295
302 302 303 303 302 302 302 289 291 292 290 283 282 291 289 293 294 294 293 292 292 293 294 292 286 286 288 284 285 284 286 287 286 286 288 291 293 293 294 295 296 295 295 294
302 303 303 303 302 302 300 294 293 295 289 282 284 288 290 291 291 291 292 290 289 288 290 291 287 289 289 288 287 283 287 286 285 284 290 289 290 292 294 294 294 294 294 293
302 302 302 302 302 302 295 285 294 295 296 287 279 286 287 289 290 289 290 291 291 291 292 292 293 294 291 283 282 288 289 291 292 290 292 294 293 292 292 292 293 293 292 292
302 302 302 302 302 296 287 284 292 298 295 287 280 279 287 293 292 288 289 295 293 293 293 291 291 292 294 288 281 288 290 292 293 293 294 291 291 290 291 292 293 294 292 293
302 302 302 301 300 299 293 295 299 298 291 288 280 278 282 293 291 290 296 291 293 294 293 294 291 294 293 286 288 289 291 291 291 290 291 291 291 291 292 292 292 292 292 292
302 301 300 294 293 291 292 299 298 298 290 282 281 275 277 291 288 292 293 295 288 294 290 291 292 287 285 287 289 289 289 288 288 289 290 292 292 292 291 290 289 287 288 289
300 293 288 284 288 297 296 293 288 287 288 287 281 285 280 285 287 288 291 292 288 284 289 293 289 288 290 286 285 285 287 288 288 286 287 289 288 289 289 290 290 288 288 289
289 284 283 288 295 287 288 283 282 283 281 284 284 285 282 289 284 286 291 286 287 282 284 285 284 284 284 285 284 286 288 288 289 289 288 288 289 288 288 289 289 290 290 290
290 289 290 290 287 282 280 275 282 281 280 287 284 286 287 288 291 286 288 285 285 281 289 285 281 283 283 284 286 286 287 287 287 288 286 287 288 287 287 288 288 288 288 289
292 287 284 285 284 276 271 268 274 275 283 285 285 283 287 290 291 287 285 283 282 288 284 282 282 281 283 283 284 285 286 287 286 286 286 286 286 287 287 286 286 286 287 288
280 277 268 274 269 276 278 278 279 281 285 285 285 283 284 288 285 286 283 286 286 281 278 279 281 283 284 284 286 286 285 285 285 285 285 285 285 285 286 286 285 284 284 285
274 276 267 268 277 276 283 285 284 285 285 285 282 283 284 284 284 285 284 282 280 281 281 285 285 285 286 285 285 285 284 283 283 283 282 283 284 284 280 284 282 282 282 283
274 278 275 275 271 270 271 272 281 286 285 283 284 281 283 284 284 283 282 279 277 283 285 285 285 285 285 285 283 282 283 282 281 281 280 280 279 279 278 279 278 278 277 277
279 278 281 275 275 275 273 276 278 287 281 278 280 280 280 283 282 281 284 283 284 283 282 284 284 285 284 283 283 282 281 280 279 279 278 278 278 279 277 276 278 278 278 276

GFSNW_sfc_thetae_084.txt.gz
Theta_e
307 306 306 306 306 308 298 289 282 297 298 284 289 286 289 294 291 295 292 291 290 289 290 288 287 287 289 288 291 284 287 286 282 285 292 293 292 287 287 278 279 273 274 277
307 306 305 306 306 306 293 286 285 295 294 282 286 289 290 293 293 294 293 290 293 294 288 286 288 289 295 296 294 290 291 285 279 282 288 291 289 289 288 285 280 271 273 278
306 305 305 305 306 306 293 285 278 284 288 292 287 286 287 287 295 295 295 293 292 290 288 290 287 288 293 295 295 299 295 286 279 276 281 287 286 287 287 283 274 276 277 280
306 305 305 305 306 305 291 283 284 285 281 283 286 288 286 286 287 293 293 291 291 288 285 286 286 288 290 293 295 294 291 283 284 286 287 288 287 287 286 277 283 279 281 283
306 305 304 304 305 302 287 280 279 283 282 287 287 286 285 285 287 289 290 290 291 289 286 286 285 288 287 286 290 288 289 284 285 282 287 287 284 288 287 286 287 285 284 284
306 305 304 304 304 299 286 286 286 286 283 280 281 283 284 284 288 291 294 293 292 288 290 292 292 292 291 289 287 286 285 284 282 278 285 285 282 286 287 287 289 288 283 287
305 304 304 303 303 300 289 288 285 279 277 279 280 282 284 285 287 288 292 295 291 293 296 295 292 291 290 289 289 289 285 284 282 277 279 273 283 288 290 288 288 289 289 289
305 304 303 303 303 303 292 291 286 281 276 279 281 281 282 285 288 289 291 296 294 295 292 288 285 286 285 286 288 288 287 284 280 276 275 280 283 286 287 286 286 290 290 291
304 303 303 302 303 303 293 290 291 286 282 278 282 280 281 282 284 283 291 294 294 294 289 285 280 276 280 280 283 288 288 285 280 277 275 274 284 288 291 292 282 291 291 292
303 303 303 302 303 303 294 291 293 291 283 282 283 278 279 285 285 282 286 288 288 292 285 281 278 280 283 278 278 281 281 281 276 278 275 279 288 289 293 284 282 291 294 294
303 303 303 302 303 303 294 290 293 288 285 284 286 287 283 284 283 280 285 285 291 289 284 282 281 280 281 280 281 279 280 278 277 279 276 273 289 290 288 290 293 297 295 295
303 303 302 302 303 302 297 287 293 294 286 285 289 290 291 289 288 285 285 287 286 292 289 286 282 282 281 280 279 284 281 283 281 282 282 288 289 290 291 293 295 294 295 295
302 302 302 303 303 303 301 293 292 289 287 285 283 284 289 292 291 293 283 288 291 289 291 291 286 282 283 279 282 280 283 286 283 285 286 287 292 293 294 295 294 294 294 294
301 302 303 303 302 302 301 295 294 293 289 281 282 290 288 292 292 292 291 289 293 291 290 292 286 284 286 283 284 283 285 287 286 285 288 290 291 292 293 294 294 294 294 293
301 302 302 302 302 303 300 297 293 294 288 281 284 287 289 290 289 289 290 289 289 288 286 290 289 287 288 286 286 284 287 286 285 284 289 289 290 292 294 293 293 293 293 292
302 301 301 302 302 302 294 284 293 296 296 286 278 285 286 290 289 287 287 289 287 289 288 291 293 293 291 283 281 288 289 290 291 290 292 292 292 292 292 292 292 293 291 291
302 301 302 302 301 297 290 283 292 298 295 286 279 280 285 291 291 286 288 289 291 290 290 290 289 291 294 288 281 288 290 291 292 293 293 291 290 290 291 292 292 292 291 291
302 302 301 300 299 299 293 296 299 298 291 287 279 277 280 292 288 286 290 289 292 292 292 293 292 293 293 287 287 289 290 290 290 290 291 291 291 291 290 290 291 290 291 291
301 300 299 293 292 289 292 298 299 297 290 281 282 278 275 289 287 289 292 293 287 291 289 290 291 287 285 288 287 288 288 288 288 288 290 290 290 290 291 290 290 288 287 290
298 291 286 282 288 297 296 293 287 287 287 287 280 284 280 286 287 287 288 291 288 284 289 293 288 287 288 285 284 285 286 289 289 287 287 287 288 288 289 289 289 289 289 288
287 283 283 287 294 286 288 283 281 281 278 283 281 284 281 288 283 284 290 286 286 282 283 286 282 282 282 283 283 285 288 289 289 289 289 288 288 288 288 288 289 289 289 288
289 287 289 289 287 284 279 274 281 280 274 286 283 284 286 287 290 285 287 285 285 280 289 284 280 282 282 283 285 286 287 287 286 287 286 287 287 287 287 288 287 287 287 288
288 286 284 283 279 274 269 271 270 270 279 284 283 280 285 287 289 286 285 283 282 288 283 281 282 281 282 282 284 285 286 287 286 286 287 286 286 287 286 285 285 285 285 286
280 274 268 272 270 277 279 276 280 281 282 283 283 281 282 286 284 286 283 286 285 280 278 279 277 281 284 284 284 286 285 285 285 284 285 285 285 285 285 284 284 283 283 284
273 275 267 267 275 278 283 284 280 280 285 283 281 282 283 282 282 284 284 282 279 281 280 284 286 286 285 285 286 285 284 283 282 283 282 282 282 282 279 283 279 279 280 280
273 274 275 273 269 269 269 267 271 278 283 281 282 280 280 282 283 282 282 280 277 282 284 285 285 285 285 285 285 283 283 282 281 281 280 279 278 278 276 275 275 275 275 275
279 278 281 278 276 277 271 273 276 284 280 277 278 277 279 280 280 281 284 281 283 283 282 283 284 285 284 283 283 283 281 280 278 278 278 277 277 277 276 275 276 275 276 274

GFSNW_sfc_thetae_087.txt.gz
Theta_e
307 307 306 306 306 306 297 288 282 295 297 283 289 286 289 293 293 295 293 292 290 288 289 287 281 282 284 289 289 282 286 282 273 283 290 292 290 287 285 276 275 272 272 277
307 306 306 306 306 305 291 285 283 293 293 281 285 289 289 292 292 292 293 291 292 293 288 285 288 289 291 290 288 284 286 279 272 281 287 291 287 289 289 284 280 272 273 278
307 306 305 305 305 304 290 283 276 282 287 291 287 286 285 286 294 293 292 293 292 289 287 288 287 288 291 289 289 292 290 287 280 276 281 287 285 287 287 285 273 275 275 279
306 305 305 305 304 303 288 282 282 282 279 281 285 287 286 284 286 291 292 291 290 287 283 285 285 289 290 294 297 295 290 285 284 286 288 288 287 287 286 281 284 278 281 282
306 305 304 304 304 300 286 280 278 282 279 282 284 284 283 283 284 287 289 289 290 290 284 286 285 287 287 286 290 289 290 284 283 281 287 287 285 288 287 285 285 284 283 282
305 304 304 304 304 297 285 285 285 285 280 278 277 278 282 282 286 289 292 290 290 289 289 291 292 291 291 290 286 286 286 284 280 274 285 286 282 285 285 285 287 286 281 285
305 303 303 304 304 298 289 286 284 279 276 278 279 280 282 283 284 285 290 292 292 292 294 293 291 289 289 288 287 287 284 283 282 277 281 272 281 287 290 288 288 289 288 288
304 303 302 303 303 302 290 289 285 281 277 279 280 280 280 282 286 285 287 293 295 294 290 287 286 286 284 285 287 287 287 284 280 277 277 280 282 285 286 286 286 290 289 290
304 302 302 303 303 302 291 289 290 284 281 277 281 279 279 278 281 282 287 289 292 292 288 284 280 274 279 279 282 287 287 285 281 277 275 274 284 288 292 290 282 290 291 292
303 302 302 303 303 302 292 289 291 286 279 281 281 278 278 282 280 279 284 284 284 292 285 281 278 278 281 278 277 280 280 281 277 278 275 279 286 289 291 280 281 290 292 292
303 302 302 302 302 302 294 289 291 286 280 282 285 286 281 282 281 278 284 284 288 289 285 283 280 279 280 278 279 278 279 277 277 278 275 272 288 288 284 289 292 294 293 294
303 302 301 302 302 302 296 289 294 295 288 284 288 289 290 288 287 284 283 284 283 289 287 287 285 281 280 278 277 282 279 282 280 281 280 286 288 289 293 292 294 294 296 295
303 302 302 302 302 302 299 292 293 292 288 284 283 283 287 291 290 291 282 284 289 288 289 287 288 282 281 278 281 279 282 285 282 284 284 286 289 291 293 293 293 293 293 293
302 302 302 301 301 302 300 293 293 293 288 281 281 289 287 291 291 290 290 288 291 290 289 288 289 284 285 281 283 282 284 286 285 285 286 287 289 290 291 292 293 293 294 293
302 302 301 301 301 302 296 292 291 292 287 281 282 287 287 288 288 289 289 287 286 287 284 287 288 289 287 284 283 281 285 285 283 283 288 288 289 291 293 292 292 292 292 292
302 301 301 301 301 300 291 283 293 296 292 285 278 284 286 287 289 286 286 287 286 287 287 287 292 294 289 283 280 287 288 289 290 289 291 292 292 292 291 291 292 292 291 291
302 301 301 300 300 294 285 283 289 297 296 287 280 278 284 288 292 285 286 287 289 288 288 289 289 289 293 289 281 287 290 291 291 292 292 290 289 289 291 291 291 292 291 290
301 301 300 300 300 296 289 293 297 296 290 287 275 276 279 288 285 286 287 284 287 290 290 292 290 292 293 286 288 288 288 289 290 290 290 290 290 290 290 290 290 289 289 289
300 299 300 292 289 286 287 297 298 296 290 277 277 273 271 286 284 286 289 291 285 291 289 290 290 287 285 286 287 287 287 287 288 288 289 290 290 289 289 289 289 288 288 288
298 290 285 281 286 295 294 291 285 287 287 287 280 280 277 283 284 284 287 289 287 284 287 289 286 284 287 284 283 284 285 287 289 288 287 287 287 288 288 288 289 289 289 289
287 282 282 286 293 286 285 282 281 282 279 282 282 283 281 285 281 281 288 285 286 282 285 286 282 283 281 282 282 284 286 288 288 289 288 288 288 287 287 288 288 288 288 287
288 286 288 287 284 278 276 274 280 281 274 284 283 283 284 285 289 285 284 284 284 280 289 285 279 283 281 282 285 286 286 287 286 286 285 287 287 287 287 287 286 286 286 287
287 284 281 278 280 269 270 270 267 268 277 282 282 280 284 286 288 285 285 282 281 289 284 279 282 282 281 281 285 285 286 287 286 285 286 287 286 286 286 284 284 284 284 285
279 271 268 269 266 277 278 275 270 276 274 278 282 281 277 283 283 284 282 286 285 278 278 277 280 282 283 285 285 286 285 285 284 283 284 284 284 284 284 283 281 280 279 281
273 272 268 268 274 277 283 284 280 277 276 282 281 280 281 278 281 284 284 282 276 279 280 284 285 286 284 283 285 285 284 280 277 277 277 278 279 280 280 280 279 279 279 278
272 275 271 272 270 267 270 277 273 275 276 277 282 279 278 276 282 281 281 280 276 281 283 283 284 285 285 285 286 285 284 282 281 280 279 278 279 279 276 275 274 274 274 273
278 276 280 276 277 276 270 272 275 281 280 276 277 274 271 278 278 280 282 279 281 282 283 282 284 284 285 284 283 284 282 280 279 279 278 277 277 276 276 275 275 274 275 273

GFSNW_sfc_thetae_090.txt.gz
Theta_e
308 307 306 306 306 305 296 287 281 294 295 283 289 285 288 293 292 295 293 292 291 289 289 283 281 281 283 289 286 280 282 278 277 280 289 289 289 285 283 273 277 272 271 278
307 306 306 306 306 304 290 284 282 291 291 277 283 288 288 290 291 291 291 291 291 292 288 284 286 289 289 289 286 282 283 275 273 279 283 289 285 287 285 282 280 272 271 278
307 306 305 305 305 303 289 282 275 281 285 286 286 285 286 285 292 291 291 292 292 288 286 289 287 288 288 290 289 291 289 279 277 273 277 284 282 286 285 282 273 276 276 280
306 305 304 305 304 301 287 281 280 282 275 279 281 286 284 283 283 288 291 290 289 288 285 286 285 288 290 288 289 289 286 282 282 285 286 286 285 285 285 277 281 279 281 282
306 304 304 304 303 299 285 280 277 280 278 279 279 281 280 281 282 284 286 288 289 290 287 288 286 288 287 287 289 286 286 285 284 282 287 286 284 287 286 286 284 283 282 282
305 304 304 304 303 295 284 283 284 281 279 277 277 276 279 280 283 285 290 289 288 289 287 289 289 290 291 289 287 286 286 284 281 277 286 285 280 284 286 285 286 287 282 286
304 303 303 303 303 296 288 285 282 278 276 278 278 279 280 280 281 281 287 289 291 293 292 291 289 287 288 288 287 288 284 283 282 279 281 273 282 286 289 287 287 287 286 287
304 302 302 303 303 300 289 287 283 280 275 279 279 279 279 279 282 283 284 291 291 291 288 286 284 286 283 283 285 286 287 284 279 276 275 279 282 285 287 285 286 289 289 289
304 302 301 302 303 300 290 288 288 283 277 277 281 278 277 276 278 278 284 289 290 291 286 284 280 275 278 279 282 285 286 285 282 278 275 273 283 287 290 289 282 289 290 290
304 303 301 302 302 301 291 288 289 284 278 280 280 277 277 280 278 278 280 284 284 292 284 281 278 278 280 277 277 279 279 280 277 279 275 279 285 288 291 280 281 289 291 292
304 303 302 302 301 301 292 289 292 285 279 281 284 285 280 280 279 278 280 282 285 286 283 283 281 279 279 276 278 277 278 277 277 278 275 273 287 289 284 288 292 292 292 293
304 303 302 302 302 301 295 286 293 295 284 283 286 287 288 287 286 282 282 281 283 287 283 285 286 282 279 276 276 281 278 281 279 280 280 285 287 287 291 291 292 294 295 293
304 302 302 302 301 301 297 289 292 292 287 282 282 282 286 289 289 290 281 283 289 288 289 285 287 284 281 277 280 278 280 283 281 282 284 285 288 289 294 293 294 293 294 293
304 302 302 301 301 302 298 293 294 291 284 278 280 288 286 290 289 289 288 289 290 289 289 286 287 285 285 280 282 280 283 284 283 283 284 285 288 288 290 291 292 292 293 292
303 303 302 301 301 300 294 291 290 290 284 278 280 285 286 288 287 288 288 286 284 284 282 285 288 290 288 286 282 280 284 284 282 282 287 287 288 290 291 291 290 291 291 291
303 302 301 300 301 298 289 283 291 293 294 284 278 283 284 287 289 286 284 286 284 284 284 285 290 294 290 285 280 285 286 288 289 287 288 290 290 291 290 290 291 291 291 291
302 302 301 300 300 291 284 282 289 296 295 285 277 277 283 285 291 285 284 285 286 284 284 286 286 287 291 288 283 286 288 289 290 291 291 289 289 288 289 290 291 292 290 289
302 301 300 300 300 296 289 291 296 294 289 285 275 276 278 286 283 285 286 282 287 287 287 291 289 290 291 286 286 286 286 287 288 289 290 290 289 289 289 289 289 288 288 288
301 301 300 292 288 286 286 297 296 294 286 276 279 276 273 284 282 286 289 286 284 290 286 288 288 285 283 286 286 285 286 286 287 287 289 289 289 288 288 288 287 286 287 289
301 291 287 282 285 294 294 291 282 283 284 286 280 279 275 282 281 283 286 288 286 283 285 290 286 284 287 283 283 284 285 286 287 286 287 288 286 287 287 286 288 288 287 288
288 284 283 285 292 286 284 282 280 281 279 282 283 279 281 283 280 280 286 283 285 281 283 285 284 282 281 281 281 283 285 287 287 288 288 288 288 287 287 287 287 287 287 286
288 287 288 287 283 278 273 277 281 279 276 283 282 278 279 284 287 284 285 282 284 276 288 285 280 282 281 281 284 286 286 286 286 286 286 286 287 287 287 286 285 285 285 285
288 284 279 278 279 271 269 268 266 265 276 276 275 276 279 285 286 284 284 281 281 288 283 279 279 281 281 281 284 285 286 287 286 285 286 286 286 286 285 283 282 283 283 283
282 276 270 271 271 274 273 269 269 274 272 273 274 272 275 282 281 282 280 285 285 275 274 275 283 285 284 284 285 286 285 285 284 284 283 284 284 282 282 280 279 279 279 279
277 276 272 270 275 279 278 281 279 276 274 274 273 276 278 278 277 281 283 282 276 279 278 282 283 284 286 284 285 285 285 281 274 274 274 275 275 276 276 277 276 278 278 278
276 273 271 274 271 268 275 280 279 275 275 275 280 276 277 271 278 278 280 279 275 277 280 283 283 283 285 285 286 286 285 282 281 280 278 278 278 277 275 274 274 275 276 275
277 273 278 274 272 269 268 272 273 282 280 272 276 272 274 273 270 278 280 276 278 279 280 283 283 283 284 285 284 283 283 280 280 279 278 277 277 276 275 274 275 274 274 273

GFSNW_sfc_thetae_093.txt.gz
Theta_e
308 307 306 306 306 305 295 286 280 293 295 282 282 281 288 291 291 294 293 291 290 288 289 283 281 280 283 288 285 279 282 280 275 280 287 289 289 284 283 276 278 275 275 281
307 306 306 306 306 303 289 283 282 289 290 277 283 288 288 289 288 290 289 289 291 291 288 284 287 287 288 289 285 281 283 276 274 277 282 287 284 286 285 283 281 276 276 281
307 306 305 305 305 301 287 280 275 281 284 282 284 283 282 282 289 291 290 291 292 288 286 289 286 288 287 289 288 290 287 279 278 274 277 283 281 284 284 282 278 278 279 282
306 305 305 305 304 299 286 280 277 282 271 278 279 282 281 280 280 285 289 290 287 287 285 285 286 289 286 287 288 289 286 277 279 281 285 285 284 285 284 278 281 280 281 283
305 304 304 304 303 297 284 279 278 279 277 279 278 279 279 280 280 282 285 286 286 288 287 287 284 287 288 286 285 285 286 281 283 283 287 286 283 286 286 285 284 284 284 284
304 303 304 304 303 294 283 282 282 280 278 277 276 275 278 279 281 284 286 287 285 287 289 288 287 289 290 290 287 285 285 283 281 280 286 285 281 284 285 286 286 286 283 288
304 302 303 303 302 295 286 283 281 278 277 278 278 279 280 280 280 280 284 287 288 291 291 288 288 288 287 288 288 290 285 284 282 280 282 273 282 287 289 287 288 288 288 288
304 302 302 303 302 299 288 286 283 279 275 279 279 278 279 278 280 281 283 288 288 290 286 284 283 282 282 283 285 287 287 284 280 279 278 279 282 286 286 287 286 289 288 289
304 303 301 302 302 300 289 287 286 281 277 277 280 278 277 276 275 277 281 286 289 291 287 283 279 275 278 279 282 286 286 285 280 278 276 273 284 287 290 290 283 289 291 290
304 303 302 301 302 299 290 287 288 283 278 279 279 276 277 280 278 277 279 282 284 289 284 280 277 278 279 277 277 279 280 281 278 279 275 279 285 288 291 281 281 290 290 291
304 303 302 302 301 301 291 288 292 285 279 280 283 283 279 280 279 275 279 282 282 284 283 283 283 281 278 276 277 277 278 277 278 279 277 275 287 289 284 288 292 293 293 293
304 303 302 302 302 301 294 286 294 295 284 282 285 286 287 286 285 281 280 280 283 287 280 282 285 283 278 276 276 281 279 282 280 281 281 286 288 289 292 292 293 294 295 294
304 303 303 303 302 302 296 288 292 291 283 281 281 281 285 288 288 288 280 282 289 287 289 284 284 284 284 277 278 277 280 283 281 283 284 286 290 292 294 294 294 293 293 293
304 303 303 302 301 302 297 293 291 287 282 277 279 287 285 288 288 288 287 286 289 287 287 284 285 285 286 281 282 280 283 282 283 282 284 287 289 291 293 293 293 293 293 292
304 303 302 302 302 300 293 290 289 289 283 278 279 284 285 288 287 287 286 285 283 283 280 283 285 290 288 287 283 279 283 283 282 281 286 286 287 291 292 291 290 291 292 291
304 303 302 301 301 297 287 283 289 295 293 279 275 283 282 285 287 286 284 287 286 285 283 284 287 292 288 286 283 284 285 287 287 286 288 290 291 291 291 291 291 291 290 290
303 302 302 301 301 290 283 283 288 296 294 282 275 278 282 283 287 286 283 284 284 283 282 283 287 286 289 287 283 286 286 286 287 289 290 289 289 289 290 291 290 292 289 289
302 302 301 301 299 295 288 289 297 294 287 282 268 275 278 284 281 281 287 285 287 287 282 287 288 290 290 286 287 285 286 287 287 288 288 289 289 289 289 289 289 288 288 288
301 301 300 293 289 285 285 297 295 292 283 276 277 273 269 282 281 283 288 285 282 287 285 286 288 286 282 285 286 284 286 286 287 287 288 289 288 288 288 287 287 286 287 288
301 292 287 283 286 294 296 289 281 280 282 285 279 279 273 280 280 278 283 288 285 282 284 289 286 284 287 283 282 283 285 286 287 286 286 287 288 288 286 287 288 288 288 288
288 285 283 286 293 286 282 281 277 279 279 282 278 277 279 281 279 275 282 282 285 281 281 283 283 283 283 281 281 283 285 287 287 288 287 288 288 287 287 287 287 286 286 286
289 288 289 288 284 277 272 277 280 275 275 277 274 276 278 279 285 284 283 280 283 278 287 284 280 280 282 282 284 286 286 287 286 286 285 286 286 287 286 285 284 284 285 284
288 285 281 281 278 271 268 268 265 265 272 273 273 273 278 282 284 282 282 280 278 288 283 281 280 284 285 283 285 285 286 287 286 285 286 286 286 285 284 281 280 280 280 280
283 280 274 276 271 273 270 269 269 273 272 272 272 270 273 279 278 282 276 282 285 279 272 274 281 282 284 285 285 286 285 285 284 284 283 284 284 281 279 278 278 277 277 278
278 279 274 272 276 277 272 273 275 275 274 274 273 275 274 270 277 276 277 279 279 278 276 277 280 283 283 284 285 285 285 283 281 279 273 274 275 275 274 275 275 276 276 276
278 275 274 276 274 275 279 280 280 277 275 276 280 277 272 270 272 271 273 277 274 277 278 279 279 279 282 284 285 286 286 283 282 280 278 277 278 276 273 272 272 272 273 272
275 274 279 275 270 270 271 279 276 280 278 270 276 271 268 274 267 267 271 270 273 277 278 277 281 281 282 283 285 284 283 281 280 279 279 277 277 275 275 274 274 273 274 273

GFSNW_sfc_thetae_096.txt.gz
Theta_e
307 307 306 306 306 302 299 297 292 299 303 292 292 287 288 292 291 294 292 292 290 288 288 286 283 282 284 289 288 283 287 284 278 281 287 289 289 287 287 283 281 284 282 285
306 306 305 306 305 301 298 294 293 297 297 287 288 289 289 290 289 290 290 290 291 291 288 285 289 287 289 290 287 284 286 282 277 278 282 288 286 288 288 288 286 282 283 284
306 305 305 305 304 300 296 291 289 291 293 290 287 285 284 283 289 291 289 291 292 288 288 291 287 286 288 290 288 290 288 283 281 276 279 285 282 286 288 286 283 283 286 287
305 304 305 304 303 298 295 290 286 287 285 286 286 286 283 281 282 287 290 289 287 286 285 287 286 288 286 288 289 289 287 279 282 283 284 286 286 285 286 284 286 284 286 286
305 304 304 303 301 297 292 289 287 287 285 284 285 283 281 281 282 283 286 286 287 288 286 286 285 286 288 285 288 285 287 283 286 282 287 287 286 286 286 286 286 286 287 288
304 303 304 303 300 296 292 290 290 289 282 283 283 283 281 281 283 285 287 286 285 287 288 288 290 290 290 289 287 285 284 284 284 281 287 287 282 286 287 286 288 288 285 290
304 303 303 302 300 297 294 292 291 287 282 284 283 282 282 282 282 281 285 288 288 291 292 293 292 290 289 290 289 289 285 285 286 284 285 278 286 291 292 289 289 291 291 293
304 303 303 302 300 298 295 292 290 287 283 284 282 282 282 283 284 283 284 288 289 290 290 291 287 288 287 287 290 290 291 289 285 283 283 284 285 289 289 288 288 293 292 294
304 303 303 303 301 298 296 294 293 289 285 283 284 283 282 282 282 283 284 289 291 292 291 289 283 281 283 284 286 290 289 289 286 284 279 277 287 292 294 294 286 293 295 295
304 303 303 303 301 299 296 294 294 291 284 286 285 283 283 285 284 282 284 285 286 292 289 285 283 283 285 282 282 283 285 287 284 285 282 285 290 292 294 283 287 296 294 297
304 303 303 302 301 299 297 294 295 292 287 286 287 287 285 285 285 282 285 285 286 286 284 284 284 283 285 284 285 284 283 283 284 284 282 279 291 294 289 293 297 296 297 297
304 303 303 303 302 300 296 293 296 296 291 288 290 290 291 289 289 286 286 285 284 285 284 285 284 284 286 284 283 288 284 287 285 285 286 291 293 293 296 296 296 298 299 299
304 303 304 303 303 301 297 295 296 294 289 287 288 287 290 292 292 293 285 288 289 287 290 285 284 284 287 283 286 286 289 289 287 287 288 291 294 296 296 297 297 297 297 299
304 304 304 303 303 302 298 295 296 293 289 285 285 291 289 292 292 291 291 291 291 291 290 287 285 285 290 287 287 285 290 289 288 289 291 292 294 295 296 296 297 296 296 296
304 304 303 302 303 301 297 296 295 294 289 285 285 288 290 291 290 290 290 289 288 288 286 285 285 290 289 290 287 286 291 289 288 288 292 292 293 296 296 295 295 295 296 295
304 304 302 302 300 298 293 289 295 297 295 288 283 288 287 288 291 289 288 289 288 288 284 285 287 292 291 287 286 291 291 292 292 292 295 294 296 296 296 295 295 295 295 295
304 302 302 301 299 294 289 287 293 297 297 287 283 284 286 287 290 290 289 289 289 288 286 284 287 288 292 288 284 291 292 294 294 295 295 293 294 294 294 295 294 294 294 294
303 302 302 300 299 296 291 294 297 296 290 287 281 282 284 288 287 286 290 287 288 288 287 288 287 292 291 286 291 292 293 293 293 293 294 293 294 293 292 293 293 292 291 292
303 302 301 295 291 288 290 297 296 295 290 282 282 281 280 287 286 287 288 288 282 289 284 287 290 287 284 288 288 289 289 290 291 292 292 292 292 291 291 291 291 290 290 291
302 295 290 285 288 296 297 290 287 288 288 287 282 282 281 285 284 284 284 287 284 282 286 291 286 286 288 286 286 287 288 289 290 290 290 290 290 290 289 289 290 290 289 289
291 288 285 288 294 289 286 283 282 283 281 284 284 283 281 286 281 281 285 283 284 281 285 285 285 284 284 286 286 287 288 289 289 289 289 289 289 289 289 288 287 287 287 286
291 290 291 289 286 282 280 278 281 279 280 283 283 283 284 285 287 283 284 280 282 278 288 285 282 283 285 286 286 287 287 287 287 287 287 288 287 288 288 286 286 285 286 285
291 287 283 284 280 278 278 274 274 275 280 282 282 280 283 284 286 283 282 280 280 287 284 282 281 284 285 285 286 287 289 287 287 286 287 287 286 285 285 284 283 283 283 283
286 283 277 280 276 278 279 280 279 280 281 281 282 280 281 283 280 282 277 283 284 281 278 278 283 282 283 285 286 287 287 287 286 284 284 285 285 284 281 281 282 281 280 281
282 284 278 275 279 279 278 279 280 280 282 282 280 280 280 278 278 280 279 278 279 278 278 282 285 283 283 283 285 285 286 286 284 283 281 281 281 282 280 279 280 280 279 279
281 278 276 278 280 279 281 280 281 281 281 282 282 278 276 276 276 275 275 277 276 280 283 285 285 282 282 283 284 285 286 286 284 283 282 280 280 280 279 278 278 278 278 277
280 277 280 279 280 279 280 282 281 282 281 277 277 272 273 277 273 273 278 279 282 284 285 285 284 282 282 281 284 285 285 284 282 281 279 279 279 278 277 277 277 278 278 277

GFSNW_sfc_thetae_099.txt.gz
Theta_e
308 306 305 306 305 302 301 302 295 301 306 294 294 288 289 292 291 294 293 292 291 289 289 287 285 283 285 290 289 283 287 285 280 282 287 290 288 288 288 283 283 287 284 285
307 305 304 304 304 301 302 296 296 301 302 289 290 291 290 291 290 291 290 290 292 292 289 286 288 285 289 290 288 286 288 284 278 278 283 288 286 289 289 289 288 284 282 285
307 305 304 303 302 300 300 295 290 294 297 295 290 288 286 285 290 291 290 291 292 290 289 291 286 285 288 290 289 290 290 285 282 278 281 286 283 287 289 288 284 285 287 288
307 305 304 302 301 300 298 296 291 292 290 290 289 289 285 283 284 289 291 290 288 287 285 287 286 286 286 289 290 289 288 281 283 285 286 286 286 286 287 285 287 285 287 289
306 304 303 301 300 299 297 292 291 291 289 288 287 285 284 283 284 286 287 286 288 289 287 286 284 286 285 286 288 286 288 283 286 284 286 286 284 288 287 288 288 287 287 288
305 304 303 301 300 299 297 295 294 294 286 286 286 286 284 283 285 287 289 287 287 288 290 290 292 292 291 289 287 286 285 284 285 282 288 287 282 287 287 288 289 289 285 291
305 304 302 301 299 299 299 297 296 290 285 287 286 284 284 284 284 283 286 289 289 291 295 296 295 293 292 291 289 291 285 285 286 284 286 278 287 293 293 289 289 290 291 294
305 304 303 301 300 299 298 296 294 292 286 287 285 284 284 286 286 285 286 289 291 294 293 292 289 289 289 289 292 288 290 288 286 282 283 285 287 290 290 288 288 293 292 293
304 304 303 301 300 300 299 297 297 294 288 285 286 285 285 285 285 286 286 291 294 294 292 290 284 282 285 285 286 293 292 292 286 285 280 278 288 293 295 295 285 295 296 295
304 304 303 302 301 299 299 296 298 295 288 288 288 286 285 288 287 285 286 287 289 295 289 285 283 283 288 283 283 284 287 287 284 285 283 286 292 294 296 284 288 297 296 297
304 304 303 302 300 299 300 296 299 296 290 288 289 289 287 287 288 285 287 287 289 289 286 286 285 283 286 285 287 286 284 284 285 285 283 280 294 294 288 294 298 298 298 298
304 304 303 302 301 299 299 294 299 299 294 290 292 292 293 291 290 288 289 286 285 286 287 288 288 284 286 286 283 291 285 288 285 287 287 293 296 296 297 298 299 300 300 300
305 304 304 303 302 300 299 297 297 297 292 290 290 289 292 294 293 295 288 289 289 288 290 287 286 283 289 283 285 287 291 292 288 289 291 293 296 298 298 299 299 299 300 301
304 305 304 303 302 301 299 297 298 296 293 289 287 293 291 294 294 293 293 292 292 292 290 287 285 284 292 287 288 287 290 292 290 290 292 293 296 297 298 297 299 299 298 299
305 305 304 303 302 300 299 298 297 297 293 288 287 291 292 293 292 291 292 291 290 289 287 286 284 290 290 290 289 287 294 290 288 287 294 293 295 297 297 296 296 298 298 297
305 304 303 303 301 299 296 290 297 299 297 292 285 290 289 291 293 291 291 291 289 288 286 287 289 292 290 287 286 293 293 294 295 292 295 296 297 298 298 296 296 296 297 297
304 304 303 301 299 297 290 289 294 298 299 291 285 285 288 290 293 292 291 291 288 287 286 285 287 290 292 288 284 292 294 295 296 297 296 295 296 296 296 297 296 296 296 296
304 302 301 299 299 297 292 296 297 297 293 291 286 285 286 290 288 287 291 287 288 288 287 289 287 290 290 286 291 293 293 295 295 295 296 295 295 295 294 295 295 294 293 293
303 301 300 296 294 290 291 298 296 297 293 287 287 285 283 290 288 289 289 289 283 289 284 286 289 287 284 285 287 288 289 290 290 293 294 295 294 293 293 293 292 292 291 292
301 296 291 286 290 297 297 292 289 290 290 290 285 286 284 287 286 286 285 287 284 283 286 291 287 286 288 287 287 288 288 290 291 290 292 292 292 293 292 291 291 290 290 290
294 289 286 291 296 292 289 285 285 285 284 287 286 286 284 288 284 283 286 283 285 281 286 285 285 284 285 287 288 289 289 289 288 289 290 290 290 290 290 290 289 288 288 288
294 291 293 291 287 284 283 281 282 282 282 284 285 285 286 286 289 284 285 280 282 278 289 285 282 283 286 287 287 286 287 289 288 288 287 288 288 289 289 288 287 287 287 287
294 290 286 285 282 281 280 277 278 278 283 285 284 282 285 286 287 284 283 280 280 288 283 282 283 286 286 287 287 287 287 288 288 288 288 287 287 286 286 286 285 285 285 285
289 285 279 283 279 281 283 284 283 283 286 285 285 282 284 285 282 283 278 284 284 280 279 280 286 285 284 285 286 286 285 287 286 286 286 285 285 285 283 282 283 283 282 282
286 287 282 280 281 281 281 282 283 284 286 285 282 282 283 281 279 281 280 278 277 281 281 285 287 286 285 284 284 285 285 285 285 285 283 283 283 283 282 281 281 281 280 280
285 282 279 281 281 280 282 283 281 285 285 284 284 280 278 277 279 277 276 277 278 282 286 288 288 286 285 284 284 283 285 285 286 285 284 283 282 282 282 280 279 279 279 278
283 279 283 283 284 283 283 284 284 286 284 280 280 275 276 279 276 276 281 280 285 287 287 288 288 285 284 283 282 283 285 285 285 284 282 281 280 280 279 278 279 279 279 277

GFSNW_sfc_thetae_102.txt.gz
Theta_e
310 309 307 306 305 303 302 301 293 301 306 292 292 288 290 293 291 294 293 292 290 288 288 286 284 282 285 290 288 282 285 282 275 281 287 290 287 286 286 282 279 279 278 280
309 308 306 306 304 304 302 296 295 300 301 287 289 291 290 291 290 290 290 290 291 291 288 286 285 285 289 290 288 284 285 280 271 275 283 288 285 288 289 288 283 278 277 279
309 307 306 305 303 303 300 294 287 293 295 293 289 288 286 285 291 291 291 290 291 289 287 290 286 285 288 291 290 291 289 282 280 276 280 285 282 286 288 287 281 283 284 283
308 307 305 304 302 302 298 293 292 291 287 287 288 289 286 284 284 290 291 290 288 287 284 287 285 286 286 289 290 289 286 278 282 284 285 286 285 285 287 283 284 282 284 285
308 306 305 303 302 301 297 290 288 288 287 288 286 285 284 283 284 286 287 286 287 288 286 286 284 286 286 285 287 282 286 278 283 282 286 284 282 285 287 287 287 286 286 286
307 306 304 302 302 301 296 293 293 291 286 285 283 283 284 284 285 287 289 287 287 287 288 289 290 292 291 289 286 282 283 280 282 280 286 286 279 285 286 286 288 288 284 289
306 305 303 301 302 301 298 295 293 287 282 284 284 285 285 284 285 283 286 288 288 289 293 293 293 292 292 290 289 289 284 283 284 282 281 275 285 292 291 288 288 289 289 293
306 304 302 301 301 301 297 295 293 289 283 284 284 284 284 285 286 284 285 289 290 292 291 289 288 286 286 287 290 288 288 286 283 280 281 283 286 289 289 286 286 290 288 291
306 304 302 302 302 303 298 295 296 291 285 282 286 284 284 282 282 283 287 291 292 291 290 288 282 279 282 283 286 290 289 288 284 280 278 277 286 291 293 292 283 294 294 292
306 304 302 302 301 302 298 294 296 293 285 286 287 283 283 286 284 282 285 286 288 293 288 284 282 281 285 280 279 283 284 284 280 282 280 283 289 292 294 282 286 294 294 293
306 304 303 302 301 301 299 294 298 293 287 286 289 290 285 285 285 281 284 286 287 286 285 284 283 282 284 282 284 282 282 280 282 282 278 277 292 292 287 291 296 296 295 295
306 304 303 302 301 301 301 292 297 298 291 287 292 292 292 290 289 286 286 285 285 286 284 286 285 283 284 282 281 286 283 284 281 283 284 290 292 292 294 296 296 295 296 297
306 304 302 302 301 300 300 295 295 295 289 287 287 287 290 293 292 293 284 286 289 288 289 285 285 283 286 281 282 283 287 288 284 286 288 289 293 294 296 296 295 297 297 299
305 305 304 302 301 301 300 295 296 294 291 285 284 293 290 293 293 292 291 290 290 289 287 286 285 283 290 285 285 283 285 287 286 286 290 290 293 294 295 296 298 297 296 296
306 305 303 302 301 301 298 296 295 295 291 285 284 289 290 292 291 291 291 289 287 287 283 285 284 289 289 289 287 284 291 287 285 286 289 289 292 294 297 296 295 296 296 294
305 305 303 302 301 300 296 289 294 297 295 288 281 287 287 289 292 290 290 288 288 285 282 282 285 290 288 285 284 290 290 292 292 289 292 292 293 295 295 294 294 295 294 294
305 304 303 301 299 297 291 289 293 297 296 289 281 281 286 289 291 290 289 290 288 286 285 282 283 286 290 286 283 290 289 291 292 293 293 292 293 292 294 295 294 295 294 293
304 304 301 300 299 297 292 295 296 297 291 289 281 280 282 287 285 285 290 287 287 287 285 286 284 288 287 284 287 289 288 289 292 291 292 292 292 292 292 292 293 291 291 291
303 300 299 296 293 289 291 298 296 296 291 284 283 279 276 286 284 287 288 289 283 289 284 285 287 285 282 285 285 285 286 286 287 290 291 294 293 293 293 291 289 288 289 290
301 296 291 286 290 298 296 292 288 288 287 288 282 283 278 283 283 284 284 286 284 281 285 289 283 284 286 286 285 287 288 288 288 286 287 289 289 289 291 289 290 289 288 289
294 288 285 291 297 291 288 284 284 284 282 284 282 281 279 284 278 281 285 282 284 277 284 284 280 282 283 284 284 287 288 288 288 288 287 288 288 287 288 288 288 288 288 287
293 291 293 291 287 284 283 281 282 282 281 282 280 280 282 282 286 283 283 281 281 276 287 283 276 280 283 284 283 284 287 287 287 287 286 286 287 287 287 288 287 286 286 285
293 289 285 285 282 278 278 276 278 278 282 282 279 277 281 282 285 282 280 277 278 286 280 279 279 281 283 282 284 284 285 287 287 287 288 287 287 287 286 285 285 284 283 282
286 283 278 282 276 280 282 283 282 284 284 283 281 277 278 281 277 279 274 280 280 275 277 279 277 281 281 281 282 282 283 286 286 287 287 286 286 285 283 282 282 281 280 279
284 286 280 278 280 280 281 282 283 285 285 282 279 277 278 276 272 278 278 277 275 276 275 276 279 282 282 280 281 279 278 280 284 285 285 284 282 282 280 279 279 279 279 278
284 282 277 281 279 278 281 281 281 285 284 282 280 274 270 270 273 274 275 276 273 274 277 278 278 277 278 278 280 280 280 280 284 285 285 284 282 281 280 278 277 278 277 275
282 278 283 282 282 281 282 283 282 285 282 275 275 269 268 276 271 272 273 276 275 278 278 279 278 276 276 274 275 277 277 281 284 284 284 282 278 278 278 278 279 278 278 274

GFSNW_sfc_thetae_105.txt.gz
Theta_e
313 312 310 308 307 305 302 294 285 297 301 285 287 279 287 292 291 295 292 292 289 287 287 284 282 281 284 288 287 280 283 281 273 280 285 289 286 285 286 279 278 281 278 277
313 312 309 308 307 306 296 291 289 296 297 281 279 287 289 291 289 290 289 290 290 290 287 284 283 284 288 289 286 282 284 278 269 272 280 285 284 287 288 288 285 281 277 278
311 311 309 307 307 306 296 289 281 287 289 287 284 284 283 285 290 290 291 290 291 288 286 289 284 284 287 290 289 292 287 280 278 273 279 283 280 284 287 285 280 281 281 282
311 310 308 307 306 305 295 289 285 287 278 282 283 284 283 282 284 288 291 289 288 286 284 286 285 286 285 287 290 287 285 276 280 283 285 284 284 284 285 279 284 277 282 283
310 309 308 306 304 304 292 285 283 284 282 285 282 283 280 281 283 284 287 286 286 288 286 286 283 285 285 284 285 278 283 275 279 279 285 285 282 285 285 286 286 285 285 285
310 308 307 305 304 301 290 288 289 286 284 281 279 279 280 282 283 286 287 285 285 287 287 287 289 290 291 290 286 280 280 278 281 279 284 283 278 284 284 286 288 288 283 288
309 308 306 304 304 302 292 289 287 283 279 280 281 282 283 282 283 281 285 286 285 287 290 290 289 290 291 289 288 287 282 283 282 281 282 273 285 291 290 287 288 290 290 292
309 306 305 303 304 304 291 290 288 284 278 280 281 282 282 282 283 282 284 287 288 289 287 289 285 285 285 286 288 287 287 285 282 280 279 282 287 288 288 286 287 292 289 291
308 305 304 303 303 303 292 290 291 286 280 278 283 281 280 278 277 280 284 289 289 288 289 285 281 277 280 280 285 288 287 287 282 278 279 277 285 290 292 291 283 292 293 292
307 304 303 303 305 302 294 290 293 287 280 282 283 280 280 282 280 279 281 283 286 289 285 283 280 278 282 278 278 281 283 282 279 276 279 281 287 290 294 280 285 294 294 293
306 304 304 303 303 301 294 291 294 288 281 282 286 287 282 282 281 278 281 283 284 283 284 283 283 282 281 280 282 280 280 277 278 279 276 275 290 290 286 291 295 294 294 293
306 304 303 303 303 301 297 290 295 294 285 283 289 289 289 288 286 283 284 282 285 284 282 285 284 283 282 280 279 284 281 282 279 281 281 288 291 291 292 293 293 293 294 295
306 304 303 303 302 301 298 291 293 290 285 283 283 284 288 291 290 291 282 285 289 287 287 285 285 283 286 280 279 279 285 286 283 285 287 288 291 292 296 295 296 296 297 298
305 304 303 303 303 301 298 293 293 290 286 280 281 290 287 290 291 291 289 288 289 287 286 286 285 284 290 285 284 281 284 285 284 285 287 289 291 290 293 296 297 296 296 296
305 304 303 302 302 301 296 293 293 293 288 280 280 286 288 289 290 290 290 288 285 282 280 284 284 287 288 289 285 284 289 286 282 284 288 287 289 293 295 294 295 296 295 294
305 304 303 302 301 299 294 287 292 294 292 282 277 284 284 288 289 289 288 286 284 282 280 280 282 289 288 284 283 290 289 289 290 287 290 291 291 292 293 294 294 294 294 294
304 303 302 301 299 295 290 288 291 296 293 283 278 278 284 288 290 289 288 289 287 284 282 280 280 283 289 286 279 288 288 287 290 290 290 291 291 290 292 293 293 294 293 293
304 302 301 300 299 297 290 293 296 295 289 287 275 277 279 286 282 283 289 286 287 287 284 284 281 286 285 278 286 285 288 288 288 289 290 290 292 290 290 291 292 290 290 290
303 301 300 294 291 287 288 297 296 293 288 279 279 273 272 284 281 286 287 288 282 288 284 284 287 284 279 283 283 282 283 284 286 288 288 291 292 293 293 292 291 289 289 289
301 295 289 284 290 298 296 291 286 285 285 286 279 280 276 282 280 283 284 286 281 280 282 287 280 281 284 284 283 284 287 287 287 286 285 287 287 288 288 289 290 288 288 288
292 286 285 291 297 290 287 283 283 281 280 283 280 278 276 282 276 279 285 282 283 276 282 282 277 281 280 283 283 284 287 288 288 288 287 286 286 286 285 287 288 287 287 286
291 290 292 290 286 282 281 280 281 280 279 281 278 278 279 281 284 282 283 280 280 275 286 282 278 277 281 283 282 282 284 286 287 288 287 287 286 286 287 286 287 286 286 285
293 288 284 283 280 274 276 275 277 276 280 280 280 276 280 281 282 281 281 276 271 285 279 278 276 279 282 281 282 282 282 284 286 286 287 288 287 288 287 285 286 284 284 283
285 282 277 279 271 276 280 281 280 283 283 281 279 275 277 280 275 280 268 276 277 277 275 272 274 280 280 280 280 280 279 280 281 284 285 286 287 286 286 282 281 281 280 280
283 284 277 274 279 280 281 283 283 284 284 281 277 276 277 274 272 275 276 276 267 272 272 273 275 280 280 279 280 277 277 275 272 276 282 285 285 284 281 279 279 279 279 279
282 276 275 279 279 278 280 282 282 284 282 281 279 273 270 269 271 273 266 266 266 272 273 274 273 274 275 275 278 279 278 278 277 279 283 285 284 282 278 276 274 276 277 278
274 275 281 281 281 280 281 283 282 284 281 274 274 270 270 275 269 267 268 269 272 275 275 274 276 274 273 271 271 274 276 276 277 279 283 283 281 279 278 276 277 276 279 278

GFSNW_sfc_thetae_108.txt.gz
Theta_e
315 314 313 311 309 308 303 294 284 296 299 283 281 277 286 292 291 294 291 292 288 285 286 279 282 277 282 288 287 280 284 279 272 279 285 288 286 285 283 272 272 272 274 276
314 313 313 310 309 307 296 290 287 294 296 279 277 286 287 289 289 290 289 289 289 290 286 282 284 281 286 289 286 282 284 277 269 272 278 284 282 285 287 285 279 274 275 277
313 313 311 310 308 307 296 288 281 284 290 286 282 283 282 284 289 290 291 289 290 286 287 288 283 283 286 289 288 292 287 279 276 270 277 282 280 283 286 285 280 281 281 282
313 312 310 309 308 308 293 289 283 284 277 282 282 282 282 282 282 288 290 289 287 286 284 285 285 285 283 286 288 286 283 275 278 280 283 283 283 283 285 278 285 279 283 283
312 311 310 309 308 307 291 287 283 283 283 284 282 283 280 281 281 285 287 286 285 288 285 285 283 285 285 284 283 276 281 273 278 279 283 283 281 283 284 285 287 284 284 285
311 310 309 308 307 302 290 288 287 284 283 280 279 278 280 281 282 285 287 285 284 286 287 288 289 290 290 290 286 279 278 277 279 278 283 281 278 284 283 286 288 287 283 287
310 309 308 307 306 302 291 288 287 282 279 279 280 281 281 281 282 281 284 285 283 286 288 290 289 289 291 290 288 286 280 283 282 274 279 271 285 289 288 287 288 290 290 290
310 308 307 305 305 303 292 290 286 282 277 279 280 281 280 281 282 280 283 286 287 288 287 288 283 284 285 285 288 286 287 285 280 276 273 282 285 287 286 286 287 293 291 292
308 308 306 304 304 304 293 290 289 285 280 278 281 280 279 277 276 279 283 288 288 287 286 286 280 274 279 280 284 288 287 287 282 278 277 275 284 289 291 290 281 291 292 292
308 306 305 304 306 303 293 290 291 286 280 281 281 278 279 281 279 278 280 282 285 288 282 279 279 277 281 277 276 281 283 283 280 276 276 281 287 290 293 280 282 292 293 292
307 305 305 305 305 301 293 291 293 287 281 282 285 286 281 281 280 278 281 282 283 283 280 279 279 278 279 277 279 278 279 276 276 279 276 274 289 288 285 290 293 295 292 293
306 305 306 304 304 302 296 289 293 292 285 284 287 287 288 286 285 283 282 281 281 282 281 281 285 280 279 277 275 282 279 281 279 280 281 287 289 290 294 294 294 294 292 294
305 304 304 304 303 303 296 290 290 289 285 283 283 283 287 290 289 289 282 283 286 285 285 282 282 282 281 276 278 277 284 284 282 284 287 285 288 294 297 296 296 296 296 298
305 305 304 304 303 302 298 291 292 289 286 280 281 289 286 289 290 290 288 287 287 286 285 286 285 283 286 281 283 280 283 284 284 285 287 288 291 290 295 297 297 296 296 296
305 305 304 304 303 301 295 292 292 292 287 280 280 285 287 288 290 288 288 287 284 281 280 284 282 287 287 288 284 284 288 283 281 285 286 286 287 290 293 295 295 296 295 294
305 304 304 303 301 298 291 286 291 294 291 282 278 284 283 287 288 287 286 285 283 281 280 279 281 288 287 282 280 289 288 290 288 286 287 289 290 290 291 292 294 295 295 294
304 304 303 301 300 295 289 287 290 296 292 283 278 278 284 288 290 289 288 288 283 281 280 279 280 282 287 283 278 289 287 288 287 287 288 289 292 290 290 291 292 294 293 293
304 302 301 301 299 296 290 292 296 294 289 286 274 277 278 286 282 282 289 285 284 283 281 281 280 283 283 278 283 283 284 285 285 286 289 289 289 291 290 291 291 290 289 289
302 301 299 294 291 287 288 297 296 292 287 279 276 273 271 283 282 286 287 288 278 286 283 281 283 281 279 282 282 283 282 282 283 286 286 288 289 290 290 292 292 290 290 290
300 295 289 285 289 297 296 290 284 284 284 284 278 280 276 280 280 283 284 284 279 276 280 285 284 279 283 283 282 283 284 287 287 285 285 286 286 287 287 287 289 289 288 288
292 286 286 291 297 290 287 280 279 279 278 281 279 278 278 282 275 279 283 277 280 275 277 281 279 278 279 282 282 283 285 285 287 288 288 287 287 286 285 284 286 286 286 285
291 290 292 290 287 283 277 275 278 277 277 278 277 277 279 280 282 277 282 276 279 268 286 281 277 277 280 281 281 282 283 283 284 286 286 287 287 287 287 287 287 287 287 286
292 288 284 284 281 272 272 271 273 274 278 278 278 275 280 281 281 277 279 271 271 284 279 278 276 278 281 280 282 281 281 282 282 283 284 285 286 288 287 287 287 285 284 284
286 282 277 278 272 275 276 279 281 283 279 279 279 276 277 280 274 281 268 275 277 274 271 271 273 279 280 279 279 279 279 279 279 280 281 282 284 285 287 286 284 282 281 281
283 283 277 274 277 280 282 283 283 283 283 280 278 276 277 270 272 275 276 275 266 272 272 273 274 279 278 277 279 276 275 274 270 271 272 275 278 283 284 284 282 280 279 278
281 276 274 279 278 279 279 282 281 283 281 280 278 272 269 269 270 269 266 267 266 271 272 273 272 273 273 274 278 278 276 276 275 276 276 279 281 283 282 281 280 277 275 275
276 275 279 278 279 280 280 284 283 284 281 275 274 270 268 274 268 267 268 268 271 274 275 273 274 274 272 271 270 272 273 274 274 275 278 281 283 280 279 278 278 275 277 276

GFSNW_sfc_thetae_111.txt.gz
Theta_e
309 313 314 313 310 309 303 294 286 295 298 286 279 277 284 291 290 292 290 290 286 284 286 282 271 271 276 287 287 281 284 281 275 279 285 288 285 284 284 275 273 277 271 276
310 314 313 311 309 308 297 288 287 297 298 275 276 284 286 288 289 289 289 288 288 290 286 279 280 280 285 288 286 284 285 277 268 272 278 283 282 284 286 283 278 279 269 277
314 314 312 311 310 307 297 288 279 288 293 287 281 282 282 283 289 290 291 288 290 286 285 286 281 281 285 288 287 291 286 277 275 269 276 281 279 283 284 281 274 278 278 283
314 312 311 310 309 305 295 287 281 284 282 282 281 281 282 282 283 287 290 287 287 286 282 284 284 285 282 285 287 284 281 274 276 279 280 281 281 282 283 279 284 275 283 284
312 311 310 310 309 305 292 286 283 282 281 282 281 282 280 282 281 284 284 284 286 288 283 285 283 285 285 284 284 275 279 273 279 279 282 281 281 283 285 284 285 283 284 285
312 310 310 309 309 302 290 288 287 285 282 278 278 278 279 281 282 284 286 285 284 287 286 288 289 289 290 289 286 278 277 276 278 273 281 281 278 283 282 285 287 286 282 286
311 309 309 308 308 299 290 288 286 282 279 279 280 280 281 281 281 281 283 285 284 286 289 290 290 290 291 289 285 285 283 283 282 278 279 271 285 288 288 286 287 288 288 289
309 308 308 307 307 302 291 289 286 282 277 279 280 280 280 280 281 280 282 285 286 288 288 287 283 284 285 286 288 286 287 285 280 274 271 280 284 287 285 283 285 290 290 292
308 307 307 305 303 305 292 290 288 284 280 278 281 279 278 277 276 278 282 286 287 287 287 286 281 274 278 279 284 289 287 286 281 278 275 273 284 289 290 288 282 293 292 292
308 307 306 303 303 304 293 290 290 285 280 281 280 278 279 280 279 278 280 282 284 287 282 279 279 276 279 276 277 281 283 283 280 279 277 278 286 290 293 278 279 290 291 291
307 306 304 304 305 301 294 291 292 286 281 282 284 285 280 280 280 278 280 282 283 282 279 279 278 277 278 276 278 276 278 275 276 277 276 274 288 287 286 288 291 292 291 291
306 305 304 306 304 302 297 288 292 291 284 283 286 286 286 286 284 282 281 281 280 282 281 280 280 279 278 276 274 280 278 280 279 279 279 286 287 291 293 294 294 294 291 292
306 305 305 305 303 302 297 290 290 289 283 282 283 282 287 289 288 288 282 282 285 284 284 281 280 279 279 276 277 276 281 282 281 282 286 284 289 295 296 296 295 296 296 297
305 305 304 304 303 302 297 292 292 288 285 280 281 289 286 289 289 289 288 286 286 285 284 282 280 281 284 279 281 279 281 282 283 282 284 288 292 289 295 296 297 296 296 296
306 305 305 305 303 301 295 293 292 292 287 281 280 285 286 288 288 287 287 286 283 281 281 281 280 283 283 284 282 279 284 282 280 281 285 285 285 287 291 295 294 295 295 295
305 305 304 305 303 299 291 286 290 294 290 282 278 283 285 286 287 286 285 284 281 280 280 279 280 285 285 279 278 285 285 286 287 285 285 287 289 289 289 292 294 295 295 295
305 305 304 303 300 294 288 286 290 296 291 282 277 278 286 289 290 287 285 284 282 281 280 279 279 281 287 281 277 286 286 286 285 285 286 287 292 290 292 292 293 294 293 293
305 303 302 301 300 296 289 291 296 294 287 284 273 277 281 287 283 282 287 281 282 282 280 280 280 282 284 278 282 283 287 284 284 284 285 286 287 290 292 292 292 291 291 291
303 302 300 295 291 288 288 296 295 291 287 278 275 273 272 286 284 284 286 283 276 283 279 280 281 280 277 281 281 282 283 283 282 284 284 285 287 288 289 289 289 289 290 290
301 295 289 285 289 297 296 290 283 283 284 282 277 279 277 282 280 281 279 282 277 273 279 282 279 279 282 283 282 283 284 285 286 285 282 284 283 284 286 287 287 288 288 288
292 286 286 292 296 290 287 282 278 279 277 280 278 277 278 281 275 276 280 274 275 269 276 275 276 277 278 281 281 282 284 284 284 285 286 287 287 286 286 286 286 287 287 287
291 291 292 290 286 283 280 275 278 276 276 278 276 277 279 280 281 276 276 273 273 267 280 276 270 277 279 280 281 281 282 283 282 282 282 283 285 286 287 287 287 287 288 287
292 288 284 284 282 275 271 270 270 270 278 278 278 276 280 280 280 276 273 266 269 280 279 276 276 278 280 280 281 281 280 280 280 281 282 282 282 283 284 285 286 287 285 285
286 282 277 280 276 275 274 275 278 281 278 279 278 276 277 279 275 276 268 275 276 276 270 270 273 278 280 279 279 279 278 278 278 279 279 279 279 280 282 282 285 284 283 283
283 283 278 275 278 278 281 281 282 282 283 280 276 274 276 269 274 274 276 275 267 272 271 273 273 278 278 277 279 276 275 273 269 269 269 273 274 275 276 280 284 282 281 280
281 277 275 279 278 280 280 280 279 282 282 279 276 270 268 270 271 267 267 267 266 271 272 272 272 273 273 274 278 278 276 275 274 275 275 277 277 277 279 280 281 280 279 276
278 276 279 276 276 279 281 283 282 284 282 276 273 269 269 271 265 265 266 268 272 273 277 273 273 275 272 270 270 271 272 272 271 274 276 277 279 280 280 279 280 279 278 275

GFSNW_sfc_thetae_114.txt.gz
Theta_e
309 311 311 313 311 309 304 295 286 297 300 287 281 277 283 291 289 291 290 288 285 282 285 281 269 270 274 286 286 280 282 278 271 278 284 286 285 284 284 273 273 277 271 280
311 312 313 310 308 308 298 289 290 298 298 276 276 283 285 287 289 290 288 287 287 290 286 280 278 278 284 287 285 282 284 275 267 273 278 282 282 283 285 282 277 277 271 278
313 312 310 309 309 308 296 287 282 290 293 289 280 281 282 282 289 290 290 286 288 287 285 285 282 280 284 287 286 291 284 277 274 270 276 281 280 282 283 280 277 273 280 282
314 311 309 309 309 307 295 286 282 286 283 285 280 281 282 282 283 286 289 285 286 286 282 284 284 284 281 284 286 283 280 274 276 278 280 280 281 282 283 282 283 275 280 284
313 310 309 308 309 305 291 286 283 282 280 281 280 281 280 282 281 283 283 283 286 288 281 283 283 284 283 283 282 274 279 273 278 279 281 282 282 285 284 285 285 285 285 285
309 308 307 308 308 301 290 287 286 284 281 278 279 278 279 282 283 283 285 285 283 285 286 288 288 290 290 289 281 277 277 275 277 271 281 281 279 283 283 285 287 286 281 284
308 308 308 306 308 299 291 287 285 282 278 279 279 280 281 281 281 281 282 285 283 285 290 290 291 291 290 286 283 284 284 282 280 274 277 269 285 287 287 286 287 287 287 288
309 308 308 307 304 301 292 289 285 281 277 279 279 279 279 280 280 280 282 284 285 287 286 286 283 283 285 285 287 286 287 284 279 272 277 280 283 288 284 281 284 289 288 290
309 307 306 308 306 304 292 290 288 283 279 278 280 278 278 276 275 278 282 285 286 287 285 286 279 274 279 278 283 289 287 287 281 277 273 271 282 289 288 287 280 292 290 290
308 307 306 304 303 303 294 290 290 285 280 280 278 278 278 279 278 277 279 282 284 286 281 279 276 275 278 276 276 280 282 281 279 280 276 277 285 288 290 277 279 291 290 290
306 306 304 303 302 303 294 290 290 286 281 281 283 284 280 280 279 278 280 282 283 282 279 278 278 277 277 275 276 276 277 275 277 277 275 272 287 287 285 287 292 292 291 290
307 305 304 304 304 303 297 287 292 290 284 282 285 285 286 285 283 282 281 280 280 283 280 279 279 279 276 275 273 278 277 279 278 278 278 285 287 288 292 294 294 294 290 292
306 305 304 305 305 303 297 289 289 287 282 282 282 282 286 289 287 288 282 282 284 283 283 281 280 279 279 275 277 275 279 281 280 281 283 283 290 292 294 295 295 295 296 297
307 305 305 306 304 302 296 291 291 287 283 279 280 288 285 288 288 288 287 286 285 285 283 281 280 280 282 278 280 278 281 281 281 281 282 288 292 291 290 296 296 296 296 296
306 305 304 305 304 301 294 293 292 291 286 280 280 284 286 287 287 286 286 285 282 281 281 280 280 282 282 281 280 278 283 282 280 280 284 284 286 285 290 294 295 296 295 294
305 304 304 305 304 300 290 286 291 294 290 282 278 283 285 286 286 285 284 283 281 280 280 279 280 283 283 278 277 283 284 285 285 284 285 286 287 287 291 292 293 294 294 295
306 305 304 305 303 293 287 285 290 296 290 283 279 280 286 288 286 285 283 283 281 280 279 279 279 281 284 279 276 283 285 286 284 283 284 285 287 287 291 292 293 293 293 292
306 304 304 302 300 296 289 291 296 293 286 284 275 278 282 287 283 280 284 281 281 281 280 280 279 281 281 278 281 281 284 284 284 283 284 284 285 286 289 292 292 291 290 291
304 302 300 296 292 288 289 297 295 290 286 278 278 274 274 285 282 281 282 282 276 282 278 279 281 279 277 281 280 282 283 283 283 284 283 284 285 285 286 286 286 287 288 289
300 295 289 285 289 297 295 289 283 281 282 282 278 280 278 283 281 279 277 279 275 269 278 281 279 278 282 282 282 283 283 284 284 282 281 282 281 283 283 283 285 286 287 287
291 285 285 292 296 291 287 281 277 278 277 280 278 278 278 282 275 274 279 273 273 268 276 275 273 276 277 280 280 282 283 284 284 283 283 283 283 283 283 283 285 286 287 287
291 291 292 291 287 284 281 276 277 275 276 277 277 278 280 280 282 276 275 272 271 267 279 274 269 276 278 279 280 280 281 282 282 281 281 281 282 282 282 282 283 284 285 286
293 287 284 284 282 277 274 270 269 268 277 278 279 277 280 280 281 276 271 267 269 279 278 275 275 277 279 279 280 280 280 281 281 279 279 279 281 281 281 280 281 282 283 284
285 283 279 280 277 276 274 274 277 279 280 280 280 277 278 280 275 276 269 275 275 276 267 270 272 277 279 279 280 279 279 279 278 278 278 278 277 277 278 279 279 280 281 282
283 283 279 278 279 275 275 278 279 280 283 280 277 275 276 270 273 276 276 274 271 272 271 273 273 278 279 277 278 276 276 273 270 269 269 271 272 273 274 276 277 279 282 282
283 280 273 278 275 279 280 278 280 282 282 279 277 272 269 270 272 270 270 268 267 271 273 272 272 276 275 275 278 277 277 275 274 275 274 276 276 275 275 275 280 280 280 279
279 276 278 278 273 277 281 282 282 285 282 275 274 272 272 271 265 266 268 268 271 272 273 273 273 275 274 271 272 273 274 273 271 273 275 275 276 274 274 274 275 276 280 276

GFSNW_sfc_thetae_117.txt.gz
Theta_e
313 312 311 309 310 309 303 295 287 298 301 287 283 276 283 291 290 291 289 287 284 283 284 273 268 269 274 285 286 281 283 279 273 279 284 285 285 283 284 274 275 277 277 279
313 311 309 309 310 306 298 290 291 299 299 280 278 282 284 288 289 289 289 286 287 290 284 276 278 278 284 286 284 282 284 276 270 274 281 284 281 284 284 282 280 277 276 281
310 310 310 310 307 305 295 289 285 291 293 288 280 280 282 283 290 290 289 286 287 288 285 283 279 280 284 286 285 290 284 277 275 273 277 280 280 284 285 282 279 280 281 284
310 309 309 308 307 305 295 286 281 285 284 285 281 280 282 282 282 286 289 284 285 287 282 283 282 282 281 284 286 283 280 276 278 280 281 281 283 283 285 283 283 282 283 284
309 308 308 309 307 306 290 285 282 281 280 282 280 280 280 282 282 283 282 283 285 285 281 283 282 284 281 283 281 274 279 274 279 279 282 282 282 283 283 284 285 285 285 285
309 308 308 309 306 300 290 286 285 284 280 279 278 277 280 282 283 283 284 284 283 283 286 288 289 290 289 285 281 278 278 277 277 273 281 281 278 283 283 285 287 286 282 287
307 307 307 307 304 298 291 287 284 282 278 280 280 280 280 281 281 281 283 285 283 285 291 291 292 291 288 285 284 283 281 280 280 273 276 270 285 287 287 286 288 287 288 289
308 308 306 307 304 301 292 288 285 281 277 279 279 279 279 279 280 280 282 283 284 286 287 286 283 284 285 286 288 287 287 282 278 276 277 280 283 287 286 283 285 289 289 290
309 308 307 305 306 302 293 289 286 283 280 277 280 278 277 276 275 278 282 285 285 286 286 286 278 274 279 278 283 289 288 287 279 277 273 271 283 289 289 288 281 292 290 290
307 306 307 305 306 304 294 290 288 284 280 280 278 277 278 279 277 277 279 281 284 285 282 279 276 275 278 275 276 280 282 280 280 280 276 278 284 289 291 278 280 292 290 290
308 307 305 304 304 303 294 289 289 286 281 281 282 283 279 279 279 277 280 282 283 282 279 278 278 277 277 275 277 276 277 276 278 277 275 272 287 288 285 289 293 293 293 291
306 306 304 305 304 303 295 287 291 289 284 282 285 285 285 283 282 281 280 281 280 283 280 279 279 278 275 275 273 278 277 279 278 279 278 284 287 288 294 294 294 294 293 293
304 307 305 305 305 303 295 289 288 287 283 282 282 281 285 288 287 287 283 281 284 283 282 280 280 278 278 275 276 275 279 281 280 282 283 284 290 292 294 295 295 295 296 296
306 307 306 305 306 302 296 290 290 286 283 279 280 288 284 288 287 287 286 285 285 284 282 281 280 280 281 277 279 278 280 281 280 280 283 287 292 289 289 295 296 296 296 296
307 308 305 306 305 302 295 292 291 289 285 280 280 284 286 286 286 286 286 285 282 281 281 280 280 281 281 280 279 277 281 281 280 280 284 285 286 287 289 291 292 295 295 294
304 306 306 306 305 300 291 285 290 293 289 281 278 283 284 284 285 285 283 283 281 280 280 279 280 282 282 278 277 282 283 284 285 284 285 287 287 287 289 292 293 294 294 294
303 305 304 305 304 293 286 286 290 294 289 282 279 280 286 285 285 284 282 282 281 280 279 279 278 280 283 279 275 281 284 285 284 284 287 285 287 287 288 290 292 294 293 293
303 306 304 305 301 297 288 292 298 292 285 283 273 277 280 285 281 280 283 281 281 281 279 279 279 281 280 277 280 280 283 283 283 284 284 285 285 285 287 289 289 290 290 290
303 305 301 296 293 288 289 297 295 290 286 278 277 273 273 283 281 282 282 281 277 282 278 279 281 279 277 281 280 281 281 283 284 283 283 284 285 285 285 285 285 284 285 286
303 296 290 284 289 297 297 289 282 281 282 281 279 280 277 281 280 278 277 279 275 269 278 281 278 278 281 281 281 283 283 284 284 282 281 282 282 283 282 282 284 284 284 285
292 286 285 292 297 291 287 282 277 278 277 280 278 277 277 281 275 276 280 273 274 271 275 274 272 274 277 280 280 281 283 284 284 284 284 284 284 282 282 282 282 283 283 283
291 291 293 291 287 284 281 278 276 275 275 277 276 277 279 280 281 277 277 272 272 268 278 275 270 276 277 279 279 280 281 282 283 283 282 282 282 281 281 281 280 281 282 283
292 287 284 284 283 278 275 270 268 266 276 277 278 278 280 280 280 276 272 268 270 279 277 274 275 276 278 278 279 279 280 281 281 280 280 279 279 279 279 278 279 280 279 281
286 283 278 280 277 277 274 273 273 277 277 280 282 279 278 280 275 275 270 275 276 275 271 270 272 277 278 278 279 279 279 279 278 278 278 277 277 277 276 278 277 277 278 280
284 283 279 279 279 275 272 274 276 278 284 280 278 276 276 273 271 275 274 273 272 273 272 275 273 278 279 278 278 277 276 273 269 269 269 270 270 271 272 275 276 277 278 279
284 283 279 276 275 279 280 273 275 281 283 280 277 272 270 268 272 270 270 269 269 273 274 273 274 278 277 277 277 277 276 274 274 274 272 275 275 274 273 273 273 273 274 273
281 277 278 277 273 277 279 280 281 285 281 277 273 270 270 271 265 267 271 271 274 273 273 273 276 278 275 274 274 274 274 273 272 273 275 275 277 274 273 271 274 277 278 275